<?xml version="1.0" encoding="UTF-8" standalone="no" ?>
<gpx xmlns="http://www.topografix.com/GPX/1/1" xmlns:xsi="http://www.w3.org/2001/XMLSchema-instance" xsi:schemaLocation="http://www.topografix.com/GPX/1/1 http://www.topografix.com/GPX/1/1/gpx.xsd" version="1.1" creator="VisuGPX - https://www.visugpx.com">
  <metadata>
    <name>Bagnols -Pennafort -Fille d'Isnard</name>
    <desc><![CDATA[avec RA]]></desc>
  </metadata>
  <trk>
    <name><![CDATA[Tour du Lac St Cassien_3]]></name>
    <extensions>
      <line xmlns="http://www.topografix.com/GPX/gpx_style/0/2">
        <color>00FFFF</color>
        <width>4</width>
      </line>
    </extensions>
    <trkseg>
      <trkpt lat="43.58218" lon="6.77384">
        <ele>153.5</ele>
        <time>2025-10-24T09:02:12.000Z</time>
      </trkpt>
      <trkpt lat="43.58221" lon="6.77383">
        <ele>153.3</ele>
        <time>2025-10-24T09:02:13.000Z</time>
      </trkpt>
      <trkpt lat="43.58223" lon="6.77383">
        <ele>153.2</ele>
        <time>2025-10-24T09:02:14.000Z</time>
      </trkpt>
      <trkpt lat="43.58225" lon="6.77384">
        <ele>153.1</ele>
        <time>2025-10-24T09:02:15.000Z</time>
      </trkpt>
      <trkpt lat="43.58227" lon="6.77386">
        <ele>152.9</ele>
        <time>2025-10-24T09:02:16.000Z</time>
      </trkpt>
      <trkpt lat="43.58229" lon="6.77389">
        <ele>153.1</ele>
        <time>2025-10-24T09:02:17.000Z</time>
      </trkpt>
      <trkpt lat="43.58232" lon="6.77392">
        <ele>153.3</ele>
        <time>2025-10-24T09:02:18.000Z</time>
      </trkpt>
      <trkpt lat="43.58234" lon="6.77396">
        <ele>153.6</ele>
        <time>2025-10-24T09:02:19.000Z</time>
      </trkpt>
      <trkpt lat="43.58235" lon="6.774">
        <ele>153.9</ele>
        <time>2025-10-24T09:02:20.000Z</time>
      </trkpt>
      <trkpt lat="43.58237" lon="6.77404">
        <ele>154.2</ele>
        <time>2025-10-24T09:02:21.000Z</time>
      </trkpt>
      <trkpt lat="43.58238" lon="6.77407">
        <ele>154.4</ele>
        <time>2025-10-24T09:02:22.000Z</time>
      </trkpt>
      <trkpt lat="43.5824" lon="6.7741">
        <ele>154.7</ele>
        <time>2025-10-24T09:02:23.000Z</time>
      </trkpt>
      <trkpt lat="43.58242" lon="6.77412">
        <ele>154.9</ele>
        <time>2025-10-24T09:02:24.000Z</time>
      </trkpt>
      <trkpt lat="43.58244" lon="6.77414">
        <ele>155.2</ele>
        <time>2025-10-24T09:02:25.000Z</time>
      </trkpt>
      <trkpt lat="43.58247" lon="6.77416">
        <ele>155.5</ele>
        <time>2025-10-24T09:02:26.000Z</time>
      </trkpt>
      <trkpt lat="43.58249" lon="6.77417">
        <ele>155.7</ele>
        <time>2025-10-24T09:02:27.000Z</time>
      </trkpt>
      <trkpt lat="43.58251" lon="6.77418">
        <ele>156</ele>
        <time>2025-10-24T09:02:28.000Z</time>
      </trkpt>
      <trkpt lat="43.58254" lon="6.7742">
        <ele>156.2</ele>
        <time>2025-10-24T09:02:29.000Z</time>
      </trkpt>
      <trkpt lat="43.58256" lon="6.77422">
        <ele>156.4</ele>
        <time>2025-10-24T09:02:30.000Z</time>
      </trkpt>
      <trkpt lat="43.58258" lon="6.77423">
        <ele>156.5</ele>
        <time>2025-10-24T09:02:31.000Z</time>
      </trkpt>
      <trkpt lat="43.5826" lon="6.77426">
        <ele>156.7</ele>
        <time>2025-10-24T09:02:32.000Z</time>
      </trkpt>
      <trkpt lat="43.58262" lon="6.77429">
        <ele>156.8</ele>
        <time>2025-10-24T09:02:33.000Z</time>
      </trkpt>
      <trkpt lat="43.58264" lon="6.77432">
        <ele>157</ele>
        <time>2025-10-24T09:02:34.000Z</time>
      </trkpt>
      <trkpt lat="43.58265" lon="6.77435">
        <ele>157.1</ele>
        <time>2025-10-24T09:02:35.000Z</time>
      </trkpt>
      <trkpt lat="43.58265" lon="6.77439">
        <ele>157.2</ele>
        <time>2025-10-24T09:02:36.000Z</time>
      </trkpt>
      <trkpt lat="43.58265" lon="6.77443">
        <ele>157.3</ele>
        <time>2025-10-24T09:02:37.000Z</time>
      </trkpt>
      <trkpt lat="43.58265" lon="6.77446">
        <ele>157.5</ele>
        <time>2025-10-24T09:02:38.000Z</time>
      </trkpt>
      <trkpt lat="43.58263" lon="6.7745">
        <ele>157.6</ele>
        <time>2025-10-24T09:02:39.000Z</time>
      </trkpt>
      <trkpt lat="43.58262" lon="6.77454">
        <ele>157.8</ele>
        <time>2025-10-24T09:02:40.000Z</time>
      </trkpt>
      <trkpt lat="43.5826" lon="6.77458">
        <ele>158</ele>
        <time>2025-10-24T09:02:41.000Z</time>
      </trkpt>
      <trkpt lat="43.58259" lon="6.77462">
        <ele>158.2</ele>
        <time>2025-10-24T09:02:42.000Z</time>
      </trkpt>
      <trkpt lat="43.58258" lon="6.77466">
        <ele>158.4</ele>
        <time>2025-10-24T09:02:43.000Z</time>
      </trkpt>
      <trkpt lat="43.58257" lon="6.7747">
        <ele>158.6</ele>
        <time>2025-10-24T09:02:44.000Z</time>
      </trkpt>
      <trkpt lat="43.58255" lon="6.77474">
        <ele>158.8</ele>
        <time>2025-10-24T09:02:45.000Z</time>
      </trkpt>
      <trkpt lat="43.58254" lon="6.77477">
        <ele>159.1</ele>
        <time>2025-10-24T09:02:46.000Z</time>
      </trkpt>
      <trkpt lat="43.58253" lon="6.77481">
        <ele>159.3</ele>
        <time>2025-10-24T09:02:47.000Z</time>
      </trkpt>
      <trkpt lat="43.58251" lon="6.77485">
        <ele>159.5</ele>
        <time>2025-10-24T09:02:48.000Z</time>
      </trkpt>
      <trkpt lat="43.5825" lon="6.77489">
        <ele>159.7</ele>
        <time>2025-10-24T09:02:49.000Z</time>
      </trkpt>
      <trkpt lat="43.58248" lon="6.77493">
        <ele>160</ele>
        <time>2025-10-24T09:02:50.000Z</time>
      </trkpt>
      <trkpt lat="43.58247" lon="6.77497">
        <ele>160.2</ele>
        <time>2025-10-24T09:02:51.000Z</time>
      </trkpt>
      <trkpt lat="43.58246" lon="6.77502">
        <ele>160.4</ele>
        <time>2025-10-24T09:02:52.000Z</time>
      </trkpt>
      <trkpt lat="43.58245" lon="6.77506">
        <ele>160.6</ele>
        <time>2025-10-24T09:02:53.000Z</time>
      </trkpt>
      <trkpt lat="43.58244" lon="6.77511">
        <ele>160.8</ele>
        <time>2025-10-24T09:02:54.000Z</time>
      </trkpt>
      <trkpt lat="43.58243" lon="6.77515">
        <ele>160.9</ele>
        <time>2025-10-24T09:02:55.000Z</time>
      </trkpt>
      <trkpt lat="43.58242" lon="6.7752">
        <ele>161.1</ele>
        <time>2025-10-24T09:02:56.000Z</time>
      </trkpt>
      <trkpt lat="43.5824" lon="6.77525">
        <ele>161.3</ele>
        <time>2025-10-24T09:02:57.000Z</time>
      </trkpt>
      <trkpt lat="43.58239" lon="6.7753">
        <ele>161.4</ele>
        <time>2025-10-24T09:02:58.000Z</time>
      </trkpt>
      <trkpt lat="43.58237" lon="6.77534">
        <ele>161.6</ele>
        <time>2025-10-24T09:02:59.000Z</time>
      </trkpt>
      <trkpt lat="43.58236" lon="6.77539">
        <ele>161.7</ele>
        <time>2025-10-24T09:03:00.000Z</time>
      </trkpt>
      <trkpt lat="43.58234" lon="6.77544">
        <ele>161.9</ele>
        <time>2025-10-24T09:03:01.000Z</time>
      </trkpt>
      <trkpt lat="43.58232" lon="6.77549">
        <ele>162</ele>
        <time>2025-10-24T09:03:02.000Z</time>
      </trkpt>
      <trkpt lat="43.5823" lon="6.77554">
        <ele>162.2</ele>
        <time>2025-10-24T09:03:03.000Z</time>
      </trkpt>
      <trkpt lat="43.58228" lon="6.77558">
        <ele>162.4</ele>
        <time>2025-10-24T09:03:04.000Z</time>
      </trkpt>
      <trkpt lat="43.58226" lon="6.77563">
        <ele>162.6</ele>
        <time>2025-10-24T09:03:05.000Z</time>
      </trkpt>
      <trkpt lat="43.58224" lon="6.77568">
        <ele>162.8</ele>
        <time>2025-10-24T09:03:06.000Z</time>
      </trkpt>
      <trkpt lat="43.58222" lon="6.77573">
        <ele>163.1</ele>
        <time>2025-10-24T09:03:07.000Z</time>
      </trkpt>
      <trkpt lat="43.5822" lon="6.77577">
        <ele>163.3</ele>
        <time>2025-10-24T09:03:08.000Z</time>
      </trkpt>
      <trkpt lat="43.58217" lon="6.77582">
        <ele>163.5</ele>
        <time>2025-10-24T09:03:09.000Z</time>
      </trkpt>
      <trkpt lat="43.58215" lon="6.77586">
        <ele>163.8</ele>
        <time>2025-10-24T09:03:10.000Z</time>
      </trkpt>
      <trkpt lat="43.58213" lon="6.77591">
        <ele>164</ele>
        <time>2025-10-24T09:03:11.000Z</time>
      </trkpt>
      <trkpt lat="43.58211" lon="6.77595">
        <ele>164.2</ele>
        <time>2025-10-24T09:03:12.000Z</time>
      </trkpt>
      <trkpt lat="43.58209" lon="6.77599">
        <ele>164.5</ele>
        <time>2025-10-24T09:03:13.000Z</time>
      </trkpt>
      <trkpt lat="43.58207" lon="6.77604">
        <ele>164.7</ele>
        <time>2025-10-24T09:03:14.000Z</time>
      </trkpt>
      <trkpt lat="43.58205" lon="6.77608">
        <ele>164.9</ele>
        <time>2025-10-24T09:03:15.000Z</time>
      </trkpt>
      <trkpt lat="43.58203" lon="6.77613">
        <ele>165.2</ele>
        <time>2025-10-24T09:03:16.000Z</time>
      </trkpt>
      <trkpt lat="43.58201" lon="6.77616">
        <ele>165.4</ele>
        <time>2025-10-24T09:03:17.000Z</time>
      </trkpt>
      <trkpt lat="43.58199" lon="6.7762">
        <ele>165.6</ele>
        <time>2025-10-24T09:03:18.000Z</time>
      </trkpt>
      <trkpt lat="43.58197" lon="6.77623">
        <ele>165.8</ele>
        <time>2025-10-24T09:03:19.000Z</time>
      </trkpt>
      <trkpt lat="43.58195" lon="6.77626">
        <ele>166</ele>
        <time>2025-10-24T09:03:20.000Z</time>
      </trkpt>
      <trkpt lat="43.58194" lon="6.77629">
        <ele>166.2</ele>
        <time>2025-10-24T09:03:21.000Z</time>
      </trkpt>
      <trkpt lat="43.58192" lon="6.77633">
        <ele>166.3</ele>
        <time>2025-10-24T09:03:22.000Z</time>
      </trkpt>
      <trkpt lat="43.5819" lon="6.77636">
        <ele>166.4</ele>
        <time>2025-10-24T09:03:23.000Z</time>
      </trkpt>
      <trkpt lat="43.58189" lon="6.7764">
        <ele>166.5</ele>
        <time>2025-10-24T09:03:24.000Z</time>
      </trkpt>
      <trkpt lat="43.58187" lon="6.77643">
        <ele>166.6</ele>
        <time>2025-10-24T09:03:25.000Z</time>
      </trkpt>
      <trkpt lat="43.58185" lon="6.77646">
        <ele>166.7</ele>
        <time>2025-10-24T09:03:26.000Z</time>
      </trkpt>
      <trkpt lat="43.58184" lon="6.7765">
        <ele>166.8</ele>
        <time>2025-10-24T09:03:27.000Z</time>
      </trkpt>
      <trkpt lat="43.58181" lon="6.77653">
        <ele>167</ele>
        <time>2025-10-24T09:03:28.000Z</time>
      </trkpt>
      <trkpt lat="43.58179" lon="6.77656">
        <ele>167.2</ele>
        <time>2025-10-24T09:03:29.000Z</time>
      </trkpt>
      <trkpt lat="43.58177" lon="6.77658">
        <ele>167.5</ele>
        <time>2025-10-24T09:03:30.000Z</time>
      </trkpt>
      <trkpt lat="43.58174" lon="6.77661">
        <ele>167.8</ele>
        <time>2025-10-24T09:03:31.000Z</time>
      </trkpt>
      <trkpt lat="43.58171" lon="6.77663">
        <ele>168.1</ele>
        <time>2025-10-24T09:03:32.000Z</time>
      </trkpt>
      <trkpt lat="43.58168" lon="6.77665">
        <ele>168.5</ele>
        <time>2025-10-24T09:03:33.000Z</time>
      </trkpt>
      <trkpt lat="43.58165" lon="6.77668">
        <ele>168.8</ele>
        <time>2025-10-24T09:03:34.000Z</time>
      </trkpt>
      <trkpt lat="43.58162" lon="6.7767">
        <ele>169.2</ele>
        <time>2025-10-24T09:03:35.000Z</time>
      </trkpt>
      <trkpt lat="43.5816" lon="6.77672">
        <ele>169.6</ele>
        <time>2025-10-24T09:03:36.000Z</time>
      </trkpt>
      <trkpt lat="43.58157" lon="6.77675">
        <ele>170</ele>
        <time>2025-10-24T09:03:37.000Z</time>
      </trkpt>
      <trkpt lat="43.58155" lon="6.77677">
        <ele>170.4</ele>
        <time>2025-10-24T09:03:38.000Z</time>
      </trkpt>
      <trkpt lat="43.58153" lon="6.7768">
        <ele>170.9</ele>
        <time>2025-10-24T09:03:39.000Z</time>
      </trkpt>
      <trkpt lat="43.58151" lon="6.77682">
        <ele>171.3</ele>
        <time>2025-10-24T09:03:40.000Z</time>
      </trkpt>
      <trkpt lat="43.58149" lon="6.77684">
        <ele>171.7</ele>
        <time>2025-10-24T09:03:41.000Z</time>
      </trkpt>
      <trkpt lat="43.58147" lon="6.77687">
        <ele>172.2</ele>
        <time>2025-10-24T09:03:42.000Z</time>
      </trkpt>
      <trkpt lat="43.58145" lon="6.7769">
        <ele>172.7</ele>
        <time>2025-10-24T09:03:43.000Z</time>
      </trkpt>
      <trkpt lat="43.58143" lon="6.77692">
        <ele>173.1</ele>
        <time>2025-10-24T09:03:44.000Z</time>
      </trkpt>
      <trkpt lat="43.58141" lon="6.77694">
        <ele>173.5</ele>
        <time>2025-10-24T09:03:45.000Z</time>
      </trkpt>
      <trkpt lat="43.58138" lon="6.77696">
        <ele>174</ele>
        <time>2025-10-24T09:03:46.000Z</time>
      </trkpt>
      <trkpt lat="43.58136" lon="6.77698">
        <ele>174.4</ele>
        <time>2025-10-24T09:03:47.000Z</time>
      </trkpt>
      <trkpt lat="43.58134" lon="6.77699">
        <ele>174.8</ele>
        <time>2025-10-24T09:03:48.000Z</time>
      </trkpt>
      <trkpt lat="43.58131" lon="6.77701">
        <ele>175.3</ele>
        <time>2025-10-24T09:03:49.000Z</time>
      </trkpt>
      <trkpt lat="43.58129" lon="6.77701">
        <ele>175.7</ele>
        <time>2025-10-24T09:03:50.000Z</time>
      </trkpt>
      <trkpt lat="43.58126" lon="6.77702">
        <ele>176.2</ele>
        <time>2025-10-24T09:03:51.000Z</time>
      </trkpt>
      <trkpt lat="43.58123" lon="6.77703">
        <ele>176.7</ele>
        <time>2025-10-24T09:03:52.000Z</time>
      </trkpt>
      <trkpt lat="43.58121" lon="6.77703">
        <ele>177.2</ele>
        <time>2025-10-24T09:03:53.000Z</time>
      </trkpt>
      <trkpt lat="43.58118" lon="6.77703">
        <ele>177.7</ele>
        <time>2025-10-24T09:03:54.000Z</time>
      </trkpt>
      <trkpt lat="43.58115" lon="6.77703">
        <ele>178.2</ele>
        <time>2025-10-24T09:03:55.000Z</time>
      </trkpt>
      <trkpt lat="43.58113" lon="6.77703">
        <ele>178.7</ele>
        <time>2025-10-24T09:03:56.000Z</time>
      </trkpt>
      <trkpt lat="43.58111" lon="6.77703">
        <ele>179.2</ele>
        <time>2025-10-24T09:03:57.000Z</time>
      </trkpt>
      <trkpt lat="43.58108" lon="6.77703">
        <ele>179.7</ele>
        <time>2025-10-24T09:03:58.000Z</time>
      </trkpt>
      <trkpt lat="43.58105" lon="6.77703">
        <ele>180.2</ele>
        <time>2025-10-24T09:03:59.000Z</time>
      </trkpt>
      <trkpt lat="43.58103" lon="6.77703">
        <ele>180.8</ele>
        <time>2025-10-24T09:04:00.000Z</time>
      </trkpt>
      <trkpt lat="43.581" lon="6.77703">
        <ele>181.2</ele>
        <time>2025-10-24T09:04:01.000Z</time>
      </trkpt>
      <trkpt lat="43.58098" lon="6.77703">
        <ele>181.7</ele>
        <time>2025-10-24T09:04:02.000Z</time>
      </trkpt>
      <trkpt lat="43.58095" lon="6.77703">
        <ele>182.2</ele>
        <time>2025-10-24T09:04:03.000Z</time>
      </trkpt>
      <trkpt lat="43.58093" lon="6.77703">
        <ele>182.7</ele>
        <time>2025-10-24T09:04:04.000Z</time>
      </trkpt>
      <trkpt lat="43.5809" lon="6.77704">
        <ele>183.1</ele>
        <time>2025-10-24T09:04:05.000Z</time>
      </trkpt>
      <trkpt lat="43.58088" lon="6.77704">
        <ele>183.6</ele>
        <time>2025-10-24T09:04:06.000Z</time>
      </trkpt>
      <trkpt lat="43.58085" lon="6.77704">
        <ele>184.1</ele>
        <time>2025-10-24T09:04:07.000Z</time>
      </trkpt>
      <trkpt lat="43.58083" lon="6.77704">
        <ele>184.5</ele>
        <time>2025-10-24T09:04:08.000Z</time>
      </trkpt>
      <trkpt lat="43.5808" lon="6.77704">
        <ele>185</ele>
        <time>2025-10-24T09:04:09.000Z</time>
      </trkpt>
      <trkpt lat="43.58078" lon="6.77705">
        <ele>185.4</ele>
        <time>2025-10-24T09:04:10.000Z</time>
      </trkpt>
      <trkpt lat="43.58075" lon="6.77705">
        <ele>185.8</ele>
        <time>2025-10-24T09:04:11.000Z</time>
      </trkpt>
      <trkpt lat="43.58073" lon="6.77706">
        <ele>186.2</ele>
        <time>2025-10-24T09:04:12.000Z</time>
      </trkpt>
      <trkpt lat="43.58071" lon="6.77706">
        <ele>186.5</ele>
        <time>2025-10-24T09:04:13.000Z</time>
      </trkpt>
      <trkpt lat="43.58068" lon="6.77707">
        <ele>186.9</ele>
        <time>2025-10-24T09:04:14.000Z</time>
      </trkpt>
      <trkpt lat="43.58065" lon="6.77708">
        <ele>187.3</ele>
        <time>2025-10-24T09:04:15.000Z</time>
      </trkpt>
      <trkpt lat="43.58063" lon="6.77709">
        <ele>187.7</ele>
        <time>2025-10-24T09:04:16.000Z</time>
      </trkpt>
      <trkpt lat="43.5806" lon="6.77711">
        <ele>188.2</ele>
        <time>2025-10-24T09:04:17.000Z</time>
      </trkpt>
      <trkpt lat="43.58058" lon="6.77712">
        <ele>188.5</ele>
        <time>2025-10-24T09:04:18.000Z</time>
      </trkpt>
      <trkpt lat="43.58055" lon="6.77714">
        <ele>189</ele>
        <time>2025-10-24T09:04:19.000Z</time>
      </trkpt>
      <trkpt lat="43.58053" lon="6.77716">
        <ele>189.4</ele>
        <time>2025-10-24T09:04:20.000Z</time>
      </trkpt>
      <trkpt lat="43.58051" lon="6.77717">
        <ele>189.8</ele>
        <time>2025-10-24T09:04:21.000Z</time>
      </trkpt>
      <trkpt lat="43.58049" lon="6.77719">
        <ele>190.2</ele>
        <time>2025-10-24T09:04:22.000Z</time>
      </trkpt>
      <trkpt lat="43.58047" lon="6.77721">
        <ele>190.7</ele>
        <time>2025-10-24T09:04:23.000Z</time>
      </trkpt>
      <trkpt lat="43.58045" lon="6.77723">
        <ele>191.2</ele>
        <time>2025-10-24T09:04:24.000Z</time>
      </trkpt>
      <trkpt lat="43.58043" lon="6.77726">
        <ele>191.7</ele>
        <time>2025-10-24T09:04:25.000Z</time>
      </trkpt>
      <trkpt lat="43.58041" lon="6.77728">
        <ele>192.1</ele>
        <time>2025-10-24T09:04:26.000Z</time>
      </trkpt>
      <trkpt lat="43.58039" lon="6.77731">
        <ele>192.6</ele>
        <time>2025-10-24T09:04:27.000Z</time>
      </trkpt>
      <trkpt lat="43.58037" lon="6.77734">
        <ele>193.1</ele>
        <time>2025-10-24T09:04:28.000Z</time>
      </trkpt>
      <trkpt lat="43.58036" lon="6.77736">
        <ele>193.5</ele>
        <time>2025-10-24T09:04:29.000Z</time>
      </trkpt>
      <trkpt lat="43.58035" lon="6.77739">
        <ele>193.9</ele>
        <time>2025-10-24T09:04:30.000Z</time>
      </trkpt>
      <trkpt lat="43.58033" lon="6.77742">
        <ele>194.4</ele>
        <time>2025-10-24T09:04:31.000Z</time>
      </trkpt>
      <trkpt lat="43.58032" lon="6.77745">
        <ele>194.8</ele>
        <time>2025-10-24T09:04:32.000Z</time>
      </trkpt>
      <trkpt lat="43.5803" lon="6.77749">
        <ele>195.2</ele>
        <time>2025-10-24T09:04:33.000Z</time>
      </trkpt>
      <trkpt lat="43.58029" lon="6.77752">
        <ele>195.7</ele>
        <time>2025-10-24T09:04:34.000Z</time>
      </trkpt>
      <trkpt lat="43.58028" lon="6.77755">
        <ele>196.1</ele>
        <time>2025-10-24T09:04:35.000Z</time>
      </trkpt>
      <trkpt lat="43.58027" lon="6.77758">
        <ele>196.6</ele>
        <time>2025-10-24T09:04:36.000Z</time>
      </trkpt>
      <trkpt lat="43.58026" lon="6.77762">
        <ele>197</ele>
        <time>2025-10-24T09:04:37.000Z</time>
      </trkpt>
      <trkpt lat="43.58025" lon="6.77765">
        <ele>197.5</ele>
        <time>2025-10-24T09:04:38.000Z</time>
      </trkpt>
      <trkpt lat="43.58023" lon="6.77768">
        <ele>197.9</ele>
        <time>2025-10-24T09:04:39.000Z</time>
      </trkpt>
      <trkpt lat="43.58022" lon="6.77771">
        <ele>198.4</ele>
        <time>2025-10-24T09:04:40.000Z</time>
      </trkpt>
      <trkpt lat="43.58021" lon="6.77774">
        <ele>198.9</ele>
        <time>2025-10-24T09:04:41.000Z</time>
      </trkpt>
      <trkpt lat="43.58019" lon="6.77778">
        <ele>199.5</ele>
        <time>2025-10-24T09:04:42.000Z</time>
      </trkpt>
      <trkpt lat="43.58018" lon="6.77781">
        <ele>199.9</ele>
        <time>2025-10-24T09:04:43.000Z</time>
      </trkpt>
      <trkpt lat="43.58016" lon="6.77783">
        <ele>200.3</ele>
        <time>2025-10-24T09:04:44.000Z</time>
      </trkpt>
      <trkpt lat="43.58014" lon="6.77786">
        <ele>200.8</ele>
        <time>2025-10-24T09:04:45.000Z</time>
      </trkpt>
      <trkpt lat="43.58013" lon="6.77788">
        <ele>201.1</ele>
        <time>2025-10-24T09:04:46.000Z</time>
      </trkpt>
      <trkpt lat="43.58011" lon="6.7779">
        <ele>201.5</ele>
        <time>2025-10-24T09:04:47.000Z</time>
      </trkpt>
      <trkpt lat="43.58009" lon="6.77793">
        <ele>201.8</ele>
        <time>2025-10-24T09:04:48.000Z</time>
      </trkpt>
      <trkpt lat="43.58007" lon="6.77795">
        <ele>202.2</ele>
        <time>2025-10-24T09:04:49.000Z</time>
      </trkpt>
      <trkpt lat="43.58005" lon="6.77798">
        <ele>202.6</ele>
        <time>2025-10-24T09:04:50.000Z</time>
      </trkpt>
      <trkpt lat="43.58003" lon="6.77801">
        <ele>203.1</ele>
        <time>2025-10-24T09:04:51.000Z</time>
      </trkpt>
      <trkpt lat="43.58002" lon="6.77804">
        <ele>203.5</ele>
        <time>2025-10-24T09:04:52.000Z</time>
      </trkpt>
      <trkpt lat="43.58001" lon="6.77807">
        <ele>203.8</ele>
        <time>2025-10-24T09:04:53.000Z</time>
      </trkpt>
      <trkpt lat="43.58" lon="6.7781">
        <ele>204.2</ele>
        <time>2025-10-24T09:04:54.000Z</time>
      </trkpt>
      <trkpt lat="43.57999" lon="6.77813">
        <ele>204.6</ele>
        <time>2025-10-24T09:04:55.000Z</time>
      </trkpt>
      <trkpt lat="43.57998" lon="6.77816">
        <ele>205</ele>
        <time>2025-10-24T09:04:56.000Z</time>
      </trkpt>
      <trkpt lat="43.57997" lon="6.77819">
        <ele>205.4</ele>
        <time>2025-10-24T09:04:57.000Z</time>
      </trkpt>
      <trkpt lat="43.57996" lon="6.77822">
        <ele>205.9</ele>
        <time>2025-10-24T09:04:58.000Z</time>
      </trkpt>
      <trkpt lat="43.57995" lon="6.77826">
        <ele>206.3</ele>
        <time>2025-10-24T09:04:59.000Z</time>
      </trkpt>
      <trkpt lat="43.57994" lon="6.7783">
        <ele>206.8</ele>
        <time>2025-10-24T09:05:00.000Z</time>
      </trkpt>
      <trkpt lat="43.57994" lon="6.77833">
        <ele>207.1</ele>
        <time>2025-10-24T09:05:01.000Z</time>
      </trkpt>
      <trkpt lat="43.57994" lon="6.77836">
        <ele>207.5</ele>
        <time>2025-10-24T09:05:02.000Z</time>
      </trkpt>
      <trkpt lat="43.57993" lon="6.7784">
        <ele>208</ele>
        <time>2025-10-24T09:05:03.000Z</time>
      </trkpt>
      <trkpt lat="43.57993" lon="6.77844">
        <ele>208.4</ele>
        <time>2025-10-24T09:05:04.000Z</time>
      </trkpt>
      <trkpt lat="43.57993" lon="6.77847">
        <ele>208.8</ele>
        <time>2025-10-24T09:05:05.000Z</time>
      </trkpt>
      <trkpt lat="43.57993" lon="6.77851">
        <ele>209.2</ele>
        <time>2025-10-24T09:05:06.000Z</time>
      </trkpt>
      <trkpt lat="43.57994" lon="6.77854">
        <ele>209.6</ele>
        <time>2025-10-24T09:05:07.000Z</time>
      </trkpt>
      <trkpt lat="43.57994" lon="6.77858">
        <ele>209.9</ele>
        <time>2025-10-24T09:05:08.000Z</time>
      </trkpt>
      <trkpt lat="43.57995" lon="6.77861">
        <ele>210.3</ele>
        <time>2025-10-24T09:05:09.000Z</time>
      </trkpt>
      <trkpt lat="43.57996" lon="6.77865">
        <ele>210.7</ele>
        <time>2025-10-24T09:05:10.000Z</time>
      </trkpt>
      <trkpt lat="43.57996" lon="6.77868">
        <ele>211</ele>
        <time>2025-10-24T09:05:11.000Z</time>
      </trkpt>
      <trkpt lat="43.57997" lon="6.77872">
        <ele>211.3</ele>
        <time>2025-10-24T09:05:12.000Z</time>
      </trkpt>
      <trkpt lat="43.57998" lon="6.77875">
        <ele>211.6</ele>
        <time>2025-10-24T09:05:13.000Z</time>
      </trkpt>
      <trkpt lat="43.57999" lon="6.77879">
        <ele>211.9</ele>
        <time>2025-10-24T09:05:14.000Z</time>
      </trkpt>
      <trkpt lat="43.58" lon="6.77883">
        <ele>212.1</ele>
        <time>2025-10-24T09:05:15.000Z</time>
      </trkpt>
      <trkpt lat="43.58" lon="6.77887">
        <ele>212.4</ele>
        <time>2025-10-24T09:05:16.000Z</time>
      </trkpt>
      <trkpt lat="43.58001" lon="6.77891">
        <ele>212.6</ele>
        <time>2025-10-24T09:05:17.000Z</time>
      </trkpt>
      <trkpt lat="43.58002" lon="6.77896">
        <ele>212.9</ele>
        <time>2025-10-24T09:05:18.000Z</time>
      </trkpt>
      <trkpt lat="43.58002" lon="6.77901">
        <ele>213.2</ele>
        <time>2025-10-24T09:05:19.000Z</time>
      </trkpt>
      <trkpt lat="43.58002" lon="6.77906">
        <ele>213.4</ele>
        <time>2025-10-24T09:05:20.000Z</time>
      </trkpt>
      <trkpt lat="43.58002" lon="6.77911">
        <ele>213.7</ele>
        <time>2025-10-24T09:05:21.000Z</time>
      </trkpt>
      <trkpt lat="43.58001" lon="6.77916">
        <ele>214</ele>
        <time>2025-10-24T09:05:22.000Z</time>
      </trkpt>
      <trkpt lat="43.58001" lon="6.77921">
        <ele>214.2</ele>
        <time>2025-10-24T09:05:23.000Z</time>
      </trkpt>
      <trkpt lat="43.58001" lon="6.77926">
        <ele>214.4</ele>
        <time>2025-10-24T09:05:24.000Z</time>
      </trkpt>
      <trkpt lat="43.58" lon="6.77931">
        <ele>214.6</ele>
        <time>2025-10-24T09:05:25.000Z</time>
      </trkpt>
      <trkpt lat="43.58" lon="6.77935">
        <ele>214.7</ele>
        <time>2025-10-24T09:05:26.000Z</time>
      </trkpt>
      <trkpt lat="43.57999" lon="6.7794">
        <ele>214.9</ele>
        <time>2025-10-24T09:05:27.000Z</time>
      </trkpt>
      <trkpt lat="43.57998" lon="6.77945">
        <ele>215</ele>
        <time>2025-10-24T09:05:28.000Z</time>
      </trkpt>
      <trkpt lat="43.57998" lon="6.7795">
        <ele>215.1</ele>
        <time>2025-10-24T09:05:29.000Z</time>
      </trkpt>
      <trkpt lat="43.57997" lon="6.77954">
        <ele>215.1</ele>
        <time>2025-10-24T09:05:30.000Z</time>
      </trkpt>
      <trkpt lat="43.57997" lon="6.77959">
        <ele>215.2</ele>
        <time>2025-10-24T09:05:31.000Z</time>
      </trkpt>
      <trkpt lat="43.57996" lon="6.77964">
        <ele>215.2</ele>
        <time>2025-10-24T09:05:32.000Z</time>
      </trkpt>
      <trkpt lat="43.57995" lon="6.77969">
        <ele>215.3</ele>
        <time>2025-10-24T09:05:33.000Z</time>
      </trkpt>
      <trkpt lat="43.57995" lon="6.77975">
        <ele>215.3</ele>
        <time>2025-10-24T09:05:34.000Z</time>
      </trkpt>
      <trkpt lat="43.57994" lon="6.77981">
        <ele>215.4</ele>
        <time>2025-10-24T09:05:35.000Z</time>
      </trkpt>
      <trkpt lat="43.57994" lon="6.77986">
        <ele>215.5</ele>
        <time>2025-10-24T09:05:36.000Z</time>
      </trkpt>
      <trkpt lat="43.57993" lon="6.77992">
        <ele>215.7</ele>
        <time>2025-10-24T09:05:37.000Z</time>
      </trkpt>
      <trkpt lat="43.57992" lon="6.77998">
        <ele>215.9</ele>
        <time>2025-10-24T09:05:38.000Z</time>
      </trkpt>
      <trkpt lat="43.57991" lon="6.78004">
        <ele>216.1</ele>
        <time>2025-10-24T09:05:39.000Z</time>
      </trkpt>
      <trkpt lat="43.5799" lon="6.7801">
        <ele>216.5</ele>
        <time>2025-10-24T09:05:40.000Z</time>
      </trkpt>
      <trkpt lat="43.57989" lon="6.78016">
        <ele>216.8</ele>
        <time>2025-10-24T09:05:41.000Z</time>
      </trkpt>
      <trkpt lat="43.57988" lon="6.78022">
        <ele>217.2</ele>
        <time>2025-10-24T09:05:42.000Z</time>
      </trkpt>
      <trkpt lat="43.57987" lon="6.78028">
        <ele>217.6</ele>
        <time>2025-10-24T09:05:43.000Z</time>
      </trkpt>
      <trkpt lat="43.57986" lon="6.78035">
        <ele>218.1</ele>
        <time>2025-10-24T09:05:44.000Z</time>
      </trkpt>
      <trkpt lat="43.57985" lon="6.7804">
        <ele>218.4</ele>
        <time>2025-10-24T09:05:45.000Z</time>
      </trkpt>
      <trkpt lat="43.57984" lon="6.78045">
        <ele>218.6</ele>
        <time>2025-10-24T09:05:46.000Z</time>
      </trkpt>
      <trkpt lat="43.57983" lon="6.78051">
        <ele>218.8</ele>
        <time>2025-10-24T09:05:47.000Z</time>
      </trkpt>
      <trkpt lat="43.57982" lon="6.78057">
        <ele>219</ele>
        <time>2025-10-24T09:05:48.000Z</time>
      </trkpt>
      <trkpt lat="43.5798" lon="6.78063">
        <ele>219.2</ele>
        <time>2025-10-24T09:05:49.000Z</time>
      </trkpt>
      <trkpt lat="43.57978" lon="6.78068">
        <ele>219.4</ele>
        <time>2025-10-24T09:05:50.000Z</time>
      </trkpt>
      <trkpt lat="43.57976" lon="6.78073">
        <ele>219.6</ele>
        <time>2025-10-24T09:05:51.000Z</time>
      </trkpt>
      <trkpt lat="43.57973" lon="6.78078">
        <ele>219.8</ele>
        <time>2025-10-24T09:05:52.000Z</time>
      </trkpt>
      <trkpt lat="43.5797" lon="6.78083">
        <ele>220.1</ele>
        <time>2025-10-24T09:05:53.000Z</time>
      </trkpt>
      <trkpt lat="43.57966" lon="6.78086">
        <ele>220.5</ele>
        <time>2025-10-24T09:05:54.000Z</time>
      </trkpt>
      <trkpt lat="43.57963" lon="6.78088">
        <ele>220.9</ele>
        <time>2025-10-24T09:05:55.000Z</time>
      </trkpt>
      <trkpt lat="43.57959" lon="6.78091">
        <ele>221.4</ele>
        <time>2025-10-24T09:05:56.000Z</time>
      </trkpt>
      <trkpt lat="43.57955" lon="6.78093">
        <ele>222</ele>
        <time>2025-10-24T09:05:57.000Z</time>
      </trkpt>
      <trkpt lat="43.57951" lon="6.78094">
        <ele>222.6</ele>
        <time>2025-10-24T09:05:58.000Z</time>
      </trkpt>
      <trkpt lat="43.57947" lon="6.78096">
        <ele>223.1</ele>
        <time>2025-10-24T09:05:59.000Z</time>
      </trkpt>
      <trkpt lat="43.57944" lon="6.78097">
        <ele>223.6</ele>
        <time>2025-10-24T09:06:00.000Z</time>
      </trkpt>
      <trkpt lat="43.57941" lon="6.78098">
        <ele>224.1</ele>
        <time>2025-10-24T09:06:01.000Z</time>
      </trkpt>
      <trkpt lat="43.57937" lon="6.78098">
        <ele>224.6</ele>
        <time>2025-10-24T09:06:02.000Z</time>
      </trkpt>
      <trkpt lat="43.57934" lon="6.78098">
        <ele>225</ele>
        <time>2025-10-24T09:06:03.000Z</time>
      </trkpt>
      <trkpt lat="43.57931" lon="6.78098">
        <ele>225.5</ele>
        <time>2025-10-24T09:06:04.000Z</time>
      </trkpt>
      <trkpt lat="43.57927" lon="6.78097">
        <ele>225.9</ele>
        <time>2025-10-24T09:06:05.000Z</time>
      </trkpt>
      <trkpt lat="43.57923" lon="6.78096">
        <ele>226.4</ele>
        <time>2025-10-24T09:06:06.000Z</time>
      </trkpt>
      <trkpt lat="43.5792" lon="6.78095">
        <ele>226.8</ele>
        <time>2025-10-24T09:06:07.000Z</time>
      </trkpt>
      <trkpt lat="43.57916" lon="6.78093">
        <ele>227.4</ele>
        <time>2025-10-24T09:06:08.000Z</time>
      </trkpt>
      <trkpt lat="43.57913" lon="6.78092">
        <ele>227.8</ele>
        <time>2025-10-24T09:06:09.000Z</time>
      </trkpt>
      <trkpt lat="43.57909" lon="6.7809">
        <ele>228.3</ele>
        <time>2025-10-24T09:06:10.000Z</time>
      </trkpt>
      <trkpt lat="43.57905" lon="6.78088">
        <ele>229</ele>
        <time>2025-10-24T09:06:11.000Z</time>
      </trkpt>
      <trkpt lat="43.57901" lon="6.78087">
        <ele>229.5</ele>
        <time>2025-10-24T09:06:12.000Z</time>
      </trkpt>
      <trkpt lat="43.57898" lon="6.78086">
        <ele>229.9</ele>
        <time>2025-10-24T09:06:13.000Z</time>
      </trkpt>
      <trkpt lat="43.57895" lon="6.78084">
        <ele>230.4</ele>
        <time>2025-10-24T09:06:14.000Z</time>
      </trkpt>
      <trkpt lat="43.57891" lon="6.78083">
        <ele>230.9</ele>
        <time>2025-10-24T09:06:15.000Z</time>
      </trkpt>
      <trkpt lat="43.57888" lon="6.78082">
        <ele>231.4</ele>
        <time>2025-10-24T09:06:16.000Z</time>
      </trkpt>
      <trkpt lat="43.57884" lon="6.78081">
        <ele>231.9</ele>
        <time>2025-10-24T09:06:17.000Z</time>
      </trkpt>
      <trkpt lat="43.5788" lon="6.7808">
        <ele>232.3</ele>
        <time>2025-10-24T09:06:18.000Z</time>
      </trkpt>
      <trkpt lat="43.57877" lon="6.7808">
        <ele>232.7</ele>
        <time>2025-10-24T09:06:19.000Z</time>
      </trkpt>
      <trkpt lat="43.57873" lon="6.78079">
        <ele>233.2</ele>
        <time>2025-10-24T09:06:20.000Z</time>
      </trkpt>
      <trkpt lat="43.57869" lon="6.7808">
        <ele>233.5</ele>
        <time>2025-10-24T09:06:21.000Z</time>
      </trkpt>
      <trkpt lat="43.57865" lon="6.7808">
        <ele>233.9</ele>
        <time>2025-10-24T09:06:22.000Z</time>
      </trkpt>
      <trkpt lat="43.57862" lon="6.78081">
        <ele>234.2</ele>
        <time>2025-10-24T09:06:23.000Z</time>
      </trkpt>
      <trkpt lat="43.57858" lon="6.78081">
        <ele>234.3</ele>
        <time>2025-10-24T09:06:24.000Z</time>
      </trkpt>
      <trkpt lat="43.57855" lon="6.78082">
        <ele>234.4</ele>
        <time>2025-10-24T09:06:25.000Z</time>
      </trkpt>
      <trkpt lat="43.57851" lon="6.78083">
        <ele>234.5</ele>
        <time>2025-10-24T09:06:26.000Z</time>
      </trkpt>
      <trkpt lat="43.57847" lon="6.78083">
        <ele>234.6</ele>
        <time>2025-10-24T09:06:27.000Z</time>
      </trkpt>
      <trkpt lat="43.57843" lon="6.78083">
        <ele>234.7</ele>
        <time>2025-10-24T09:06:28.000Z</time>
      </trkpt>
      <trkpt lat="43.5784" lon="6.78083">
        <ele>234.8</ele>
        <time>2025-10-24T09:06:29.000Z</time>
      </trkpt>
      <trkpt lat="43.57836" lon="6.78084">
        <ele>234.9</ele>
        <time>2025-10-24T09:06:30.000Z</time>
      </trkpt>
      <trkpt lat="43.57835" lon="6.78084">
        <ele>235</ele>
        <time>2025-10-24T09:06:31.000Z</time>
      </trkpt>
      <trkpt lat="43.57833" lon="6.78085">
        <ele>235</ele>
        <time>2025-10-24T09:06:32.000Z</time>
      </trkpt>
      <trkpt lat="43.57833" lon="6.78087">
        <ele>235</ele>
        <time>2025-10-24T09:06:33.000Z</time>
      </trkpt>
      <trkpt lat="43.57833" lon="6.78088">
        <ele>235.1</ele>
        <time>2025-10-24T09:06:34.000Z</time>
      </trkpt>
      <trkpt lat="43.57835" lon="6.78089">
        <ele>235.1</ele>
        <time>2025-10-24T09:06:35.000Z</time>
      </trkpt>
      <trkpt lat="43.57838" lon="6.7809">
        <ele>235</ele>
        <time>2025-10-24T09:06:36.000Z</time>
      </trkpt>
      <trkpt lat="43.57841" lon="6.78089">
        <ele>234.9</ele>
        <time>2025-10-24T09:06:37.000Z</time>
      </trkpt>
      <trkpt lat="43.57844" lon="6.78088">
        <ele>234.8</ele>
        <time>2025-10-24T09:06:38.000Z</time>
      </trkpt>
      <trkpt lat="43.57847" lon="6.78087">
        <ele>234.7</ele>
        <time>2025-10-24T09:06:39.000Z</time>
      </trkpt>
      <trkpt lat="43.57851" lon="6.78086">
        <ele>234.6</ele>
        <time>2025-10-24T09:06:40.000Z</time>
      </trkpt>
      <trkpt lat="43.57854" lon="6.78086">
        <ele>234.4</ele>
        <time>2025-10-24T09:06:41.000Z</time>
      </trkpt>
      <trkpt lat="43.57857" lon="6.78087">
        <ele>234.3</ele>
        <time>2025-10-24T09:06:42.000Z</time>
      </trkpt>
      <trkpt lat="43.57859" lon="6.78089">
        <ele>234.2</ele>
        <time>2025-10-24T09:06:43.000Z</time>
      </trkpt>
      <trkpt lat="43.57862" lon="6.78091">
        <ele>234.2</ele>
        <time>2025-10-24T09:06:44.000Z</time>
      </trkpt>
      <trkpt lat="43.57864" lon="6.78094">
        <ele>234.2</ele>
        <time>2025-10-24T09:06:45.000Z</time>
      </trkpt>
      <trkpt lat="43.57867" lon="6.78098">
        <ele>234.2</ele>
        <time>2025-10-24T09:06:46.000Z</time>
      </trkpt>
      <trkpt lat="43.57868" lon="6.781">
        <ele>234.1</ele>
        <time>2025-10-24T09:06:47.000Z</time>
      </trkpt>
      <trkpt lat="43.57869" lon="6.78104">
        <ele>234.1</ele>
        <time>2025-10-24T09:06:48.000Z</time>
      </trkpt>
      <trkpt lat="43.5787" lon="6.78107">
        <ele>234</ele>
        <time>2025-10-24T09:06:49.000Z</time>
      </trkpt>
      <trkpt lat="43.5787" lon="6.78111">
        <ele>233.8</ele>
        <time>2025-10-24T09:06:50.000Z</time>
      </trkpt>
      <trkpt lat="43.5787" lon="6.78114">
        <ele>233.6</ele>
        <time>2025-10-24T09:06:51.000Z</time>
      </trkpt>
      <trkpt lat="43.57871" lon="6.78116">
        <ele>233.5</ele>
        <time>2025-10-24T09:06:52.000Z</time>
      </trkpt>
      <trkpt lat="43.57871" lon="6.78118">
        <ele>233.4</ele>
        <time>2025-10-24T09:06:53.000Z</time>
      </trkpt>
      <trkpt lat="43.57871" lon="6.78119">
        <ele>233.3</ele>
        <time>2025-10-24T09:06:54.000Z</time>
      </trkpt>
      <trkpt lat="43.57871" lon="6.78119">
        <ele>233.3</ele>
        <time>2025-10-24T09:06:55.000Z</time>
      </trkpt>
      <trkpt lat="43.57871" lon="6.78119">
        <ele>233.3</ele>
        <time>2025-10-24T09:06:56.000Z</time>
      </trkpt>
      <trkpt lat="43.57871" lon="6.78119">
        <ele>233.2</ele>
        <time>2025-10-24T09:06:57.000Z</time>
      </trkpt>
      <trkpt lat="43.57871" lon="6.78119">
        <ele>233.2</ele>
        <time>2025-10-24T09:06:58.000Z</time>
      </trkpt>
      <trkpt lat="43.57871" lon="6.78119">
        <ele>233.2</ele>
        <time>2025-10-24T09:06:59.000Z</time>
      </trkpt>
      <trkpt lat="43.57871" lon="6.7812">
        <ele>233.2</ele>
        <time>2025-10-24T09:07:00.000Z</time>
      </trkpt>
      <trkpt lat="43.57871" lon="6.7812">
        <ele>233.2</ele>
        <time>2025-10-24T09:07:01.000Z</time>
      </trkpt>
      <trkpt lat="43.57871" lon="6.7812">
        <ele>233.2</ele>
        <time>2025-10-24T09:07:02.000Z</time>
      </trkpt>
      <trkpt lat="43.57871" lon="6.7812">
        <ele>233.2</ele>
        <time>2025-10-24T09:07:03.000Z</time>
      </trkpt>
      <trkpt lat="43.57871" lon="6.7812">
        <ele>233.1</ele>
        <time>2025-10-24T09:07:04.000Z</time>
      </trkpt>
      <trkpt lat="43.57871" lon="6.78121">
        <ele>233.1</ele>
        <time>2025-10-24T09:07:05.000Z</time>
      </trkpt>
      <trkpt lat="43.57871" lon="6.78123">
        <ele>232.9</ele>
        <time>2025-10-24T09:07:06.000Z</time>
      </trkpt>
      <trkpt lat="43.57871" lon="6.78126">
        <ele>232.7</ele>
        <time>2025-10-24T09:07:07.000Z</time>
      </trkpt>
      <trkpt lat="43.57872" lon="6.78129">
        <ele>232.4</ele>
        <time>2025-10-24T09:07:08.000Z</time>
      </trkpt>
      <trkpt lat="43.57873" lon="6.78132">
        <ele>232.1</ele>
        <time>2025-10-24T09:07:09.000Z</time>
      </trkpt>
      <trkpt lat="43.57875" lon="6.78136">
        <ele>231.7</ele>
        <time>2025-10-24T09:07:10.000Z</time>
      </trkpt>
      <trkpt lat="43.57876" lon="6.78139">
        <ele>231.4</ele>
        <time>2025-10-24T09:07:11.000Z</time>
      </trkpt>
      <trkpt lat="43.57879" lon="6.78142">
        <ele>231</ele>
        <time>2025-10-24T09:07:12.000Z</time>
      </trkpt>
      <trkpt lat="43.57883" lon="6.78145">
        <ele>230.5</ele>
        <time>2025-10-24T09:07:13.000Z</time>
      </trkpt>
      <trkpt lat="43.57888" lon="6.78146">
        <ele>230.1</ele>
        <time>2025-10-24T09:07:14.000Z</time>
      </trkpt>
      <trkpt lat="43.57892" lon="6.78147">
        <ele>229.8</ele>
        <time>2025-10-24T09:07:15.000Z</time>
      </trkpt>
      <trkpt lat="43.57897" lon="6.78148">
        <ele>229.3</ele>
        <time>2025-10-24T09:07:16.000Z</time>
      </trkpt>
      <trkpt lat="43.57902" lon="6.78148">
        <ele>228.9</ele>
        <time>2025-10-24T09:07:17.000Z</time>
      </trkpt>
      <trkpt lat="43.57907" lon="6.78148">
        <ele>228.5</ele>
        <time>2025-10-24T09:07:18.000Z</time>
      </trkpt>
      <trkpt lat="43.57914" lon="6.78149">
        <ele>228.1</ele>
        <time>2025-10-24T09:07:19.000Z</time>
      </trkpt>
      <trkpt lat="43.57919" lon="6.78149">
        <ele>227.8</ele>
        <time>2025-10-24T09:07:20.000Z</time>
      </trkpt>
      <trkpt lat="43.57924" lon="6.78149">
        <ele>227.5</ele>
        <time>2025-10-24T09:07:21.000Z</time>
      </trkpt>
      <trkpt lat="43.5793" lon="6.7815">
        <ele>227.2</ele>
        <time>2025-10-24T09:07:22.000Z</time>
      </trkpt>
      <trkpt lat="43.57936" lon="6.78151">
        <ele>227.1</ele>
        <time>2025-10-24T09:07:23.000Z</time>
      </trkpt>
      <trkpt lat="43.57942" lon="6.78153">
        <ele>227.1</ele>
        <time>2025-10-24T09:07:24.000Z</time>
      </trkpt>
      <trkpt lat="43.57947" lon="6.78155">
        <ele>227.2</ele>
        <time>2025-10-24T09:07:25.000Z</time>
      </trkpt>
      <trkpt lat="43.57952" lon="6.78157">
        <ele>227.5</ele>
        <time>2025-10-24T09:07:26.000Z</time>
      </trkpt>
      <trkpt lat="43.57958" lon="6.78159">
        <ele>228.1</ele>
        <time>2025-10-24T09:07:27.000Z</time>
      </trkpt>
      <trkpt lat="43.57963" lon="6.7816">
        <ele>228.6</ele>
        <time>2025-10-24T09:07:28.000Z</time>
      </trkpt>
      <trkpt lat="43.57966" lon="6.78161">
        <ele>229.1</ele>
        <time>2025-10-24T09:07:29.000Z</time>
      </trkpt>
      <trkpt lat="43.5797" lon="6.78162">
        <ele>229.7</ele>
        <time>2025-10-24T09:07:30.000Z</time>
      </trkpt>
      <trkpt lat="43.57973" lon="6.78163">
        <ele>230.2</ele>
        <time>2025-10-24T09:07:31.000Z</time>
      </trkpt>
      <trkpt lat="43.57977" lon="6.78165">
        <ele>230.8</ele>
        <time>2025-10-24T09:07:32.000Z</time>
      </trkpt>
      <trkpt lat="43.57981" lon="6.78166">
        <ele>231.5</ele>
        <time>2025-10-24T09:07:33.000Z</time>
      </trkpt>
      <trkpt lat="43.57983" lon="6.78168">
        <ele>231.9</ele>
        <time>2025-10-24T09:07:34.000Z</time>
      </trkpt>
      <trkpt lat="43.57987" lon="6.78169">
        <ele>232.5</ele>
        <time>2025-10-24T09:07:35.000Z</time>
      </trkpt>
      <trkpt lat="43.5799" lon="6.78171">
        <ele>233</ele>
        <time>2025-10-24T09:07:36.000Z</time>
      </trkpt>
      <trkpt lat="43.57993" lon="6.78172">
        <ele>233.5</ele>
        <time>2025-10-24T09:07:37.000Z</time>
      </trkpt>
      <trkpt lat="43.57996" lon="6.78173">
        <ele>233.8</ele>
        <time>2025-10-24T09:07:38.000Z</time>
      </trkpt>
      <trkpt lat="43.57999" lon="6.78173">
        <ele>234.2</ele>
        <time>2025-10-24T09:07:39.000Z</time>
      </trkpt>
      <trkpt lat="43.58002" lon="6.78172">
        <ele>234.6</ele>
        <time>2025-10-24T09:07:40.000Z</time>
      </trkpt>
      <trkpt lat="43.58006" lon="6.78171">
        <ele>234.9</ele>
        <time>2025-10-24T09:07:41.000Z</time>
      </trkpt>
      <trkpt lat="43.58009" lon="6.78169">
        <ele>235.2</ele>
        <time>2025-10-24T09:07:42.000Z</time>
      </trkpt>
      <trkpt lat="43.58012" lon="6.78168">
        <ele>235.4</ele>
        <time>2025-10-24T09:07:43.000Z</time>
      </trkpt>
      <trkpt lat="43.58014" lon="6.78167">
        <ele>235.5</ele>
        <time>2025-10-24T09:07:44.000Z</time>
      </trkpt>
      <trkpt lat="43.58017" lon="6.78167">
        <ele>235.6</ele>
        <time>2025-10-24T09:07:45.000Z</time>
      </trkpt>
      <trkpt lat="43.58021" lon="6.78168">
        <ele>235.7</ele>
        <time>2025-10-24T09:07:46.000Z</time>
      </trkpt>
      <trkpt lat="43.58023" lon="6.7817">
        <ele>235.7</ele>
        <time>2025-10-24T09:07:47.000Z</time>
      </trkpt>
      <trkpt lat="43.58025" lon="6.78172">
        <ele>235.6</ele>
        <time>2025-10-24T09:07:48.000Z</time>
      </trkpt>
      <trkpt lat="43.58027" lon="6.78176">
        <ele>235.5</ele>
        <time>2025-10-24T09:07:49.000Z</time>
      </trkpt>
      <trkpt lat="43.5803" lon="6.78182">
        <ele>235.3</ele>
        <time>2025-10-24T09:07:50.000Z</time>
      </trkpt>
      <trkpt lat="43.58031" lon="6.78187">
        <ele>235.1</ele>
        <time>2025-10-24T09:07:51.000Z</time>
      </trkpt>
      <trkpt lat="43.58033" lon="6.78193">
        <ele>235</ele>
        <time>2025-10-24T09:07:52.000Z</time>
      </trkpt>
      <trkpt lat="43.58035" lon="6.78197">
        <ele>234.8</ele>
        <time>2025-10-24T09:07:53.000Z</time>
      </trkpt>
      <trkpt lat="43.58037" lon="6.78203">
        <ele>234.7</ele>
        <time>2025-10-24T09:07:54.000Z</time>
      </trkpt>
      <trkpt lat="43.5804" lon="6.78209">
        <ele>234.5</ele>
        <time>2025-10-24T09:07:55.000Z</time>
      </trkpt>
      <trkpt lat="43.58042" lon="6.78214">
        <ele>234.4</ele>
        <time>2025-10-24T09:07:56.000Z</time>
      </trkpt>
      <trkpt lat="43.58044" lon="6.78218">
        <ele>234.3</ele>
        <time>2025-10-24T09:07:57.000Z</time>
      </trkpt>
      <trkpt lat="43.58047" lon="6.78223">
        <ele>234.3</ele>
        <time>2025-10-24T09:07:58.000Z</time>
      </trkpt>
      <trkpt lat="43.5805" lon="6.78228">
        <ele>234.3</ele>
        <time>2025-10-24T09:07:59.000Z</time>
      </trkpt>
      <trkpt lat="43.58053" lon="6.78232">
        <ele>234.3</ele>
        <time>2025-10-24T09:08:00.000Z</time>
      </trkpt>
      <trkpt lat="43.58056" lon="6.78236">
        <ele>234.3</ele>
        <time>2025-10-24T09:08:01.000Z</time>
      </trkpt>
      <trkpt lat="43.58058" lon="6.78238">
        <ele>234.3</ele>
        <time>2025-10-24T09:08:02.000Z</time>
      </trkpt>
      <trkpt lat="43.58061" lon="6.78241">
        <ele>234.3</ele>
        <time>2025-10-24T09:08:03.000Z</time>
      </trkpt>
      <trkpt lat="43.58063" lon="6.78243">
        <ele>234.3</ele>
        <time>2025-10-24T09:08:04.000Z</time>
      </trkpt>
      <trkpt lat="43.58066" lon="6.78245">
        <ele>234.3</ele>
        <time>2025-10-24T09:08:05.000Z</time>
      </trkpt>
      <trkpt lat="43.58068" lon="6.78246">
        <ele>234.3</ele>
        <time>2025-10-24T09:08:06.000Z</time>
      </trkpt>
      <trkpt lat="43.5807" lon="6.78248">
        <ele>234.2</ele>
        <time>2025-10-24T09:08:07.000Z</time>
      </trkpt>
      <trkpt lat="43.58072" lon="6.78251">
        <ele>234.1</ele>
        <time>2025-10-24T09:08:08.000Z</time>
      </trkpt>
      <trkpt lat="43.58073" lon="6.78252">
        <ele>234.1</ele>
        <time>2025-10-24T09:08:09.000Z</time>
      </trkpt>
      <trkpt lat="43.58074" lon="6.78253">
        <ele>234</ele>
        <time>2025-10-24T09:08:10.000Z</time>
      </trkpt>
      <trkpt lat="43.58074" lon="6.78254">
        <ele>234</ele>
        <time>2025-10-24T09:08:11.000Z</time>
      </trkpt>
      <trkpt lat="43.58074" lon="6.78254">
        <ele>234</ele>
        <time>2025-10-24T09:08:12.000Z</time>
      </trkpt>
      <trkpt lat="43.58074" lon="6.78254">
        <ele>234</ele>
        <time>2025-10-24T09:08:13.000Z</time>
      </trkpt>
      <trkpt lat="43.58074" lon="6.78254">
        <ele>234</ele>
        <time>2025-10-24T09:08:14.000Z</time>
      </trkpt>
      <trkpt lat="43.58073" lon="6.78254">
        <ele>234</ele>
        <time>2025-10-24T09:08:15.000Z</time>
      </trkpt>
      <trkpt lat="43.58073" lon="6.78254">
        <ele>234</ele>
        <time>2025-10-24T09:08:16.000Z</time>
      </trkpt>
      <trkpt lat="43.58073" lon="6.78254">
        <ele>234</ele>
        <time>2025-10-24T09:08:17.000Z</time>
      </trkpt>
      <trkpt lat="43.58073" lon="6.78254">
        <ele>233.9</ele>
        <time>2025-10-24T09:08:18.000Z</time>
      </trkpt>
      <trkpt lat="43.58073" lon="6.78254">
        <ele>233.9</ele>
        <time>2025-10-24T09:08:19.000Z</time>
      </trkpt>
      <trkpt lat="43.58073" lon="6.78254">
        <ele>233.9</ele>
        <time>2025-10-24T09:08:20.000Z</time>
      </trkpt>
      <trkpt lat="43.58072" lon="6.78254">
        <ele>233.9</ele>
        <time>2025-10-24T09:08:21.000Z</time>
      </trkpt>
      <trkpt lat="43.58072" lon="6.78254">
        <ele>233.9</ele>
        <time>2025-10-24T09:08:22.000Z</time>
      </trkpt>
      <trkpt lat="43.58072" lon="6.78254">
        <ele>233.9</ele>
        <time>2025-10-24T09:08:23.000Z</time>
      </trkpt>
      <trkpt lat="43.58072" lon="6.78254">
        <ele>233.9</ele>
        <time>2025-10-24T09:08:24.000Z</time>
      </trkpt>
      <trkpt lat="43.58072" lon="6.78254">
        <ele>233.9</ele>
        <time>2025-10-24T09:08:25.000Z</time>
      </trkpt>
      <trkpt lat="43.58072" lon="6.78254">
        <ele>233.9</ele>
        <time>2025-10-24T09:08:26.000Z</time>
      </trkpt>
      <trkpt lat="43.58074" lon="6.78257">
        <ele>233.7</ele>
        <time>2025-10-24T09:08:27.000Z</time>
      </trkpt>
      <trkpt lat="43.58075" lon="6.78261">
        <ele>233.5</ele>
        <time>2025-10-24T09:08:28.000Z</time>
      </trkpt>
      <trkpt lat="43.58078" lon="6.78265">
        <ele>233.2</ele>
        <time>2025-10-24T09:08:29.000Z</time>
      </trkpt>
      <trkpt lat="43.58081" lon="6.78269">
        <ele>232.9</ele>
        <time>2025-10-24T09:08:30.000Z</time>
      </trkpt>
      <trkpt lat="43.58084" lon="6.78273">
        <ele>232.5</ele>
        <time>2025-10-24T09:08:31.000Z</time>
      </trkpt>
      <trkpt lat="43.58087" lon="6.78279">
        <ele>232.1</ele>
        <time>2025-10-24T09:08:32.000Z</time>
      </trkpt>
      <trkpt lat="43.58091" lon="6.78283">
        <ele>231.8</ele>
        <time>2025-10-24T09:08:33.000Z</time>
      </trkpt>
      <trkpt lat="43.58094" lon="6.78286">
        <ele>231.5</ele>
        <time>2025-10-24T09:08:34.000Z</time>
      </trkpt>
      <trkpt lat="43.58098" lon="6.7829">
        <ele>231.1</ele>
        <time>2025-10-24T09:08:35.000Z</time>
      </trkpt>
      <trkpt lat="43.58102" lon="6.78293">
        <ele>230.6</ele>
        <time>2025-10-24T09:08:36.000Z</time>
      </trkpt>
      <trkpt lat="43.58106" lon="6.78297">
        <ele>230.1</ele>
        <time>2025-10-24T09:08:37.000Z</time>
      </trkpt>
      <trkpt lat="43.5811" lon="6.78301">
        <ele>229.5</ele>
        <time>2025-10-24T09:08:38.000Z</time>
      </trkpt>
      <trkpt lat="43.58113" lon="6.78304">
        <ele>229.2</ele>
        <time>2025-10-24T09:08:39.000Z</time>
      </trkpt>
      <trkpt lat="43.58117" lon="6.78307">
        <ele>228.7</ele>
        <time>2025-10-24T09:08:40.000Z</time>
      </trkpt>
      <trkpt lat="43.58121" lon="6.78309">
        <ele>228.3</ele>
        <time>2025-10-24T09:08:41.000Z</time>
      </trkpt>
      <trkpt lat="43.58125" lon="6.7831">
        <ele>227.8</ele>
        <time>2025-10-24T09:08:42.000Z</time>
      </trkpt>
      <trkpt lat="43.58128" lon="6.7831">
        <ele>227.5</ele>
        <time>2025-10-24T09:08:43.000Z</time>
      </trkpt>
      <trkpt lat="43.58132" lon="6.78308">
        <ele>227.1</ele>
        <time>2025-10-24T09:08:44.000Z</time>
      </trkpt>
      <trkpt lat="43.58136" lon="6.78306">
        <ele>226.6</ele>
        <time>2025-10-24T09:08:45.000Z</time>
      </trkpt>
      <trkpt lat="43.58139" lon="6.78303">
        <ele>226.1</ele>
        <time>2025-10-24T09:08:46.000Z</time>
      </trkpt>
      <trkpt lat="43.58142" lon="6.783">
        <ele>225.7</ele>
        <time>2025-10-24T09:08:47.000Z</time>
      </trkpt>
      <trkpt lat="43.58145" lon="6.78297">
        <ele>225.2</ele>
        <time>2025-10-24T09:08:48.000Z</time>
      </trkpt>
      <trkpt lat="43.58149" lon="6.78293">
        <ele>224.6</ele>
        <time>2025-10-24T09:08:49.000Z</time>
      </trkpt>
      <trkpt lat="43.58152" lon="6.78289">
        <ele>223.9</ele>
        <time>2025-10-24T09:08:50.000Z</time>
      </trkpt>
      <trkpt lat="43.58155" lon="6.78285">
        <ele>223.3</ele>
        <time>2025-10-24T09:08:51.000Z</time>
      </trkpt>
      <trkpt lat="43.58158" lon="6.7828">
        <ele>222.7</ele>
        <time>2025-10-24T09:08:52.000Z</time>
      </trkpt>
      <trkpt lat="43.58159" lon="6.78277">
        <ele>222.2</ele>
        <time>2025-10-24T09:08:53.000Z</time>
      </trkpt>
      <trkpt lat="43.58161" lon="6.78273">
        <ele>221.7</ele>
        <time>2025-10-24T09:08:54.000Z</time>
      </trkpt>
      <trkpt lat="43.58163" lon="6.78267">
        <ele>221</ele>
        <time>2025-10-24T09:08:55.000Z</time>
      </trkpt>
      <trkpt lat="43.58163" lon="6.78263">
        <ele>220.6</ele>
        <time>2025-10-24T09:08:56.000Z</time>
      </trkpt>
      <trkpt lat="43.58164" lon="6.78257">
        <ele>219.9</ele>
        <time>2025-10-24T09:08:57.000Z</time>
      </trkpt>
      <trkpt lat="43.58164" lon="6.78252">
        <ele>219.4</ele>
        <time>2025-10-24T09:08:58.000Z</time>
      </trkpt>
      <trkpt lat="43.58165" lon="6.78246">
        <ele>218.9</ele>
        <time>2025-10-24T09:08:59.000Z</time>
      </trkpt>
      <trkpt lat="43.58165" lon="6.7824">
        <ele>218.2</ele>
        <time>2025-10-24T09:09:00.000Z</time>
      </trkpt>
      <trkpt lat="43.58165" lon="6.78233">
        <ele>217.7</ele>
        <time>2025-10-24T09:09:01.000Z</time>
      </trkpt>
      <trkpt lat="43.58165" lon="6.78229">
        <ele>217.2</ele>
        <time>2025-10-24T09:09:02.000Z</time>
      </trkpt>
      <trkpt lat="43.58165" lon="6.78223">
        <ele>216.8</ele>
        <time>2025-10-24T09:09:03.000Z</time>
      </trkpt>
      <trkpt lat="43.58165" lon="6.78218">
        <ele>216.4</ele>
        <time>2025-10-24T09:09:04.000Z</time>
      </trkpt>
      <trkpt lat="43.58165" lon="6.78211">
        <ele>216</ele>
        <time>2025-10-24T09:09:05.000Z</time>
      </trkpt>
      <trkpt lat="43.58165" lon="6.78206">
        <ele>215.6</ele>
        <time>2025-10-24T09:09:06.000Z</time>
      </trkpt>
      <trkpt lat="43.58166" lon="6.78201">
        <ele>215.3</ele>
        <time>2025-10-24T09:09:07.000Z</time>
      </trkpt>
      <trkpt lat="43.58166" lon="6.78195">
        <ele>215</ele>
        <time>2025-10-24T09:09:08.000Z</time>
      </trkpt>
      <trkpt lat="43.58166" lon="6.78189">
        <ele>214.7</ele>
        <time>2025-10-24T09:09:09.000Z</time>
      </trkpt>
      <trkpt lat="43.58166" lon="6.78182">
        <ele>214.2</ele>
        <time>2025-10-24T09:09:10.000Z</time>
      </trkpt>
      <trkpt lat="43.58165" lon="6.78175">
        <ele>213.8</ele>
        <time>2025-10-24T09:09:11.000Z</time>
      </trkpt>
      <trkpt lat="43.58164" lon="6.78169">
        <ele>213.4</ele>
        <time>2025-10-24T09:09:12.000Z</time>
      </trkpt>
      <trkpt lat="43.58163" lon="6.78162">
        <ele>212.9</ele>
        <time>2025-10-24T09:09:13.000Z</time>
      </trkpt>
      <trkpt lat="43.58162" lon="6.78156">
        <ele>212.5</ele>
        <time>2025-10-24T09:09:14.000Z</time>
      </trkpt>
      <trkpt lat="43.58162" lon="6.78151">
        <ele>212.1</ele>
        <time>2025-10-24T09:09:15.000Z</time>
      </trkpt>
      <trkpt lat="43.58161" lon="6.78145">
        <ele>211.6</ele>
        <time>2025-10-24T09:09:16.000Z</time>
      </trkpt>
      <trkpt lat="43.5816" lon="6.7814">
        <ele>211.2</ele>
        <time>2025-10-24T09:09:17.000Z</time>
      </trkpt>
      <trkpt lat="43.58158" lon="6.78134">
        <ele>210.7</ele>
        <time>2025-10-24T09:09:18.000Z</time>
      </trkpt>
      <trkpt lat="43.58156" lon="6.78128">
        <ele>210.3</ele>
        <time>2025-10-24T09:09:19.000Z</time>
      </trkpt>
      <trkpt lat="43.58153" lon="6.78124">
        <ele>209.9</ele>
        <time>2025-10-24T09:09:20.000Z</time>
      </trkpt>
      <trkpt lat="43.5815" lon="6.7812">
        <ele>209.5</ele>
        <time>2025-10-24T09:09:21.000Z</time>
      </trkpt>
      <trkpt lat="43.58147" lon="6.78118">
        <ele>209.2</ele>
        <time>2025-10-24T09:09:22.000Z</time>
      </trkpt>
      <trkpt lat="43.58143" lon="6.78116">
        <ele>208.8</ele>
        <time>2025-10-24T09:09:23.000Z</time>
      </trkpt>
      <trkpt lat="43.58139" lon="6.78115">
        <ele>208.5</ele>
        <time>2025-10-24T09:09:24.000Z</time>
      </trkpt>
      <trkpt lat="43.58134" lon="6.78115">
        <ele>208.2</ele>
        <time>2025-10-24T09:09:25.000Z</time>
      </trkpt>
      <trkpt lat="43.5813" lon="6.78116">
        <ele>207.8</ele>
        <time>2025-10-24T09:09:26.000Z</time>
      </trkpt>
      <trkpt lat="43.58126" lon="6.78118">
        <ele>207.6</ele>
        <time>2025-10-24T09:09:27.000Z</time>
      </trkpt>
      <trkpt lat="43.5812" lon="6.7812">
        <ele>207.2</ele>
        <time>2025-10-24T09:09:28.000Z</time>
      </trkpt>
      <trkpt lat="43.58116" lon="6.7812">
        <ele>206.9</ele>
        <time>2025-10-24T09:09:29.000Z</time>
      </trkpt>
      <trkpt lat="43.58113" lon="6.78118">
        <ele>206.6</ele>
        <time>2025-10-24T09:09:30.000Z</time>
      </trkpt>
      <trkpt lat="43.5811" lon="6.78116">
        <ele>206.4</ele>
        <time>2025-10-24T09:09:31.000Z</time>
      </trkpt>
      <trkpt lat="43.58108" lon="6.78112">
        <ele>206</ele>
        <time>2025-10-24T09:09:32.000Z</time>
      </trkpt>
      <trkpt lat="43.58106" lon="6.78107">
        <ele>205.7</ele>
        <time>2025-10-24T09:09:33.000Z</time>
      </trkpt>
      <trkpt lat="43.58105" lon="6.78102">
        <ele>205.3</ele>
        <time>2025-10-24T09:09:34.000Z</time>
      </trkpt>
      <trkpt lat="43.58104" lon="6.78096">
        <ele>204.8</ele>
        <time>2025-10-24T09:09:35.000Z</time>
      </trkpt>
      <trkpt lat="43.58104" lon="6.78091">
        <ele>204.4</ele>
        <time>2025-10-24T09:09:36.000Z</time>
      </trkpt>
      <trkpt lat="43.58104" lon="6.78086">
        <ele>203.9</ele>
        <time>2025-10-24T09:09:37.000Z</time>
      </trkpt>
      <trkpt lat="43.58104" lon="6.78082">
        <ele>203.5</ele>
        <time>2025-10-24T09:09:38.000Z</time>
      </trkpt>
      <trkpt lat="43.58105" lon="6.78077">
        <ele>203</ele>
        <time>2025-10-24T09:09:39.000Z</time>
      </trkpt>
      <trkpt lat="43.58106" lon="6.78073">
        <ele>202.4</ele>
        <time>2025-10-24T09:09:40.000Z</time>
      </trkpt>
      <trkpt lat="43.58107" lon="6.78069">
        <ele>201.9</ele>
        <time>2025-10-24T09:09:41.000Z</time>
      </trkpt>
      <trkpt lat="43.58108" lon="6.78064">
        <ele>201.4</ele>
        <time>2025-10-24T09:09:42.000Z</time>
      </trkpt>
      <trkpt lat="43.5811" lon="6.7806">
        <ele>200.9</ele>
        <time>2025-10-24T09:09:43.000Z</time>
      </trkpt>
      <trkpt lat="43.58111" lon="6.78056">
        <ele>200.4</ele>
        <time>2025-10-24T09:09:44.000Z</time>
      </trkpt>
      <trkpt lat="43.58112" lon="6.78052">
        <ele>199.9</ele>
        <time>2025-10-24T09:09:45.000Z</time>
      </trkpt>
      <trkpt lat="43.58114" lon="6.78048">
        <ele>199.4</ele>
        <time>2025-10-24T09:09:46.000Z</time>
      </trkpt>
      <trkpt lat="43.58115" lon="6.78044">
        <ele>198.9</ele>
        <time>2025-10-24T09:09:47.000Z</time>
      </trkpt>
      <trkpt lat="43.58116" lon="6.7804">
        <ele>198.4</ele>
        <time>2025-10-24T09:09:48.000Z</time>
      </trkpt>
      <trkpt lat="43.58117" lon="6.78036">
        <ele>198</ele>
        <time>2025-10-24T09:09:49.000Z</time>
      </trkpt>
      <trkpt lat="43.58118" lon="6.78032">
        <ele>197.6</ele>
        <time>2025-10-24T09:09:50.000Z</time>
      </trkpt>
      <trkpt lat="43.58119" lon="6.78029">
        <ele>197.2</ele>
        <time>2025-10-24T09:09:51.000Z</time>
      </trkpt>
      <trkpt lat="43.5812" lon="6.78024">
        <ele>196.8</ele>
        <time>2025-10-24T09:09:52.000Z</time>
      </trkpt>
      <trkpt lat="43.58121" lon="6.7802">
        <ele>196.3</ele>
        <time>2025-10-24T09:09:53.000Z</time>
      </trkpt>
      <trkpt lat="43.58123" lon="6.78016">
        <ele>195.9</ele>
        <time>2025-10-24T09:09:54.000Z</time>
      </trkpt>
      <trkpt lat="43.58124" lon="6.78011">
        <ele>195.4</ele>
        <time>2025-10-24T09:09:55.000Z</time>
      </trkpt>
      <trkpt lat="43.58126" lon="6.78006">
        <ele>194.9</ele>
        <time>2025-10-24T09:09:56.000Z</time>
      </trkpt>
      <trkpt lat="43.58127" lon="6.78001">
        <ele>194.4</ele>
        <time>2025-10-24T09:09:57.000Z</time>
      </trkpt>
      <trkpt lat="43.58128" lon="6.77995">
        <ele>193.9</ele>
        <time>2025-10-24T09:09:58.000Z</time>
      </trkpt>
      <trkpt lat="43.58129" lon="6.77989">
        <ele>193.4</ele>
        <time>2025-10-24T09:09:59.000Z</time>
      </trkpt>
      <trkpt lat="43.5813" lon="6.77983">
        <ele>192.9</ele>
        <time>2025-10-24T09:10:00.000Z</time>
      </trkpt>
      <trkpt lat="43.58131" lon="6.77978">
        <ele>192.5</ele>
        <time>2025-10-24T09:10:01.000Z</time>
      </trkpt>
      <trkpt lat="43.58132" lon="6.77973">
        <ele>192</ele>
        <time>2025-10-24T09:10:02.000Z</time>
      </trkpt>
      <trkpt lat="43.58133" lon="6.77968">
        <ele>191.6</ele>
        <time>2025-10-24T09:10:03.000Z</time>
      </trkpt>
      <trkpt lat="43.58134" lon="6.77963">
        <ele>191.1</ele>
        <time>2025-10-24T09:10:04.000Z</time>
      </trkpt>
      <trkpt lat="43.58135" lon="6.77959">
        <ele>190.6</ele>
        <time>2025-10-24T09:10:05.000Z</time>
      </trkpt>
      <trkpt lat="43.58135" lon="6.77955">
        <ele>190.2</ele>
        <time>2025-10-24T09:10:06.000Z</time>
      </trkpt>
      <trkpt lat="43.58135" lon="6.77952">
        <ele>189.9</ele>
        <time>2025-10-24T09:10:07.000Z</time>
      </trkpt>
      <trkpt lat="43.58135" lon="6.77948">
        <ele>189.5</ele>
        <time>2025-10-24T09:10:08.000Z</time>
      </trkpt>
      <trkpt lat="43.58135" lon="6.77944">
        <ele>189.1</ele>
        <time>2025-10-24T09:10:09.000Z</time>
      </trkpt>
      <trkpt lat="43.58135" lon="6.77941">
        <ele>188.8</ele>
        <time>2025-10-24T09:10:10.000Z</time>
      </trkpt>
      <trkpt lat="43.58135" lon="6.7794">
        <ele>188.7</ele>
        <time>2025-10-24T09:10:11.000Z</time>
      </trkpt>
      <trkpt lat="43.58135" lon="6.77939">
        <ele>188.6</ele>
        <time>2025-10-24T09:10:12.000Z</time>
      </trkpt>
      <trkpt lat="43.58135" lon="6.77939">
        <ele>188.6</ele>
        <time>2025-10-24T09:10:13.000Z</time>
      </trkpt>
      <trkpt lat="43.58135" lon="6.77939">
        <ele>188.6</ele>
        <time>2025-10-24T09:10:14.000Z</time>
      </trkpt>
      <trkpt lat="43.58135" lon="6.77939">
        <ele>188.6</ele>
        <time>2025-10-24T09:10:15.000Z</time>
      </trkpt>
      <trkpt lat="43.58135" lon="6.77939">
        <ele>188.5</ele>
        <time>2025-10-24T09:10:16.000Z</time>
      </trkpt>
      <trkpt lat="43.58136" lon="6.77939">
        <ele>188.4</ele>
        <time>2025-10-24T09:10:17.000Z</time>
      </trkpt>
      <trkpt lat="43.58136" lon="6.77939">
        <ele>188.4</ele>
        <time>2025-10-24T09:10:18.000Z</time>
      </trkpt>
      <trkpt lat="43.58136" lon="6.77939">
        <ele>188.4</ele>
        <time>2025-10-24T09:10:19.000Z</time>
      </trkpt>
      <trkpt lat="43.58136" lon="6.77939">
        <ele>188.3</ele>
        <time>2025-10-24T09:10:20.000Z</time>
      </trkpt>
      <trkpt lat="43.58136" lon="6.77939">
        <ele>188.3</ele>
        <time>2025-10-24T09:10:21.000Z</time>
      </trkpt>
      <trkpt lat="43.58137" lon="6.77938">
        <ele>188.3</ele>
        <time>2025-10-24T09:10:22.000Z</time>
      </trkpt>
      <trkpt lat="43.58137" lon="6.77939">
        <ele>188.2</ele>
        <time>2025-10-24T09:10:23.000Z</time>
      </trkpt>
      <trkpt lat="43.58137" lon="6.77939">
        <ele>188.2</ele>
        <time>2025-10-24T09:10:24.000Z</time>
      </trkpt>
      <trkpt lat="43.58137" lon="6.77939">
        <ele>188.2</ele>
        <time>2025-10-24T09:10:25.000Z</time>
      </trkpt>
      <trkpt lat="43.58137" lon="6.77939">
        <ele>188.2</ele>
        <time>2025-10-24T09:10:26.000Z</time>
      </trkpt>
      <trkpt lat="43.58137" lon="6.77939">
        <ele>188.2</ele>
        <time>2025-10-24T09:10:27.000Z</time>
      </trkpt>
      <trkpt lat="43.58137" lon="6.77939">
        <ele>188.2</ele>
        <time>2025-10-24T09:10:28.000Z</time>
      </trkpt>
      <trkpt lat="43.58137" lon="6.77939">
        <ele>188.2</ele>
        <time>2025-10-24T09:10:29.000Z</time>
      </trkpt>
      <trkpt lat="43.58137" lon="6.77939">
        <ele>188.2</ele>
        <time>2025-10-24T09:10:30.000Z</time>
      </trkpt>
      <trkpt lat="43.58137" lon="6.77939">
        <ele>188.2</ele>
        <time>2025-10-24T09:10:31.000Z</time>
      </trkpt>
      <trkpt lat="43.58137" lon="6.77939">
        <ele>188.2</ele>
        <time>2025-10-24T09:10:32.000Z</time>
      </trkpt>
      <trkpt lat="43.58137" lon="6.77939">
        <ele>188.2</ele>
        <time>2025-10-24T09:10:33.000Z</time>
      </trkpt>
      <trkpt lat="43.58137" lon="6.77939">
        <ele>188.2</ele>
        <time>2025-10-24T09:10:34.000Z</time>
      </trkpt>
      <trkpt lat="43.58137" lon="6.77939">
        <ele>188.2</ele>
        <time>2025-10-24T09:10:35.000Z</time>
      </trkpt>
      <trkpt lat="43.58137" lon="6.77939">
        <ele>188.2</ele>
        <time>2025-10-24T09:10:36.000Z</time>
      </trkpt>
      <trkpt lat="43.58137" lon="6.77939">
        <ele>188.1</ele>
        <time>2025-10-24T09:10:37.000Z</time>
      </trkpt>
      <trkpt lat="43.58137" lon="6.77939">
        <ele>188.1</ele>
        <time>2025-10-24T09:10:38.000Z</time>
      </trkpt>
      <trkpt lat="43.58137" lon="6.77939">
        <ele>188.1</ele>
        <time>2025-10-24T09:10:39.000Z</time>
      </trkpt>
      <trkpt lat="43.58136" lon="6.77939">
        <ele>188.1</ele>
        <time>2025-10-24T09:10:40.000Z</time>
      </trkpt>
      <trkpt lat="43.58136" lon="6.77939">
        <ele>188.1</ele>
        <time>2025-10-24T09:10:41.000Z</time>
      </trkpt>
      <trkpt lat="43.58136" lon="6.77939">
        <ele>188.1</ele>
        <time>2025-10-24T09:10:42.000Z</time>
      </trkpt>
      <trkpt lat="43.58136" lon="6.77938">
        <ele>188.1</ele>
        <time>2025-10-24T09:10:43.000Z</time>
      </trkpt>
      <trkpt lat="43.58136" lon="6.77938">
        <ele>188.1</ele>
        <time>2025-10-24T09:10:44.000Z</time>
      </trkpt>
      <trkpt lat="43.58136" lon="6.77938">
        <ele>188</ele>
        <time>2025-10-24T09:10:45.000Z</time>
      </trkpt>
      <trkpt lat="43.58136" lon="6.77933">
        <ele>187.6</ele>
        <time>2025-10-24T09:10:46.000Z</time>
      </trkpt>
      <trkpt lat="43.58135" lon="6.77929">
        <ele>187.2</ele>
        <time>2025-10-24T09:10:47.000Z</time>
      </trkpt>
      <trkpt lat="43.58135" lon="6.77923">
        <ele>186.7</ele>
        <time>2025-10-24T09:10:48.000Z</time>
      </trkpt>
      <trkpt lat="43.58135" lon="6.77918">
        <ele>186.3</ele>
        <time>2025-10-24T09:10:49.000Z</time>
      </trkpt>
      <trkpt lat="43.58135" lon="6.77912">
        <ele>185.8</ele>
        <time>2025-10-24T09:10:50.000Z</time>
      </trkpt>
      <trkpt lat="43.58135" lon="6.77906">
        <ele>185.3</ele>
        <time>2025-10-24T09:10:51.000Z</time>
      </trkpt>
      <trkpt lat="43.58135" lon="6.779">
        <ele>184.8</ele>
        <time>2025-10-24T09:10:52.000Z</time>
      </trkpt>
      <trkpt lat="43.58135" lon="6.77894">
        <ele>184.3</ele>
        <time>2025-10-24T09:10:53.000Z</time>
      </trkpt>
      <trkpt lat="43.58136" lon="6.77888">
        <ele>183.7</ele>
        <time>2025-10-24T09:10:54.000Z</time>
      </trkpt>
      <trkpt lat="43.58136" lon="6.77883">
        <ele>183.3</ele>
        <time>2025-10-24T09:10:55.000Z</time>
      </trkpt>
      <trkpt lat="43.58137" lon="6.77879">
        <ele>182.9</ele>
        <time>2025-10-24T09:10:56.000Z</time>
      </trkpt>
      <trkpt lat="43.58137" lon="6.77875">
        <ele>182.5</ele>
        <time>2025-10-24T09:10:57.000Z</time>
      </trkpt>
      <trkpt lat="43.58138" lon="6.7787">
        <ele>182</ele>
        <time>2025-10-24T09:10:58.000Z</time>
      </trkpt>
      <trkpt lat="43.58139" lon="6.77864">
        <ele>181.5</ele>
        <time>2025-10-24T09:10:59.000Z</time>
      </trkpt>
      <trkpt lat="43.5814" lon="6.77858">
        <ele>180.9</ele>
        <time>2025-10-24T09:11:00.000Z</time>
      </trkpt>
      <trkpt lat="43.58141" lon="6.77852">
        <ele>180.4</ele>
        <time>2025-10-24T09:11:01.000Z</time>
      </trkpt>
      <trkpt lat="43.58141" lon="6.77847">
        <ele>179.9</ele>
        <time>2025-10-24T09:11:02.000Z</time>
      </trkpt>
      <trkpt lat="43.58141" lon="6.77842">
        <ele>179.4</ele>
        <time>2025-10-24T09:11:03.000Z</time>
      </trkpt>
      <trkpt lat="43.58141" lon="6.77836">
        <ele>179</ele>
        <time>2025-10-24T09:11:04.000Z</time>
      </trkpt>
      <trkpt lat="43.58141" lon="6.77828">
        <ele>178.4</ele>
        <time>2025-10-24T09:11:05.000Z</time>
      </trkpt>
      <trkpt lat="43.58141" lon="6.77821">
        <ele>178.1</ele>
        <time>2025-10-24T09:11:06.000Z</time>
      </trkpt>
      <trkpt lat="43.58141" lon="6.77814">
        <ele>177.8</ele>
        <time>2025-10-24T09:11:07.000Z</time>
      </trkpt>
      <trkpt lat="43.58141" lon="6.77808">
        <ele>177.5</ele>
        <time>2025-10-24T09:11:08.000Z</time>
      </trkpt>
      <trkpt lat="43.58142" lon="6.77799">
        <ele>177.2</ele>
        <time>2025-10-24T09:11:09.000Z</time>
      </trkpt>
      <trkpt lat="43.58143" lon="6.77792">
        <ele>176.9</ele>
        <time>2025-10-24T09:11:10.000Z</time>
      </trkpt>
      <trkpt lat="43.58145" lon="6.77787">
        <ele>176.5</ele>
        <time>2025-10-24T09:11:11.000Z</time>
      </trkpt>
      <trkpt lat="43.58148" lon="6.77782">
        <ele>176.2</ele>
        <time>2025-10-24T09:11:12.000Z</time>
      </trkpt>
      <trkpt lat="43.58151" lon="6.77777">
        <ele>175.6</ele>
        <time>2025-10-24T09:11:13.000Z</time>
      </trkpt>
      <trkpt lat="43.58155" lon="6.77772">
        <ele>175.1</ele>
        <time>2025-10-24T09:11:14.000Z</time>
      </trkpt>
      <trkpt lat="43.58159" lon="6.77767">
        <ele>174.5</ele>
        <time>2025-10-24T09:11:15.000Z</time>
      </trkpt>
      <trkpt lat="43.58163" lon="6.77763">
        <ele>174</ele>
        <time>2025-10-24T09:11:16.000Z</time>
      </trkpt>
      <trkpt lat="43.58166" lon="6.77757">
        <ele>173.4</ele>
        <time>2025-10-24T09:11:17.000Z</time>
      </trkpt>
      <trkpt lat="43.58169" lon="6.77751">
        <ele>173.3</ele>
        <time>2025-10-24T09:11:18.000Z</time>
      </trkpt>
      <trkpt lat="43.58171" lon="6.77745">
        <ele>173</ele>
        <time>2025-10-24T09:11:19.000Z</time>
      </trkpt>
      <trkpt lat="43.58173" lon="6.77737">
        <ele>172.6</ele>
        <time>2025-10-24T09:11:20.000Z</time>
      </trkpt>
      <trkpt lat="43.58174" lon="6.77729">
        <ele>172.2</ele>
        <time>2025-10-24T09:11:21.000Z</time>
      </trkpt>
      <trkpt lat="43.58175" lon="6.77721">
        <ele>171.8</ele>
        <time>2025-10-24T09:11:22.000Z</time>
      </trkpt>
      <trkpt lat="43.58176" lon="6.77715">
        <ele>171.3</ele>
        <time>2025-10-24T09:11:23.000Z</time>
      </trkpt>
      <trkpt lat="43.58177" lon="6.77705">
        <ele>170.6</ele>
        <time>2025-10-24T09:11:24.000Z</time>
      </trkpt>
      <trkpt lat="43.58178" lon="6.77696">
        <ele>169.9</ele>
        <time>2025-10-24T09:11:25.000Z</time>
      </trkpt>
      <trkpt lat="43.58179" lon="6.77687">
        <ele>169.2</ele>
        <time>2025-10-24T09:11:26.000Z</time>
      </trkpt>
      <trkpt lat="43.5818" lon="6.77679">
        <ele>168.7</ele>
        <time>2025-10-24T09:11:27.000Z</time>
      </trkpt>
      <trkpt lat="43.5818" lon="6.7767">
        <ele>168.1</ele>
        <time>2025-10-24T09:11:28.000Z</time>
      </trkpt>
      <trkpt lat="43.58178" lon="6.77661">
        <ele>167.5</ele>
        <time>2025-10-24T09:11:29.000Z</time>
      </trkpt>
      <trkpt lat="43.58176" lon="6.77657">
        <ele>167</ele>
        <time>2025-10-24T09:11:30.000Z</time>
      </trkpt>
      <trkpt lat="43.58173" lon="6.77655">
        <ele>167.3</ele>
        <time>2025-10-24T09:11:31.000Z</time>
      </trkpt>
      <trkpt lat="43.5817" lon="6.77655">
        <ele>167.6</ele>
        <time>2025-10-24T09:11:32.000Z</time>
      </trkpt>
      <trkpt lat="43.58167" lon="6.77656">
        <ele>167.9</ele>
        <time>2025-10-24T09:11:33.000Z</time>
      </trkpt>
      <trkpt lat="43.58164" lon="6.77658">
        <ele>168.2</ele>
        <time>2025-10-24T09:11:34.000Z</time>
      </trkpt>
      <trkpt lat="43.58161" lon="6.7766">
        <ele>168.5</ele>
        <time>2025-10-24T09:11:35.000Z</time>
      </trkpt>
      <trkpt lat="43.58159" lon="6.77663">
        <ele>168.8</ele>
        <time>2025-10-24T09:11:36.000Z</time>
      </trkpt>
      <trkpt lat="43.58157" lon="6.77666">
        <ele>169.3</ele>
        <time>2025-10-24T09:11:37.000Z</time>
      </trkpt>
      <trkpt lat="43.58154" lon="6.77669">
        <ele>169.8</ele>
        <time>2025-10-24T09:11:38.000Z</time>
      </trkpt>
      <trkpt lat="43.58151" lon="6.77672">
        <ele>170.3</ele>
        <time>2025-10-24T09:11:39.000Z</time>
      </trkpt>
      <trkpt lat="43.58149" lon="6.77676">
        <ele>170.8</ele>
        <time>2025-10-24T09:11:40.000Z</time>
      </trkpt>
      <trkpt lat="43.58147" lon="6.77679">
        <ele>171.3</ele>
        <time>2025-10-24T09:11:41.000Z</time>
      </trkpt>
      <trkpt lat="43.58144" lon="6.77682">
        <ele>171.8</ele>
        <time>2025-10-24T09:11:42.000Z</time>
      </trkpt>
      <trkpt lat="43.58142" lon="6.77685">
        <ele>172.4</ele>
        <time>2025-10-24T09:11:43.000Z</time>
      </trkpt>
      <trkpt lat="43.58139" lon="6.77688">
        <ele>173</ele>
        <time>2025-10-24T09:11:44.000Z</time>
      </trkpt>
      <trkpt lat="43.58138" lon="6.7769">
        <ele>173.4</ele>
        <time>2025-10-24T09:11:45.000Z</time>
      </trkpt>
      <trkpt lat="43.58135" lon="6.77693">
        <ele>173.9</ele>
        <time>2025-10-24T09:11:46.000Z</time>
      </trkpt>
      <trkpt lat="43.58132" lon="6.77694">
        <ele>174.5</ele>
        <time>2025-10-24T09:11:47.000Z</time>
      </trkpt>
      <trkpt lat="43.58129" lon="6.77696">
        <ele>175</ele>
        <time>2025-10-24T09:11:48.000Z</time>
      </trkpt>
      <trkpt lat="43.58126" lon="6.77697">
        <ele>175.5</ele>
        <time>2025-10-24T09:11:49.000Z</time>
      </trkpt>
      <trkpt lat="43.58122" lon="6.77698">
        <ele>176.2</ele>
        <time>2025-10-24T09:11:50.000Z</time>
      </trkpt>
      <trkpt lat="43.5812" lon="6.77699">
        <ele>176.7</ele>
        <time>2025-10-24T09:11:51.000Z</time>
      </trkpt>
      <trkpt lat="43.58117" lon="6.777">
        <ele>177.2</ele>
        <time>2025-10-24T09:11:52.000Z</time>
      </trkpt>
      <trkpt lat="43.58114" lon="6.777">
        <ele>177.7</ele>
        <time>2025-10-24T09:11:53.000Z</time>
      </trkpt>
      <trkpt lat="43.58112" lon="6.777">
        <ele>178.2</ele>
        <time>2025-10-24T09:11:54.000Z</time>
      </trkpt>
      <trkpt lat="43.5811" lon="6.777">
        <ele>178.6</ele>
        <time>2025-10-24T09:11:55.000Z</time>
      </trkpt>
      <trkpt lat="43.58108" lon="6.777">
        <ele>179.1</ele>
        <time>2025-10-24T09:11:56.000Z</time>
      </trkpt>
      <trkpt lat="43.58105" lon="6.777">
        <ele>179.6</ele>
        <time>2025-10-24T09:11:57.000Z</time>
      </trkpt>
      <trkpt lat="43.58102" lon="6.777">
        <ele>180.1</ele>
        <time>2025-10-24T09:11:58.000Z</time>
      </trkpt>
      <trkpt lat="43.581" lon="6.777">
        <ele>180.6</ele>
        <time>2025-10-24T09:11:59.000Z</time>
      </trkpt>
      <trkpt lat="43.58098" lon="6.77701">
        <ele>181.1</ele>
        <time>2025-10-24T09:12:00.000Z</time>
      </trkpt>
      <trkpt lat="43.58096" lon="6.77701">
        <ele>181.5</ele>
        <time>2025-10-24T09:12:01.000Z</time>
      </trkpt>
      <trkpt lat="43.58093" lon="6.77701">
        <ele>182</ele>
        <time>2025-10-24T09:12:02.000Z</time>
      </trkpt>
      <trkpt lat="43.5809" lon="6.77702">
        <ele>182.5</ele>
        <time>2025-10-24T09:12:03.000Z</time>
      </trkpt>
      <trkpt lat="43.58088" lon="6.77702">
        <ele>183</ele>
        <time>2025-10-24T09:12:04.000Z</time>
      </trkpt>
      <trkpt lat="43.58086" lon="6.77702">
        <ele>183.4</ele>
        <time>2025-10-24T09:12:05.000Z</time>
      </trkpt>
      <trkpt lat="43.58083" lon="6.77702">
        <ele>183.9</ele>
        <time>2025-10-24T09:12:06.000Z</time>
      </trkpt>
      <trkpt lat="43.58081" lon="6.77702">
        <ele>184.3</ele>
        <time>2025-10-24T09:12:07.000Z</time>
      </trkpt>
      <trkpt lat="43.58079" lon="6.77703">
        <ele>184.7</ele>
        <time>2025-10-24T09:12:08.000Z</time>
      </trkpt>
      <trkpt lat="43.58076" lon="6.77703">
        <ele>185.1</ele>
        <time>2025-10-24T09:12:09.000Z</time>
      </trkpt>
      <trkpt lat="43.58074" lon="6.77704">
        <ele>185.5</ele>
        <time>2025-10-24T09:12:10.000Z</time>
      </trkpt>
      <trkpt lat="43.58071" lon="6.77704">
        <ele>185.9</ele>
        <time>2025-10-24T09:12:11.000Z</time>
      </trkpt>
      <trkpt lat="43.58069" lon="6.77705">
        <ele>186.3</ele>
        <time>2025-10-24T09:12:12.000Z</time>
      </trkpt>
      <trkpt lat="43.58067" lon="6.77706">
        <ele>186.7</ele>
        <time>2025-10-24T09:12:13.000Z</time>
      </trkpt>
      <trkpt lat="43.58064" lon="6.77708">
        <ele>187.1</ele>
        <time>2025-10-24T09:12:14.000Z</time>
      </trkpt>
      <trkpt lat="43.58061" lon="6.77709">
        <ele>187.6</ele>
        <time>2025-10-24T09:12:15.000Z</time>
      </trkpt>
      <trkpt lat="43.58059" lon="6.7771">
        <ele>188</ele>
        <time>2025-10-24T09:12:16.000Z</time>
      </trkpt>
      <trkpt lat="43.58056" lon="6.77712">
        <ele>188.4</ele>
        <time>2025-10-24T09:12:17.000Z</time>
      </trkpt>
      <trkpt lat="43.58054" lon="6.77715">
        <ele>188.9</ele>
        <time>2025-10-24T09:12:18.000Z</time>
      </trkpt>
      <trkpt lat="43.58052" lon="6.77717">
        <ele>189.3</ele>
        <time>2025-10-24T09:12:19.000Z</time>
      </trkpt>
      <trkpt lat="43.5805" lon="6.7772">
        <ele>189.7</ele>
        <time>2025-10-24T09:12:20.000Z</time>
      </trkpt>
      <trkpt lat="43.58048" lon="6.77722">
        <ele>190.3</ele>
        <time>2025-10-24T09:12:21.000Z</time>
      </trkpt>
      <trkpt lat="43.58046" lon="6.77724">
        <ele>190.7</ele>
        <time>2025-10-24T09:12:22.000Z</time>
      </trkpt>
      <trkpt lat="43.58044" lon="6.77726">
        <ele>191.2</ele>
        <time>2025-10-24T09:12:23.000Z</time>
      </trkpt>
      <trkpt lat="43.58042" lon="6.77728">
        <ele>191.6</ele>
        <time>2025-10-24T09:12:24.000Z</time>
      </trkpt>
      <trkpt lat="43.5804" lon="6.77731">
        <ele>192.2</ele>
        <time>2025-10-24T09:12:25.000Z</time>
      </trkpt>
      <trkpt lat="43.58038" lon="6.77733">
        <ele>192.7</ele>
        <time>2025-10-24T09:12:26.000Z</time>
      </trkpt>
      <trkpt lat="43.58037" lon="6.77736">
        <ele>193.2</ele>
        <time>2025-10-24T09:12:27.000Z</time>
      </trkpt>
      <trkpt lat="43.58035" lon="6.77739">
        <ele>193.6</ele>
        <time>2025-10-24T09:12:28.000Z</time>
      </trkpt>
      <trkpt lat="43.58034" lon="6.77742">
        <ele>194</ele>
        <time>2025-10-24T09:12:29.000Z</time>
      </trkpt>
      <trkpt lat="43.58032" lon="6.77745">
        <ele>194.5</ele>
        <time>2025-10-24T09:12:30.000Z</time>
      </trkpt>
      <trkpt lat="43.58031" lon="6.77749">
        <ele>194.9</ele>
        <time>2025-10-24T09:12:31.000Z</time>
      </trkpt>
      <trkpt lat="43.58029" lon="6.77752">
        <ele>195.4</ele>
        <time>2025-10-24T09:12:32.000Z</time>
      </trkpt>
      <trkpt lat="43.58028" lon="6.77755">
        <ele>195.8</ele>
        <time>2025-10-24T09:12:33.000Z</time>
      </trkpt>
      <trkpt lat="43.58027" lon="6.77759">
        <ele>196.3</ele>
        <time>2025-10-24T09:12:34.000Z</time>
      </trkpt>
      <trkpt lat="43.58026" lon="6.77762">
        <ele>196.8</ele>
        <time>2025-10-24T09:12:35.000Z</time>
      </trkpt>
      <trkpt lat="43.58025" lon="6.77766">
        <ele>197.3</ele>
        <time>2025-10-24T09:12:36.000Z</time>
      </trkpt>
      <trkpt lat="43.58024" lon="6.77769">
        <ele>197.7</ele>
        <time>2025-10-24T09:12:37.000Z</time>
      </trkpt>
      <trkpt lat="43.58022" lon="6.77772">
        <ele>198.3</ele>
        <time>2025-10-24T09:12:38.000Z</time>
      </trkpt>
      <trkpt lat="43.58021" lon="6.77776">
        <ele>198.8</ele>
        <time>2025-10-24T09:12:39.000Z</time>
      </trkpt>
      <trkpt lat="43.58019" lon="6.77779">
        <ele>199.3</ele>
        <time>2025-10-24T09:12:40.000Z</time>
      </trkpt>
      <trkpt lat="43.58018" lon="6.77781">
        <ele>199.7</ele>
        <time>2025-10-24T09:12:41.000Z</time>
      </trkpt>
      <trkpt lat="43.58016" lon="6.77784">
        <ele>200.1</ele>
        <time>2025-10-24T09:12:42.000Z</time>
      </trkpt>
      <trkpt lat="43.58014" lon="6.77786">
        <ele>200.6</ele>
        <time>2025-10-24T09:12:43.000Z</time>
      </trkpt>
      <trkpt lat="43.58012" lon="6.7779">
        <ele>201.1</ele>
        <time>2025-10-24T09:12:44.000Z</time>
      </trkpt>
      <trkpt lat="43.58011" lon="6.77792">
        <ele>201.5</ele>
        <time>2025-10-24T09:12:45.000Z</time>
      </trkpt>
      <trkpt lat="43.58009" lon="6.77794">
        <ele>201.8</ele>
        <time>2025-10-24T09:12:46.000Z</time>
      </trkpt>
      <trkpt lat="43.58007" lon="6.77797">
        <ele>202.2</ele>
        <time>2025-10-24T09:12:47.000Z</time>
      </trkpt>
      <trkpt lat="43.58005" lon="6.778">
        <ele>202.7</ele>
        <time>2025-10-24T09:12:48.000Z</time>
      </trkpt>
      <trkpt lat="43.58004" lon="6.77802">
        <ele>203</ele>
        <time>2025-10-24T09:12:49.000Z</time>
      </trkpt>
      <trkpt lat="43.58002" lon="6.77806">
        <ele>203.6</ele>
        <time>2025-10-24T09:12:50.000Z</time>
      </trkpt>
      <trkpt lat="43.58001" lon="6.77808">
        <ele>203.9</ele>
        <time>2025-10-24T09:12:51.000Z</time>
      </trkpt>
      <trkpt lat="43.58" lon="6.77811">
        <ele>204.3</ele>
        <time>2025-10-24T09:12:52.000Z</time>
      </trkpt>
      <trkpt lat="43.57999" lon="6.77815">
        <ele>204.7</ele>
        <time>2025-10-24T09:12:53.000Z</time>
      </trkpt>
      <trkpt lat="43.57998" lon="6.77818">
        <ele>205.1</ele>
        <time>2025-10-24T09:12:54.000Z</time>
      </trkpt>
      <trkpt lat="43.57997" lon="6.77821">
        <ele>205.5</ele>
        <time>2025-10-24T09:12:55.000Z</time>
      </trkpt>
      <trkpt lat="43.57996" lon="6.77824">
        <ele>205.9</ele>
        <time>2025-10-24T09:12:56.000Z</time>
      </trkpt>
      <trkpt lat="43.57995" lon="6.77828">
        <ele>206.4</ele>
        <time>2025-10-24T09:12:57.000Z</time>
      </trkpt>
      <trkpt lat="43.57994" lon="6.77831">
        <ele>206.8</ele>
        <time>2025-10-24T09:12:58.000Z</time>
      </trkpt>
      <trkpt lat="43.57994" lon="6.77835">
        <ele>207.2</ele>
        <time>2025-10-24T09:12:59.000Z</time>
      </trkpt>
      <trkpt lat="43.57993" lon="6.77838">
        <ele>207.7</ele>
        <time>2025-10-24T09:13:00.000Z</time>
      </trkpt>
      <trkpt lat="43.57993" lon="6.77841">
        <ele>208</ele>
        <time>2025-10-24T09:13:01.000Z</time>
      </trkpt>
      <trkpt lat="43.57993" lon="6.77845">
        <ele>208.5</ele>
        <time>2025-10-24T09:13:02.000Z</time>
      </trkpt>
      <trkpt lat="43.57993" lon="6.77848">
        <ele>208.8</ele>
        <time>2025-10-24T09:13:03.000Z</time>
      </trkpt>
      <trkpt lat="43.57993" lon="6.77852">
        <ele>209.3</ele>
        <time>2025-10-24T09:13:04.000Z</time>
      </trkpt>
      <trkpt lat="43.57994" lon="6.77855">
        <ele>209.6</ele>
        <time>2025-10-24T09:13:05.000Z</time>
      </trkpt>
      <trkpt lat="43.57994" lon="6.77859">
        <ele>210</ele>
        <time>2025-10-24T09:13:06.000Z</time>
      </trkpt>
      <trkpt lat="43.57995" lon="6.77862">
        <ele>210.4</ele>
        <time>2025-10-24T09:13:07.000Z</time>
      </trkpt>
      <trkpt lat="43.57996" lon="6.77866">
        <ele>210.7</ele>
        <time>2025-10-24T09:13:08.000Z</time>
      </trkpt>
      <trkpt lat="43.57996" lon="6.77869">
        <ele>211</ele>
        <time>2025-10-24T09:13:09.000Z</time>
      </trkpt>
      <trkpt lat="43.57997" lon="6.77873">
        <ele>211.4</ele>
        <time>2025-10-24T09:13:10.000Z</time>
      </trkpt>
      <trkpt lat="43.57998" lon="6.77876">
        <ele>211.6</ele>
        <time>2025-10-24T09:13:11.000Z</time>
      </trkpt>
      <trkpt lat="43.57999" lon="6.77879">
        <ele>211.9</ele>
        <time>2025-10-24T09:13:12.000Z</time>
      </trkpt>
      <trkpt lat="43.57999" lon="6.77883">
        <ele>212.1</ele>
        <time>2025-10-24T09:13:13.000Z</time>
      </trkpt>
      <trkpt lat="43.58" lon="6.77887">
        <ele>212.4</ele>
        <time>2025-10-24T09:13:14.000Z</time>
      </trkpt>
      <trkpt lat="43.58001" lon="6.77891">
        <ele>212.6</ele>
        <time>2025-10-24T09:13:15.000Z</time>
      </trkpt>
      <trkpt lat="43.58001" lon="6.77896">
        <ele>212.8</ele>
        <time>2025-10-24T09:13:16.000Z</time>
      </trkpt>
      <trkpt lat="43.58001" lon="6.779">
        <ele>213.1</ele>
        <time>2025-10-24T09:13:17.000Z</time>
      </trkpt>
      <trkpt lat="43.58001" lon="6.77904">
        <ele>213.3</ele>
        <time>2025-10-24T09:13:18.000Z</time>
      </trkpt>
      <trkpt lat="43.58002" lon="6.77909">
        <ele>213.6</ele>
        <time>2025-10-24T09:13:19.000Z</time>
      </trkpt>
      <trkpt lat="43.58002" lon="6.77913">
        <ele>213.8</ele>
        <time>2025-10-24T09:13:20.000Z</time>
      </trkpt>
      <trkpt lat="43.58002" lon="6.77917">
        <ele>214</ele>
        <time>2025-10-24T09:13:21.000Z</time>
      </trkpt>
      <trkpt lat="43.58002" lon="6.77921">
        <ele>214.2</ele>
        <time>2025-10-24T09:13:22.000Z</time>
      </trkpt>
      <trkpt lat="43.58002" lon="6.77926">
        <ele>214.4</ele>
        <time>2025-10-24T09:13:23.000Z</time>
      </trkpt>
      <trkpt lat="43.58002" lon="6.7793">
        <ele>214.5</ele>
        <time>2025-10-24T09:13:24.000Z</time>
      </trkpt>
      <trkpt lat="43.58001" lon="6.77934">
        <ele>214.7</ele>
        <time>2025-10-24T09:13:25.000Z</time>
      </trkpt>
      <trkpt lat="43.58" lon="6.77939">
        <ele>214.9</ele>
        <time>2025-10-24T09:13:26.000Z</time>
      </trkpt>
      <trkpt lat="43.58" lon="6.77942">
        <ele>215</ele>
        <time>2025-10-24T09:13:27.000Z</time>
      </trkpt>
      <trkpt lat="43.57999" lon="6.77947">
        <ele>215.1</ele>
        <time>2025-10-24T09:13:28.000Z</time>
      </trkpt>
      <trkpt lat="43.57998" lon="6.77951">
        <ele>215.1</ele>
        <time>2025-10-24T09:13:29.000Z</time>
      </trkpt>
      <trkpt lat="43.57998" lon="6.77957">
        <ele>215.2</ele>
        <time>2025-10-24T09:13:30.000Z</time>
      </trkpt>
      <trkpt lat="43.57997" lon="6.77962">
        <ele>215.2</ele>
        <time>2025-10-24T09:13:31.000Z</time>
      </trkpt>
      <trkpt lat="43.57996" lon="6.77968">
        <ele>215.3</ele>
        <time>2025-10-24T09:13:32.000Z</time>
      </trkpt>
      <trkpt lat="43.57995" lon="6.77975">
        <ele>215.3</ele>
        <time>2025-10-24T09:13:33.000Z</time>
      </trkpt>
      <trkpt lat="43.57995" lon="6.77981">
        <ele>215.4</ele>
        <time>2025-10-24T09:13:34.000Z</time>
      </trkpt>
      <trkpt lat="43.57993" lon="6.77988">
        <ele>215.6</ele>
        <time>2025-10-24T09:13:35.000Z</time>
      </trkpt>
      <trkpt lat="43.57992" lon="6.77995">
        <ele>215.8</ele>
        <time>2025-10-24T09:13:36.000Z</time>
      </trkpt>
      <trkpt lat="43.57991" lon="6.78001">
        <ele>216</ele>
        <time>2025-10-24T09:13:37.000Z</time>
      </trkpt>
      <trkpt lat="43.5799" lon="6.78007">
        <ele>216.3</ele>
        <time>2025-10-24T09:13:38.000Z</time>
      </trkpt>
      <trkpt lat="43.57989" lon="6.78014">
        <ele>216.7</ele>
        <time>2025-10-24T09:13:39.000Z</time>
      </trkpt>
      <trkpt lat="43.57988" lon="6.7802">
        <ele>217.1</ele>
        <time>2025-10-24T09:13:40.000Z</time>
      </trkpt>
      <trkpt lat="43.57988" lon="6.78026">
        <ele>217.5</ele>
        <time>2025-10-24T09:13:41.000Z</time>
      </trkpt>
      <trkpt lat="43.57986" lon="6.78032">
        <ele>217.9</ele>
        <time>2025-10-24T09:13:42.000Z</time>
      </trkpt>
      <trkpt lat="43.57985" lon="6.78038">
        <ele>218.2</ele>
        <time>2025-10-24T09:13:43.000Z</time>
      </trkpt>
      <trkpt lat="43.57984" lon="6.78044">
        <ele>218.5</ele>
        <time>2025-10-24T09:13:44.000Z</time>
      </trkpt>
      <trkpt lat="43.57983" lon="6.7805">
        <ele>218.8</ele>
        <time>2025-10-24T09:13:45.000Z</time>
      </trkpt>
      <trkpt lat="43.57982" lon="6.78056">
        <ele>219</ele>
        <time>2025-10-24T09:13:46.000Z</time>
      </trkpt>
      <trkpt lat="43.57981" lon="6.78062">
        <ele>219.2</ele>
        <time>2025-10-24T09:13:47.000Z</time>
      </trkpt>
      <trkpt lat="43.57979" lon="6.78068">
        <ele>219.3</ele>
        <time>2025-10-24T09:13:48.000Z</time>
      </trkpt>
      <trkpt lat="43.57977" lon="6.78073">
        <ele>219.6</ele>
        <time>2025-10-24T09:13:49.000Z</time>
      </trkpt>
      <trkpt lat="43.57974" lon="6.78079">
        <ele>219.8</ele>
        <time>2025-10-24T09:13:50.000Z</time>
      </trkpt>
      <trkpt lat="43.57971" lon="6.78082">
        <ele>220.1</ele>
        <time>2025-10-24T09:13:51.000Z</time>
      </trkpt>
      <trkpt lat="43.57966" lon="6.78087">
        <ele>220.5</ele>
        <time>2025-10-24T09:13:52.000Z</time>
      </trkpt>
      <trkpt lat="43.57963" lon="6.7809">
        <ele>221</ele>
        <time>2025-10-24T09:13:53.000Z</time>
      </trkpt>
      <trkpt lat="43.57959" lon="6.78092">
        <ele>221.4</ele>
        <time>2025-10-24T09:13:54.000Z</time>
      </trkpt>
      <trkpt lat="43.57955" lon="6.78093">
        <ele>221.9</ele>
        <time>2025-10-24T09:13:55.000Z</time>
      </trkpt>
      <trkpt lat="43.57951" lon="6.78095">
        <ele>222.6</ele>
        <time>2025-10-24T09:13:56.000Z</time>
      </trkpt>
      <trkpt lat="43.57947" lon="6.78096">
        <ele>223.1</ele>
        <time>2025-10-24T09:13:57.000Z</time>
      </trkpt>
      <trkpt lat="43.57944" lon="6.78097">
        <ele>223.6</ele>
        <time>2025-10-24T09:13:58.000Z</time>
      </trkpt>
      <trkpt lat="43.57941" lon="6.78098">
        <ele>224.1</ele>
        <time>2025-10-24T09:13:59.000Z</time>
      </trkpt>
      <trkpt lat="43.57938" lon="6.78099">
        <ele>224.5</ele>
        <time>2025-10-24T09:14:00.000Z</time>
      </trkpt>
      <trkpt lat="43.57935" lon="6.78099">
        <ele>224.9</ele>
        <time>2025-10-24T09:14:01.000Z</time>
      </trkpt>
      <trkpt lat="43.57931" lon="6.78099">
        <ele>225.4</ele>
        <time>2025-10-24T09:14:02.000Z</time>
      </trkpt>
      <trkpt lat="43.57928" lon="6.78098">
        <ele>225.9</ele>
        <time>2025-10-24T09:14:03.000Z</time>
      </trkpt>
      <trkpt lat="43.57924" lon="6.78097">
        <ele>226.3</ele>
        <time>2025-10-24T09:14:04.000Z</time>
      </trkpt>
      <trkpt lat="43.57921" lon="6.78095">
        <ele>226.7</ele>
        <time>2025-10-24T09:14:05.000Z</time>
      </trkpt>
      <trkpt lat="43.57918" lon="6.78094">
        <ele>227.2</ele>
        <time>2025-10-24T09:14:06.000Z</time>
      </trkpt>
      <trkpt lat="43.57915" lon="6.78093">
        <ele>227.6</ele>
        <time>2025-10-24T09:14:07.000Z</time>
      </trkpt>
      <trkpt lat="43.57911" lon="6.78092">
        <ele>228</ele>
        <time>2025-10-24T09:14:08.000Z</time>
      </trkpt>
      <trkpt lat="43.57908" lon="6.78091">
        <ele>228.5</ele>
        <time>2025-10-24T09:14:09.000Z</time>
      </trkpt>
      <trkpt lat="43.57905" lon="6.78089">
        <ele>228.9</ele>
        <time>2025-10-24T09:14:10.000Z</time>
      </trkpt>
      <trkpt lat="43.57902" lon="6.78088">
        <ele>229.4</ele>
        <time>2025-10-24T09:14:11.000Z</time>
      </trkpt>
      <trkpt lat="43.57899" lon="6.78086">
        <ele>229.8</ele>
        <time>2025-10-24T09:14:12.000Z</time>
      </trkpt>
      <trkpt lat="43.57897" lon="6.78086">
        <ele>230.2</ele>
        <time>2025-10-24T09:14:13.000Z</time>
      </trkpt>
      <trkpt lat="43.57893" lon="6.78085">
        <ele>230.7</ele>
        <time>2025-10-24T09:14:14.000Z</time>
      </trkpt>
      <trkpt lat="43.5789" lon="6.78084">
        <ele>231.1</ele>
        <time>2025-10-24T09:14:15.000Z</time>
      </trkpt>
      <trkpt lat="43.57887" lon="6.78083">
        <ele>231.5</ele>
        <time>2025-10-24T09:14:16.000Z</time>
      </trkpt>
      <trkpt lat="43.57883" lon="6.78082">
        <ele>232</ele>
        <time>2025-10-24T09:14:17.000Z</time>
      </trkpt>
      <trkpt lat="43.57881" lon="6.78081">
        <ele>232.3</ele>
        <time>2025-10-24T09:14:18.000Z</time>
      </trkpt>
      <trkpt lat="43.57877" lon="6.7808">
        <ele>232.7</ele>
        <time>2025-10-24T09:14:19.000Z</time>
      </trkpt>
      <trkpt lat="43.57873" lon="6.78079">
        <ele>233.1</ele>
        <time>2025-10-24T09:14:20.000Z</time>
      </trkpt>
      <trkpt lat="43.5787" lon="6.78079">
        <ele>233.5</ele>
        <time>2025-10-24T09:14:21.000Z</time>
      </trkpt>
      <trkpt lat="43.57867" lon="6.7808">
        <ele>233.7</ele>
        <time>2025-10-24T09:14:22.000Z</time>
      </trkpt>
      <trkpt lat="43.57863" lon="6.7808">
        <ele>234</ele>
        <time>2025-10-24T09:14:23.000Z</time>
      </trkpt>
      <trkpt lat="43.5786" lon="6.78081">
        <ele>234.3</ele>
        <time>2025-10-24T09:14:24.000Z</time>
      </trkpt>
      <trkpt lat="43.57857" lon="6.78081">
        <ele>234.4</ele>
        <time>2025-10-24T09:14:25.000Z</time>
      </trkpt>
      <trkpt lat="43.57853" lon="6.78081">
        <ele>234.5</ele>
        <time>2025-10-24T09:14:26.000Z</time>
      </trkpt>
      <trkpt lat="43.57848" lon="6.78081">
        <ele>234.7</ele>
        <time>2025-10-24T09:14:27.000Z</time>
      </trkpt>
      <trkpt lat="43.57844" lon="6.78082">
        <ele>234.8</ele>
        <time>2025-10-24T09:14:28.000Z</time>
      </trkpt>
      <trkpt lat="43.5784" lon="6.78082">
        <ele>235</ele>
        <time>2025-10-24T09:14:29.000Z</time>
      </trkpt>
      <trkpt lat="43.57835" lon="6.78082">
        <ele>235.2</ele>
        <time>2025-10-24T09:14:30.000Z</time>
      </trkpt>
      <trkpt lat="43.57831" lon="6.78081">
        <ele>235.3</ele>
        <time>2025-10-24T09:14:31.000Z</time>
      </trkpt>
      <trkpt lat="43.57826" lon="6.78081">
        <ele>235.4</ele>
        <time>2025-10-24T09:14:32.000Z</time>
      </trkpt>
      <trkpt lat="43.57823" lon="6.78081">
        <ele>235.6</ele>
        <time>2025-10-24T09:14:33.000Z</time>
      </trkpt>
      <trkpt lat="43.57819" lon="6.78081">
        <ele>235.7</ele>
        <time>2025-10-24T09:14:34.000Z</time>
      </trkpt>
      <trkpt lat="43.57815" lon="6.78081">
        <ele>235.9</ele>
        <time>2025-10-24T09:14:35.000Z</time>
      </trkpt>
      <trkpt lat="43.57812" lon="6.78081">
        <ele>236</ele>
        <time>2025-10-24T09:14:36.000Z</time>
      </trkpt>
      <trkpt lat="43.57808" lon="6.78082">
        <ele>236.2</ele>
        <time>2025-10-24T09:14:37.000Z</time>
      </trkpt>
      <trkpt lat="43.57804" lon="6.78083">
        <ele>236.4</ele>
        <time>2025-10-24T09:14:38.000Z</time>
      </trkpt>
      <trkpt lat="43.57801" lon="6.78085">
        <ele>236.6</ele>
        <time>2025-10-24T09:14:39.000Z</time>
      </trkpt>
      <trkpt lat="43.57797" lon="6.78087">
        <ele>236.8</ele>
        <time>2025-10-24T09:14:40.000Z</time>
      </trkpt>
      <trkpt lat="43.57793" lon="6.78089">
        <ele>237.1</ele>
        <time>2025-10-24T09:14:41.000Z</time>
      </trkpt>
      <trkpt lat="43.57789" lon="6.7809">
        <ele>237.4</ele>
        <time>2025-10-24T09:14:42.000Z</time>
      </trkpt>
      <trkpt lat="43.57785" lon="6.78092">
        <ele>237.6</ele>
        <time>2025-10-24T09:14:43.000Z</time>
      </trkpt>
      <trkpt lat="43.57782" lon="6.78093">
        <ele>237.9</ele>
        <time>2025-10-24T09:14:44.000Z</time>
      </trkpt>
      <trkpt lat="43.57778" lon="6.78094">
        <ele>238.2</ele>
        <time>2025-10-24T09:14:45.000Z</time>
      </trkpt>
      <trkpt lat="43.57774" lon="6.78095">
        <ele>238.5</ele>
        <time>2025-10-24T09:14:46.000Z</time>
      </trkpt>
      <trkpt lat="43.5777" lon="6.78097">
        <ele>238.8</ele>
        <time>2025-10-24T09:14:47.000Z</time>
      </trkpt>
      <trkpt lat="43.57766" lon="6.78097">
        <ele>239.2</ele>
        <time>2025-10-24T09:14:48.000Z</time>
      </trkpt>
      <trkpt lat="43.57763" lon="6.78096">
        <ele>239.5</ele>
        <time>2025-10-24T09:14:49.000Z</time>
      </trkpt>
      <trkpt lat="43.57759" lon="6.78096">
        <ele>239.9</ele>
        <time>2025-10-24T09:14:50.000Z</time>
      </trkpt>
      <trkpt lat="43.57757" lon="6.78095">
        <ele>240.1</ele>
        <time>2025-10-24T09:14:51.000Z</time>
      </trkpt>
      <trkpt lat="43.57754" lon="6.78095">
        <ele>240.4</ele>
        <time>2025-10-24T09:14:52.000Z</time>
      </trkpt>
      <trkpt lat="43.57752" lon="6.78095">
        <ele>240.7</ele>
        <time>2025-10-24T09:14:53.000Z</time>
      </trkpt>
      <trkpt lat="43.57749" lon="6.78095">
        <ele>241</ele>
        <time>2025-10-24T09:14:54.000Z</time>
      </trkpt>
      <trkpt lat="43.57746" lon="6.78094">
        <ele>241.3</ele>
        <time>2025-10-24T09:14:55.000Z</time>
      </trkpt>
      <trkpt lat="43.57744" lon="6.78093">
        <ele>241.5</ele>
        <time>2025-10-24T09:14:56.000Z</time>
      </trkpt>
      <trkpt lat="43.57741" lon="6.78092">
        <ele>241.8</ele>
        <time>2025-10-24T09:14:57.000Z</time>
      </trkpt>
      <trkpt lat="43.57739" lon="6.78091">
        <ele>242.1</ele>
        <time>2025-10-24T09:14:58.000Z</time>
      </trkpt>
      <trkpt lat="43.57737" lon="6.7809">
        <ele>242.4</ele>
        <time>2025-10-24T09:14:59.000Z</time>
      </trkpt>
      <trkpt lat="43.57734" lon="6.7809">
        <ele>242.7</ele>
        <time>2025-10-24T09:15:00.000Z</time>
      </trkpt>
      <trkpt lat="43.57732" lon="6.7809">
        <ele>243</ele>
        <time>2025-10-24T09:15:01.000Z</time>
      </trkpt>
      <trkpt lat="43.5773" lon="6.78089">
        <ele>243.2</ele>
        <time>2025-10-24T09:15:02.000Z</time>
      </trkpt>
      <trkpt lat="43.57728" lon="6.78088">
        <ele>243.5</ele>
        <time>2025-10-24T09:15:03.000Z</time>
      </trkpt>
      <trkpt lat="43.57726" lon="6.78088">
        <ele>243.7</ele>
        <time>2025-10-24T09:15:04.000Z</time>
      </trkpt>
      <trkpt lat="43.57724" lon="6.78087">
        <ele>244</ele>
        <time>2025-10-24T09:15:05.000Z</time>
      </trkpt>
      <trkpt lat="43.57721" lon="6.78085">
        <ele>244.3</ele>
        <time>2025-10-24T09:15:06.000Z</time>
      </trkpt>
      <trkpt lat="43.57719" lon="6.78084">
        <ele>244.6</ele>
        <time>2025-10-24T09:15:07.000Z</time>
      </trkpt>
      <trkpt lat="43.57716" lon="6.78083">
        <ele>244.9</ele>
        <time>2025-10-24T09:15:08.000Z</time>
      </trkpt>
      <trkpt lat="43.57714" lon="6.78083">
        <ele>245.2</ele>
        <time>2025-10-24T09:15:09.000Z</time>
      </trkpt>
      <trkpt lat="43.57711" lon="6.78082">
        <ele>245.5</ele>
        <time>2025-10-24T09:15:10.000Z</time>
      </trkpt>
      <trkpt lat="43.57708" lon="6.78081">
        <ele>245.8</ele>
        <time>2025-10-24T09:15:11.000Z</time>
      </trkpt>
      <trkpt lat="43.57706" lon="6.7808">
        <ele>246.1</ele>
        <time>2025-10-24T09:15:12.000Z</time>
      </trkpt>
      <trkpt lat="43.57704" lon="6.78078">
        <ele>246.4</ele>
        <time>2025-10-24T09:15:13.000Z</time>
      </trkpt>
      <trkpt lat="43.57702" lon="6.78076">
        <ele>246.8</ele>
        <time>2025-10-24T09:15:14.000Z</time>
      </trkpt>
      <trkpt lat="43.577" lon="6.78074">
        <ele>247.1</ele>
        <time>2025-10-24T09:15:15.000Z</time>
      </trkpt>
      <trkpt lat="43.57697" lon="6.78073">
        <ele>247.5</ele>
        <time>2025-10-24T09:15:16.000Z</time>
      </trkpt>
      <trkpt lat="43.57695" lon="6.78071">
        <ele>247.8</ele>
        <time>2025-10-24T09:15:17.000Z</time>
      </trkpt>
      <trkpt lat="43.57693" lon="6.7807">
        <ele>248.2</ele>
        <time>2025-10-24T09:15:18.000Z</time>
      </trkpt>
      <trkpt lat="43.57691" lon="6.78069">
        <ele>248.4</ele>
        <time>2025-10-24T09:15:19.000Z</time>
      </trkpt>
      <trkpt lat="43.57689" lon="6.78068">
        <ele>248.7</ele>
        <time>2025-10-24T09:15:20.000Z</time>
      </trkpt>
      <trkpt lat="43.57687" lon="6.78068">
        <ele>249</ele>
        <time>2025-10-24T09:15:21.000Z</time>
      </trkpt>
      <trkpt lat="43.57685" lon="6.78067">
        <ele>249.3</ele>
        <time>2025-10-24T09:15:22.000Z</time>
      </trkpt>
      <trkpt lat="43.57683" lon="6.78066">
        <ele>249.6</ele>
        <time>2025-10-24T09:15:23.000Z</time>
      </trkpt>
      <trkpt lat="43.57681" lon="6.78066">
        <ele>249.9</ele>
        <time>2025-10-24T09:15:24.000Z</time>
      </trkpt>
      <trkpt lat="43.57678" lon="6.78065">
        <ele>250.3</ele>
        <time>2025-10-24T09:15:25.000Z</time>
      </trkpt>
      <trkpt lat="43.57676" lon="6.78064">
        <ele>250.7</ele>
        <time>2025-10-24T09:15:26.000Z</time>
      </trkpt>
      <trkpt lat="43.57673" lon="6.78064">
        <ele>251.1</ele>
        <time>2025-10-24T09:15:27.000Z</time>
      </trkpt>
      <trkpt lat="43.57671" lon="6.78064">
        <ele>251.5</ele>
        <time>2025-10-24T09:15:28.000Z</time>
      </trkpt>
      <trkpt lat="43.57668" lon="6.78064">
        <ele>251.8</ele>
        <time>2025-10-24T09:15:29.000Z</time>
      </trkpt>
      <trkpt lat="43.57666" lon="6.78064">
        <ele>252.2</ele>
        <time>2025-10-24T09:15:30.000Z</time>
      </trkpt>
      <trkpt lat="43.57663" lon="6.78065">
        <ele>252.6</ele>
        <time>2025-10-24T09:15:31.000Z</time>
      </trkpt>
      <trkpt lat="43.57661" lon="6.78065">
        <ele>252.9</ele>
        <time>2025-10-24T09:15:32.000Z</time>
      </trkpt>
      <trkpt lat="43.57659" lon="6.78065">
        <ele>253.1</ele>
        <time>2025-10-24T09:15:33.000Z</time>
      </trkpt>
      <trkpt lat="43.57659" lon="6.78065">
        <ele>253.2</ele>
        <time>2025-10-24T09:15:34.000Z</time>
      </trkpt>
      <trkpt lat="43.57658" lon="6.78064">
        <ele>253.3</ele>
        <time>2025-10-24T09:15:35.000Z</time>
      </trkpt>
      <trkpt lat="43.57658" lon="6.78064">
        <ele>253.3</ele>
        <time>2025-10-24T09:15:36.000Z</time>
      </trkpt>
      <trkpt lat="43.57658" lon="6.78063">
        <ele>253.4</ele>
        <time>2025-10-24T09:15:37.000Z</time>
      </trkpt>
      <trkpt lat="43.57658" lon="6.78063">
        <ele>253.4</ele>
        <time>2025-10-24T09:15:38.000Z</time>
      </trkpt>
      <trkpt lat="43.57658" lon="6.78063">
        <ele>253.4</ele>
        <time>2025-10-24T09:15:39.000Z</time>
      </trkpt>
      <trkpt lat="43.57658" lon="6.78063">
        <ele>253.5</ele>
        <time>2025-10-24T09:15:40.000Z</time>
      </trkpt>
      <trkpt lat="43.57658" lon="6.78063">
        <ele>253.5</ele>
        <time>2025-10-24T09:15:41.000Z</time>
      </trkpt>
      <trkpt lat="43.57658" lon="6.78063">
        <ele>253.5</ele>
        <time>2025-10-24T09:15:42.000Z</time>
      </trkpt>
      <trkpt lat="43.57658" lon="6.78063">
        <ele>253.5</ele>
        <time>2025-10-24T09:15:43.000Z</time>
      </trkpt>
      <trkpt lat="43.57658" lon="6.78063">
        <ele>253.6</ele>
        <time>2025-10-24T09:15:44.000Z</time>
      </trkpt>
      <trkpt lat="43.57657" lon="6.78063">
        <ele>253.7</ele>
        <time>2025-10-24T09:15:45.000Z</time>
      </trkpt>
      <trkpt lat="43.57655" lon="6.78063">
        <ele>254</ele>
        <time>2025-10-24T09:15:46.000Z</time>
      </trkpt>
      <trkpt lat="43.57653" lon="6.78063">
        <ele>254.3</ele>
        <time>2025-10-24T09:15:47.000Z</time>
      </trkpt>
      <trkpt lat="43.57651" lon="6.78063">
        <ele>254.6</ele>
        <time>2025-10-24T09:15:48.000Z</time>
      </trkpt>
      <trkpt lat="43.57648" lon="6.78063">
        <ele>255.1</ele>
        <time>2025-10-24T09:15:49.000Z</time>
      </trkpt>
      <trkpt lat="43.57645" lon="6.78063">
        <ele>255.5</ele>
        <time>2025-10-24T09:15:50.000Z</time>
      </trkpt>
      <trkpt lat="43.57642" lon="6.78063">
        <ele>255.9</ele>
        <time>2025-10-24T09:15:51.000Z</time>
      </trkpt>
      <trkpt lat="43.57639" lon="6.78063">
        <ele>256.4</ele>
        <time>2025-10-24T09:15:52.000Z</time>
      </trkpt>
      <trkpt lat="43.57636" lon="6.78062">
        <ele>256.9</ele>
        <time>2025-10-24T09:15:53.000Z</time>
      </trkpt>
      <trkpt lat="43.57633" lon="6.78062">
        <ele>257.4</ele>
        <time>2025-10-24T09:15:54.000Z</time>
      </trkpt>
      <trkpt lat="43.57629" lon="6.78061">
        <ele>257.9</ele>
        <time>2025-10-24T09:15:55.000Z</time>
      </trkpt>
      <trkpt lat="43.57626" lon="6.78061">
        <ele>258.3</ele>
        <time>2025-10-24T09:15:56.000Z</time>
      </trkpt>
      <trkpt lat="43.57623" lon="6.78061">
        <ele>258.7</ele>
        <time>2025-10-24T09:15:57.000Z</time>
      </trkpt>
      <trkpt lat="43.5762" lon="6.7806">
        <ele>259.1</ele>
        <time>2025-10-24T09:15:58.000Z</time>
      </trkpt>
      <trkpt lat="43.57617" lon="6.7806">
        <ele>259.5</ele>
        <time>2025-10-24T09:15:59.000Z</time>
      </trkpt>
      <trkpt lat="43.57614" lon="6.78059">
        <ele>260</ele>
        <time>2025-10-24T09:16:00.000Z</time>
      </trkpt>
      <trkpt lat="43.57611" lon="6.78059">
        <ele>260.3</ele>
        <time>2025-10-24T09:16:01.000Z</time>
      </trkpt>
      <trkpt lat="43.57608" lon="6.78058">
        <ele>260.8</ele>
        <time>2025-10-24T09:16:02.000Z</time>
      </trkpt>
      <trkpt lat="43.57604" lon="6.78058">
        <ele>261.3</ele>
        <time>2025-10-24T09:16:03.000Z</time>
      </trkpt>
      <trkpt lat="43.576" lon="6.78058">
        <ele>261.7</ele>
        <time>2025-10-24T09:16:04.000Z</time>
      </trkpt>
      <trkpt lat="43.57597" lon="6.78057">
        <ele>262.1</ele>
        <time>2025-10-24T09:16:05.000Z</time>
      </trkpt>
      <trkpt lat="43.57594" lon="6.78057">
        <ele>262.5</ele>
        <time>2025-10-24T09:16:06.000Z</time>
      </trkpt>
      <trkpt lat="43.57591" lon="6.78056">
        <ele>262.8</ele>
        <time>2025-10-24T09:16:07.000Z</time>
      </trkpt>
      <trkpt lat="43.57587" lon="6.78056">
        <ele>263.2</ele>
        <time>2025-10-24T09:16:08.000Z</time>
      </trkpt>
      <trkpt lat="43.57584" lon="6.78056">
        <ele>263.6</ele>
        <time>2025-10-24T09:16:09.000Z</time>
      </trkpt>
      <trkpt lat="43.5758" lon="6.78055">
        <ele>263.9</ele>
        <time>2025-10-24T09:16:10.000Z</time>
      </trkpt>
      <trkpt lat="43.57577" lon="6.78055">
        <ele>264.3</ele>
        <time>2025-10-24T09:16:11.000Z</time>
      </trkpt>
      <trkpt lat="43.57574" lon="6.78054">
        <ele>264.6</ele>
        <time>2025-10-24T09:16:12.000Z</time>
      </trkpt>
      <trkpt lat="43.57571" lon="6.78054">
        <ele>264.9</ele>
        <time>2025-10-24T09:16:13.000Z</time>
      </trkpt>
      <trkpt lat="43.57567" lon="6.78054">
        <ele>265.2</ele>
        <time>2025-10-24T09:16:14.000Z</time>
      </trkpt>
      <trkpt lat="43.57564" lon="6.78053">
        <ele>265.5</ele>
        <time>2025-10-24T09:16:15.000Z</time>
      </trkpt>
      <trkpt lat="43.57561" lon="6.78053">
        <ele>265.9</ele>
        <time>2025-10-24T09:16:16.000Z</time>
      </trkpt>
      <trkpt lat="43.57557" lon="6.78052">
        <ele>266.2</ele>
        <time>2025-10-24T09:16:17.000Z</time>
      </trkpt>
      <trkpt lat="43.57554" lon="6.78052">
        <ele>266.5</ele>
        <time>2025-10-24T09:16:18.000Z</time>
      </trkpt>
      <trkpt lat="43.57551" lon="6.78051">
        <ele>266.8</ele>
        <time>2025-10-24T09:16:19.000Z</time>
      </trkpt>
      <trkpt lat="43.57547" lon="6.78051">
        <ele>267.1</ele>
        <time>2025-10-24T09:16:20.000Z</time>
      </trkpt>
      <trkpt lat="43.57543" lon="6.78051">
        <ele>267.5</ele>
        <time>2025-10-24T09:16:21.000Z</time>
      </trkpt>
      <trkpt lat="43.5754" lon="6.7805">
        <ele>267.8</ele>
        <time>2025-10-24T09:16:22.000Z</time>
      </trkpt>
      <trkpt lat="43.57536" lon="6.78051">
        <ele>268.1</ele>
        <time>2025-10-24T09:16:23.000Z</time>
      </trkpt>
      <trkpt lat="43.57533" lon="6.78051">
        <ele>268.4</ele>
        <time>2025-10-24T09:16:24.000Z</time>
      </trkpt>
      <trkpt lat="43.5753" lon="6.78051">
        <ele>268.7</ele>
        <time>2025-10-24T09:16:25.000Z</time>
      </trkpt>
      <trkpt lat="43.57526" lon="6.78052">
        <ele>269</ele>
        <time>2025-10-24T09:16:26.000Z</time>
      </trkpt>
      <trkpt lat="43.57523" lon="6.78052">
        <ele>269.3</ele>
        <time>2025-10-24T09:16:27.000Z</time>
      </trkpt>
      <trkpt lat="43.5752" lon="6.78053">
        <ele>269.6</ele>
        <time>2025-10-24T09:16:28.000Z</time>
      </trkpt>
      <trkpt lat="43.57516" lon="6.78054">
        <ele>269.9</ele>
        <time>2025-10-24T09:16:29.000Z</time>
      </trkpt>
      <trkpt lat="43.57513" lon="6.78056">
        <ele>270.2</ele>
        <time>2025-10-24T09:16:30.000Z</time>
      </trkpt>
      <trkpt lat="43.5751" lon="6.78057">
        <ele>270.5</ele>
        <time>2025-10-24T09:16:31.000Z</time>
      </trkpt>
      <trkpt lat="43.57507" lon="6.78058">
        <ele>270.7</ele>
        <time>2025-10-24T09:16:32.000Z</time>
      </trkpt>
      <trkpt lat="43.57503" lon="6.7806">
        <ele>271</ele>
        <time>2025-10-24T09:16:33.000Z</time>
      </trkpt>
      <trkpt lat="43.57501" lon="6.78061">
        <ele>271.2</ele>
        <time>2025-10-24T09:16:34.000Z</time>
      </trkpt>
      <trkpt lat="43.57498" lon="6.78063">
        <ele>271.4</ele>
        <time>2025-10-24T09:16:35.000Z</time>
      </trkpt>
      <trkpt lat="43.57495" lon="6.78064">
        <ele>271.6</ele>
        <time>2025-10-24T09:16:36.000Z</time>
      </trkpt>
      <trkpt lat="43.57491" lon="6.78066">
        <ele>271.9</ele>
        <time>2025-10-24T09:16:37.000Z</time>
      </trkpt>
      <trkpt lat="43.57488" lon="6.78068">
        <ele>272.2</ele>
        <time>2025-10-24T09:16:38.000Z</time>
      </trkpt>
      <trkpt lat="43.57485" lon="6.7807">
        <ele>272.4</ele>
        <time>2025-10-24T09:16:39.000Z</time>
      </trkpt>
      <trkpt lat="43.57482" lon="6.78072">
        <ele>272.7</ele>
        <time>2025-10-24T09:16:40.000Z</time>
      </trkpt>
      <trkpt lat="43.57479" lon="6.78074">
        <ele>273.1</ele>
        <time>2025-10-24T09:16:41.000Z</time>
      </trkpt>
      <trkpt lat="43.57475" lon="6.78076">
        <ele>273.4</ele>
        <time>2025-10-24T09:16:42.000Z</time>
      </trkpt>
      <trkpt lat="43.57472" lon="6.78078">
        <ele>273.9</ele>
        <time>2025-10-24T09:16:43.000Z</time>
      </trkpt>
      <trkpt lat="43.57469" lon="6.78079">
        <ele>274.2</ele>
        <time>2025-10-24T09:16:44.000Z</time>
      </trkpt>
      <trkpt lat="43.57466" lon="6.7808">
        <ele>274.5</ele>
        <time>2025-10-24T09:16:45.000Z</time>
      </trkpt>
      <trkpt lat="43.57462" lon="6.78082">
        <ele>275</ele>
        <time>2025-10-24T09:16:46.000Z</time>
      </trkpt>
      <trkpt lat="43.57458" lon="6.78084">
        <ele>275.5</ele>
        <time>2025-10-24T09:16:47.000Z</time>
      </trkpt>
      <trkpt lat="43.57455" lon="6.78086">
        <ele>275.9</ele>
        <time>2025-10-24T09:16:48.000Z</time>
      </trkpt>
      <trkpt lat="43.57452" lon="6.78087">
        <ele>276.2</ele>
        <time>2025-10-24T09:16:49.000Z</time>
      </trkpt>
      <trkpt lat="43.57449" lon="6.78089">
        <ele>276.7</ele>
        <time>2025-10-24T09:16:50.000Z</time>
      </trkpt>
      <trkpt lat="43.57446" lon="6.7809">
        <ele>277.1</ele>
        <time>2025-10-24T09:16:51.000Z</time>
      </trkpt>
      <trkpt lat="43.57443" lon="6.78092">
        <ele>277.5</ele>
        <time>2025-10-24T09:16:52.000Z</time>
      </trkpt>
      <trkpt lat="43.57439" lon="6.78094">
        <ele>278</ele>
        <time>2025-10-24T09:16:53.000Z</time>
      </trkpt>
      <trkpt lat="43.57436" lon="6.78095">
        <ele>278.4</ele>
        <time>2025-10-24T09:16:54.000Z</time>
      </trkpt>
      <trkpt lat="43.57433" lon="6.78097">
        <ele>278.8</ele>
        <time>2025-10-24T09:16:55.000Z</time>
      </trkpt>
      <trkpt lat="43.57429" lon="6.78099">
        <ele>279.4</ele>
        <time>2025-10-24T09:16:56.000Z</time>
      </trkpt>
      <trkpt lat="43.57425" lon="6.78101">
        <ele>279.8</ele>
        <time>2025-10-24T09:16:57.000Z</time>
      </trkpt>
      <trkpt lat="43.57422" lon="6.78103">
        <ele>280.2</ele>
        <time>2025-10-24T09:16:58.000Z</time>
      </trkpt>
      <trkpt lat="43.5742" lon="6.78105">
        <ele>280.5</ele>
        <time>2025-10-24T09:16:59.000Z</time>
      </trkpt>
      <trkpt lat="43.57417" lon="6.78108">
        <ele>281</ele>
        <time>2025-10-24T09:17:00.000Z</time>
      </trkpt>
      <trkpt lat="43.57413" lon="6.78111">
        <ele>281.5</ele>
        <time>2025-10-24T09:17:01.000Z</time>
      </trkpt>
      <trkpt lat="43.57411" lon="6.78113">
        <ele>281.9</ele>
        <time>2025-10-24T09:17:02.000Z</time>
      </trkpt>
      <trkpt lat="43.57408" lon="6.78116">
        <ele>282.3</ele>
        <time>2025-10-24T09:17:03.000Z</time>
      </trkpt>
      <trkpt lat="43.57405" lon="6.78117">
        <ele>282.7</ele>
        <time>2025-10-24T09:17:04.000Z</time>
      </trkpt>
      <trkpt lat="43.57402" lon="6.78119">
        <ele>283.1</ele>
        <time>2025-10-24T09:17:05.000Z</time>
      </trkpt>
      <trkpt lat="43.57398" lon="6.78122">
        <ele>283.7</ele>
        <time>2025-10-24T09:17:06.000Z</time>
      </trkpt>
      <trkpt lat="43.57395" lon="6.78124">
        <ele>284.1</ele>
        <time>2025-10-24T09:17:07.000Z</time>
      </trkpt>
      <trkpt lat="43.57393" lon="6.78125">
        <ele>284.4</ele>
        <time>2025-10-24T09:17:08.000Z</time>
      </trkpt>
      <trkpt lat="43.5739" lon="6.78127">
        <ele>284.9</ele>
        <time>2025-10-24T09:17:09.000Z</time>
      </trkpt>
      <trkpt lat="43.57387" lon="6.78128">
        <ele>285.3</ele>
        <time>2025-10-24T09:17:10.000Z</time>
      </trkpt>
      <trkpt lat="43.57383" lon="6.7813">
        <ele>285.8</ele>
        <time>2025-10-24T09:17:11.000Z</time>
      </trkpt>
      <trkpt lat="43.5738" lon="6.78132">
        <ele>286.3</ele>
        <time>2025-10-24T09:17:12.000Z</time>
      </trkpt>
      <trkpt lat="43.57377" lon="6.78133">
        <ele>286.7</ele>
        <time>2025-10-24T09:17:13.000Z</time>
      </trkpt>
      <trkpt lat="43.57373" lon="6.78134">
        <ele>287.3</ele>
        <time>2025-10-24T09:17:14.000Z</time>
      </trkpt>
      <trkpt lat="43.5737" lon="6.78136">
        <ele>287.8</ele>
        <time>2025-10-24T09:17:15.000Z</time>
      </trkpt>
      <trkpt lat="43.57367" lon="6.78137">
        <ele>288.3</ele>
        <time>2025-10-24T09:17:16.000Z</time>
      </trkpt>
      <trkpt lat="43.57364" lon="6.78138">
        <ele>288.8</ele>
        <time>2025-10-24T09:17:17.000Z</time>
      </trkpt>
      <trkpt lat="43.57361" lon="6.78139">
        <ele>289.2</ele>
        <time>2025-10-24T09:17:18.000Z</time>
      </trkpt>
      <trkpt lat="43.57359" lon="6.7814">
        <ele>289.6</ele>
        <time>2025-10-24T09:17:19.000Z</time>
      </trkpt>
      <trkpt lat="43.57355" lon="6.78142">
        <ele>290.2</ele>
        <time>2025-10-24T09:17:20.000Z</time>
      </trkpt>
      <trkpt lat="43.57352" lon="6.78143">
        <ele>290.7</ele>
        <time>2025-10-24T09:17:21.000Z</time>
      </trkpt>
      <trkpt lat="43.57349" lon="6.78145">
        <ele>291.1</ele>
        <time>2025-10-24T09:17:22.000Z</time>
      </trkpt>
      <trkpt lat="43.57347" lon="6.78145">
        <ele>291.6</ele>
        <time>2025-10-24T09:17:23.000Z</time>
      </trkpt>
      <trkpt lat="43.57343" lon="6.78147">
        <ele>292.2</ele>
        <time>2025-10-24T09:17:24.000Z</time>
      </trkpt>
      <trkpt lat="43.57339" lon="6.78148">
        <ele>292.7</ele>
        <time>2025-10-24T09:17:25.000Z</time>
      </trkpt>
      <trkpt lat="43.57336" lon="6.7815">
        <ele>293.2</ele>
        <time>2025-10-24T09:17:26.000Z</time>
      </trkpt>
      <trkpt lat="43.57334" lon="6.78151">
        <ele>293.7</ele>
        <time>2025-10-24T09:17:27.000Z</time>
      </trkpt>
      <trkpt lat="43.57331" lon="6.78152">
        <ele>294.1</ele>
        <time>2025-10-24T09:17:28.000Z</time>
      </trkpt>
      <trkpt lat="43.57328" lon="6.78153">
        <ele>294.7</ele>
        <time>2025-10-24T09:17:29.000Z</time>
      </trkpt>
      <trkpt lat="43.57325" lon="6.78154">
        <ele>295.2</ele>
        <time>2025-10-24T09:17:30.000Z</time>
      </trkpt>
      <trkpt lat="43.57323" lon="6.78155">
        <ele>295.6</ele>
        <time>2025-10-24T09:17:31.000Z</time>
      </trkpt>
      <trkpt lat="43.5732" lon="6.78156">
        <ele>296.2</ele>
        <time>2025-10-24T09:17:32.000Z</time>
      </trkpt>
      <trkpt lat="43.57317" lon="6.78158">
        <ele>296.7</ele>
        <time>2025-10-24T09:17:33.000Z</time>
      </trkpt>
      <trkpt lat="43.57313" lon="6.78159">
        <ele>297.3</ele>
        <time>2025-10-24T09:17:34.000Z</time>
      </trkpt>
      <trkpt lat="43.5731" lon="6.7816">
        <ele>297.7</ele>
        <time>2025-10-24T09:17:35.000Z</time>
      </trkpt>
      <trkpt lat="43.57308" lon="6.78161">
        <ele>298.1</ele>
        <time>2025-10-24T09:17:36.000Z</time>
      </trkpt>
      <trkpt lat="43.57305" lon="6.78161">
        <ele>298.6</ele>
        <time>2025-10-24T09:17:37.000Z</time>
      </trkpt>
      <trkpt lat="43.57302" lon="6.7816">
        <ele>299</ele>
        <time>2025-10-24T09:17:38.000Z</time>
      </trkpt>
      <trkpt lat="43.573" lon="6.78158">
        <ele>299.5</ele>
        <time>2025-10-24T09:17:39.000Z</time>
      </trkpt>
      <trkpt lat="43.57298" lon="6.78155">
        <ele>299.9</ele>
        <time>2025-10-24T09:17:40.000Z</time>
      </trkpt>
      <trkpt lat="43.57296" lon="6.78152">
        <ele>300.3</ele>
        <time>2025-10-24T09:17:41.000Z</time>
      </trkpt>
      <trkpt lat="43.57295" lon="6.78149">
        <ele>300.7</ele>
        <time>2025-10-24T09:17:42.000Z</time>
      </trkpt>
      <trkpt lat="43.57294" lon="6.78146">
        <ele>301.1</ele>
        <time>2025-10-24T09:17:43.000Z</time>
      </trkpt>
      <trkpt lat="43.57292" lon="6.78143">
        <ele>301.5</ele>
        <time>2025-10-24T09:17:44.000Z</time>
      </trkpt>
      <trkpt lat="43.57291" lon="6.78139">
        <ele>302.1</ele>
        <time>2025-10-24T09:17:45.000Z</time>
      </trkpt>
      <trkpt lat="43.5729" lon="6.78136">
        <ele>302.4</ele>
        <time>2025-10-24T09:17:46.000Z</time>
      </trkpt>
      <trkpt lat="43.57288" lon="6.78134">
        <ele>302.8</ele>
        <time>2025-10-24T09:17:47.000Z</time>
      </trkpt>
      <trkpt lat="43.57286" lon="6.78131">
        <ele>303.3</ele>
        <time>2025-10-24T09:17:48.000Z</time>
      </trkpt>
      <trkpt lat="43.57284" lon="6.7813">
        <ele>303.7</ele>
        <time>2025-10-24T09:17:49.000Z</time>
      </trkpt>
      <trkpt lat="43.57281" lon="6.78128">
        <ele>304.1</ele>
        <time>2025-10-24T09:17:50.000Z</time>
      </trkpt>
      <trkpt lat="43.5728" lon="6.78128">
        <ele>304.4</ele>
        <time>2025-10-24T09:17:51.000Z</time>
      </trkpt>
      <trkpt lat="43.57277" lon="6.78127">
        <ele>304.8</ele>
        <time>2025-10-24T09:17:52.000Z</time>
      </trkpt>
      <trkpt lat="43.57275" lon="6.78126">
        <ele>305.2</ele>
        <time>2025-10-24T09:17:53.000Z</time>
      </trkpt>
      <trkpt lat="43.57272" lon="6.78126">
        <ele>305.6</ele>
        <time>2025-10-24T09:17:54.000Z</time>
      </trkpt>
      <trkpt lat="43.5727" lon="6.78125">
        <ele>306</ele>
        <time>2025-10-24T09:17:55.000Z</time>
      </trkpt>
      <trkpt lat="43.57267" lon="6.78125">
        <ele>306.3</ele>
        <time>2025-10-24T09:17:56.000Z</time>
      </trkpt>
      <trkpt lat="43.57265" lon="6.78125">
        <ele>306.7</ele>
        <time>2025-10-24T09:17:57.000Z</time>
      </trkpt>
      <trkpt lat="43.57262" lon="6.78125">
        <ele>307</ele>
        <time>2025-10-24T09:17:58.000Z</time>
      </trkpt>
      <trkpt lat="43.5726" lon="6.78125">
        <ele>307.3</ele>
        <time>2025-10-24T09:17:59.000Z</time>
      </trkpt>
      <trkpt lat="43.57258" lon="6.78125">
        <ele>307.5</ele>
        <time>2025-10-24T09:18:00.000Z</time>
      </trkpt>
      <trkpt lat="43.57255" lon="6.78125">
        <ele>307.8</ele>
        <time>2025-10-24T09:18:01.000Z</time>
      </trkpt>
      <trkpt lat="43.57252" lon="6.78126">
        <ele>308.1</ele>
        <time>2025-10-24T09:18:02.000Z</time>
      </trkpt>
      <trkpt lat="43.57249" lon="6.78126">
        <ele>308.4</ele>
        <time>2025-10-24T09:18:03.000Z</time>
      </trkpt>
      <trkpt lat="43.57246" lon="6.78127">
        <ele>308.6</ele>
        <time>2025-10-24T09:18:04.000Z</time>
      </trkpt>
      <trkpt lat="43.57244" lon="6.78127">
        <ele>308.9</ele>
        <time>2025-10-24T09:18:05.000Z</time>
      </trkpt>
      <trkpt lat="43.57241" lon="6.78128">
        <ele>309.2</ele>
        <time>2025-10-24T09:18:06.000Z</time>
      </trkpt>
      <trkpt lat="43.57239" lon="6.78127">
        <ele>309.4</ele>
        <time>2025-10-24T09:18:07.000Z</time>
      </trkpt>
      <trkpt lat="43.57236" lon="6.78127">
        <ele>309.7</ele>
        <time>2025-10-24T09:18:08.000Z</time>
      </trkpt>
      <trkpt lat="43.57234" lon="6.78128">
        <ele>309.9</ele>
        <time>2025-10-24T09:18:09.000Z</time>
      </trkpt>
      <trkpt lat="43.57231" lon="6.78128">
        <ele>310.2</ele>
        <time>2025-10-24T09:18:10.000Z</time>
      </trkpt>
      <trkpt lat="43.57229" lon="6.78128">
        <ele>310.4</ele>
        <time>2025-10-24T09:18:11.000Z</time>
      </trkpt>
      <trkpt lat="43.57227" lon="6.78129">
        <ele>310.6</ele>
        <time>2025-10-24T09:18:12.000Z</time>
      </trkpt>
      <trkpt lat="43.57225" lon="6.78129">
        <ele>310.9</ele>
        <time>2025-10-24T09:18:13.000Z</time>
      </trkpt>
      <trkpt lat="43.57223" lon="6.7813">
        <ele>311.1</ele>
        <time>2025-10-24T09:18:14.000Z</time>
      </trkpt>
      <trkpt lat="43.57221" lon="6.7813">
        <ele>311.3</ele>
        <time>2025-10-24T09:18:15.000Z</time>
      </trkpt>
      <trkpt lat="43.57218" lon="6.78131">
        <ele>311.5</ele>
        <time>2025-10-24T09:18:16.000Z</time>
      </trkpt>
      <trkpt lat="43.57216" lon="6.78131">
        <ele>311.8</ele>
        <time>2025-10-24T09:18:17.000Z</time>
      </trkpt>
      <trkpt lat="43.57212" lon="6.78132">
        <ele>312.1</ele>
        <time>2025-10-24T09:18:18.000Z</time>
      </trkpt>
      <trkpt lat="43.5721" lon="6.78132">
        <ele>312.4</ele>
        <time>2025-10-24T09:18:19.000Z</time>
      </trkpt>
      <trkpt lat="43.57208" lon="6.78133">
        <ele>312.7</ele>
        <time>2025-10-24T09:18:20.000Z</time>
      </trkpt>
      <trkpt lat="43.57205" lon="6.78134">
        <ele>313</ele>
        <time>2025-10-24T09:18:21.000Z</time>
      </trkpt>
      <trkpt lat="43.57202" lon="6.78135">
        <ele>313.3</ele>
        <time>2025-10-24T09:18:22.000Z</time>
      </trkpt>
      <trkpt lat="43.57199" lon="6.78136">
        <ele>313.7</ele>
        <time>2025-10-24T09:18:23.000Z</time>
      </trkpt>
      <trkpt lat="43.57197" lon="6.78136">
        <ele>314</ele>
        <time>2025-10-24T09:18:24.000Z</time>
      </trkpt>
      <trkpt lat="43.57195" lon="6.78137">
        <ele>314.2</ele>
        <time>2025-10-24T09:18:25.000Z</time>
      </trkpt>
      <trkpt lat="43.57192" lon="6.78138">
        <ele>314.6</ele>
        <time>2025-10-24T09:18:26.000Z</time>
      </trkpt>
      <trkpt lat="43.57189" lon="6.78138">
        <ele>315</ele>
        <time>2025-10-24T09:18:27.000Z</time>
      </trkpt>
      <trkpt lat="43.57187" lon="6.78139">
        <ele>315.3</ele>
        <time>2025-10-24T09:18:28.000Z</time>
      </trkpt>
      <trkpt lat="43.57185" lon="6.7814">
        <ele>315.7</ele>
        <time>2025-10-24T09:18:29.000Z</time>
      </trkpt>
      <trkpt lat="43.57182" lon="6.78142">
        <ele>316.1</ele>
        <time>2025-10-24T09:18:30.000Z</time>
      </trkpt>
      <trkpt lat="43.57179" lon="6.78142">
        <ele>316.5</ele>
        <time>2025-10-24T09:18:31.000Z</time>
      </trkpt>
      <trkpt lat="43.57177" lon="6.78143">
        <ele>316.9</ele>
        <time>2025-10-24T09:18:32.000Z</time>
      </trkpt>
      <trkpt lat="43.57175" lon="6.78144">
        <ele>317.2</ele>
        <time>2025-10-24T09:18:33.000Z</time>
      </trkpt>
      <trkpt lat="43.57172" lon="6.78145">
        <ele>317.5</ele>
        <time>2025-10-24T09:18:34.000Z</time>
      </trkpt>
      <trkpt lat="43.57169" lon="6.78146">
        <ele>318</ele>
        <time>2025-10-24T09:18:35.000Z</time>
      </trkpt>
      <trkpt lat="43.57166" lon="6.78147">
        <ele>318.4</ele>
        <time>2025-10-24T09:18:36.000Z</time>
      </trkpt>
      <trkpt lat="43.57164" lon="6.78148">
        <ele>318.7</ele>
        <time>2025-10-24T09:18:37.000Z</time>
      </trkpt>
      <trkpt lat="43.57162" lon="6.78149">
        <ele>319</ele>
        <time>2025-10-24T09:18:38.000Z</time>
      </trkpt>
      <trkpt lat="43.57159" lon="6.7815">
        <ele>319.4</ele>
        <time>2025-10-24T09:18:39.000Z</time>
      </trkpt>
      <trkpt lat="43.57156" lon="6.78151">
        <ele>319.9</ele>
        <time>2025-10-24T09:18:40.000Z</time>
      </trkpt>
      <trkpt lat="43.57153" lon="6.78151">
        <ele>320.3</ele>
        <time>2025-10-24T09:18:41.000Z</time>
      </trkpt>
      <trkpt lat="43.5715" lon="6.78152">
        <ele>320.6</ele>
        <time>2025-10-24T09:18:42.000Z</time>
      </trkpt>
      <trkpt lat="43.57148" lon="6.78153">
        <ele>321</ele>
        <time>2025-10-24T09:18:43.000Z</time>
      </trkpt>
      <trkpt lat="43.57144" lon="6.78153">
        <ele>321.5</ele>
        <time>2025-10-24T09:18:44.000Z</time>
      </trkpt>
      <trkpt lat="43.57141" lon="6.78154">
        <ele>321.9</ele>
        <time>2025-10-24T09:18:45.000Z</time>
      </trkpt>
      <trkpt lat="43.57138" lon="6.78154">
        <ele>322.4</ele>
        <time>2025-10-24T09:18:46.000Z</time>
      </trkpt>
      <trkpt lat="43.57136" lon="6.78153">
        <ele>322.7</ele>
        <time>2025-10-24T09:18:47.000Z</time>
      </trkpt>
      <trkpt lat="43.57133" lon="6.78153">
        <ele>323.1</ele>
        <time>2025-10-24T09:18:48.000Z</time>
      </trkpt>
      <trkpt lat="43.5713" lon="6.78153">
        <ele>323.6</ele>
        <time>2025-10-24T09:18:49.000Z</time>
      </trkpt>
      <trkpt lat="43.57127" lon="6.78152">
        <ele>324</ele>
        <time>2025-10-24T09:18:50.000Z</time>
      </trkpt>
      <trkpt lat="43.57124" lon="6.78152">
        <ele>324.5</ele>
        <time>2025-10-24T09:18:51.000Z</time>
      </trkpt>
      <trkpt lat="43.57121" lon="6.78152">
        <ele>324.9</ele>
        <time>2025-10-24T09:18:52.000Z</time>
      </trkpt>
      <trkpt lat="43.57118" lon="6.78152">
        <ele>325.3</ele>
        <time>2025-10-24T09:18:53.000Z</time>
      </trkpt>
      <trkpt lat="43.57115" lon="6.78152">
        <ele>325.8</ele>
        <time>2025-10-24T09:18:54.000Z</time>
      </trkpt>
      <trkpt lat="43.57112" lon="6.78152">
        <ele>326.3</ele>
        <time>2025-10-24T09:18:55.000Z</time>
      </trkpt>
      <trkpt lat="43.57109" lon="6.78152">
        <ele>326.7</ele>
        <time>2025-10-24T09:18:56.000Z</time>
      </trkpt>
      <trkpt lat="43.57107" lon="6.78152">
        <ele>327.2</ele>
        <time>2025-10-24T09:18:57.000Z</time>
      </trkpt>
      <trkpt lat="43.57103" lon="6.78152">
        <ele>327.8</ele>
        <time>2025-10-24T09:18:58.000Z</time>
      </trkpt>
      <trkpt lat="43.57101" lon="6.78152">
        <ele>328.2</ele>
        <time>2025-10-24T09:18:59.000Z</time>
      </trkpt>
      <trkpt lat="43.57098" lon="6.78153">
        <ele>328.9</ele>
        <time>2025-10-24T09:19:00.000Z</time>
      </trkpt>
      <trkpt lat="43.57095" lon="6.78153">
        <ele>329.3</ele>
        <time>2025-10-24T09:19:01.000Z</time>
      </trkpt>
      <trkpt lat="43.57093" lon="6.78153">
        <ele>329.8</ele>
        <time>2025-10-24T09:19:02.000Z</time>
      </trkpt>
      <trkpt lat="43.57089" lon="6.78153">
        <ele>330.4</ele>
        <time>2025-10-24T09:19:03.000Z</time>
      </trkpt>
      <trkpt lat="43.57086" lon="6.78153">
        <ele>330.9</ele>
        <time>2025-10-24T09:19:04.000Z</time>
      </trkpt>
      <trkpt lat="43.57083" lon="6.78152">
        <ele>331.4</ele>
        <time>2025-10-24T09:19:05.000Z</time>
      </trkpt>
      <trkpt lat="43.5708" lon="6.78152">
        <ele>331.8</ele>
        <time>2025-10-24T09:19:06.000Z</time>
      </trkpt>
      <trkpt lat="43.57078" lon="6.78152">
        <ele>332.2</ele>
        <time>2025-10-24T09:19:07.000Z</time>
      </trkpt>
      <trkpt lat="43.57074" lon="6.78152">
        <ele>332.7</ele>
        <time>2025-10-24T09:19:08.000Z</time>
      </trkpt>
      <trkpt lat="43.57071" lon="6.78152">
        <ele>333.1</ele>
        <time>2025-10-24T09:19:09.000Z</time>
      </trkpt>
      <trkpt lat="43.57068" lon="6.78151">
        <ele>333.3</ele>
        <time>2025-10-24T09:19:10.000Z</time>
      </trkpt>
      <trkpt lat="43.57065" lon="6.78151">
        <ele>333.6</ele>
        <time>2025-10-24T09:19:11.000Z</time>
      </trkpt>
      <trkpt lat="43.57061" lon="6.7815">
        <ele>334</ele>
        <time>2025-10-24T09:19:12.000Z</time>
      </trkpt>
      <trkpt lat="43.57058" lon="6.78149">
        <ele>334.2</ele>
        <time>2025-10-24T09:19:13.000Z</time>
      </trkpt>
      <trkpt lat="43.57055" lon="6.78149">
        <ele>334.4</ele>
        <time>2025-10-24T09:19:14.000Z</time>
      </trkpt>
      <trkpt lat="43.57052" lon="6.78149">
        <ele>334.6</ele>
        <time>2025-10-24T09:19:15.000Z</time>
      </trkpt>
      <trkpt lat="43.57049" lon="6.78148">
        <ele>334.7</ele>
        <time>2025-10-24T09:19:16.000Z</time>
      </trkpt>
      <trkpt lat="43.57044" lon="6.78147">
        <ele>334.9</ele>
        <time>2025-10-24T09:19:17.000Z</time>
      </trkpt>
      <trkpt lat="43.5704" lon="6.78146">
        <ele>334.9</ele>
        <time>2025-10-24T09:19:18.000Z</time>
      </trkpt>
      <trkpt lat="43.57037" lon="6.78145">
        <ele>335</ele>
        <time>2025-10-24T09:19:19.000Z</time>
      </trkpt>
      <trkpt lat="43.57034" lon="6.78143">
        <ele>335</ele>
        <time>2025-10-24T09:19:20.000Z</time>
      </trkpt>
      <trkpt lat="43.5703" lon="6.78142">
        <ele>335.1</ele>
        <time>2025-10-24T09:19:21.000Z</time>
      </trkpt>
      <trkpt lat="43.57026" lon="6.7814">
        <ele>335.1</ele>
        <time>2025-10-24T09:19:22.000Z</time>
      </trkpt>
      <trkpt lat="43.57021" lon="6.78138">
        <ele>335.1</ele>
        <time>2025-10-24T09:19:23.000Z</time>
      </trkpt>
      <trkpt lat="43.57018" lon="6.78137">
        <ele>335.2</ele>
        <time>2025-10-24T09:19:24.000Z</time>
      </trkpt>
      <trkpt lat="43.57014" lon="6.78135">
        <ele>335.2</ele>
        <time>2025-10-24T09:19:25.000Z</time>
      </trkpt>
      <trkpt lat="43.57009" lon="6.78133">
        <ele>335.3</ele>
        <time>2025-10-24T09:19:26.000Z</time>
      </trkpt>
      <trkpt lat="43.57005" lon="6.78131">
        <ele>335.5</ele>
        <time>2025-10-24T09:19:27.000Z</time>
      </trkpt>
      <trkpt lat="43.57" lon="6.78129">
        <ele>335.6</ele>
        <time>2025-10-24T09:19:28.000Z</time>
      </trkpt>
      <trkpt lat="43.56997" lon="6.78128">
        <ele>335.8</ele>
        <time>2025-10-24T09:19:29.000Z</time>
      </trkpt>
      <trkpt lat="43.56992" lon="6.78126">
        <ele>336</ele>
        <time>2025-10-24T09:19:30.000Z</time>
      </trkpt>
      <trkpt lat="43.56987" lon="6.78123">
        <ele>336.3</ele>
        <time>2025-10-24T09:19:31.000Z</time>
      </trkpt>
      <trkpt lat="43.56983" lon="6.78121">
        <ele>336.5</ele>
        <time>2025-10-24T09:19:32.000Z</time>
      </trkpt>
      <trkpt lat="43.56979" lon="6.7812">
        <ele>336.8</ele>
        <time>2025-10-24T09:19:33.000Z</time>
      </trkpt>
      <trkpt lat="43.56975" lon="6.78118">
        <ele>337</ele>
        <time>2025-10-24T09:19:34.000Z</time>
      </trkpt>
      <trkpt lat="43.5697" lon="6.78116">
        <ele>337.4</ele>
        <time>2025-10-24T09:19:35.000Z</time>
      </trkpt>
      <trkpt lat="43.56965" lon="6.78114">
        <ele>337.6</ele>
        <time>2025-10-24T09:19:36.000Z</time>
      </trkpt>
      <trkpt lat="43.56961" lon="6.78113">
        <ele>337.9</ele>
        <time>2025-10-24T09:19:37.000Z</time>
      </trkpt>
      <trkpt lat="43.56957" lon="6.78112">
        <ele>338.1</ele>
        <time>2025-10-24T09:19:38.000Z</time>
      </trkpt>
      <trkpt lat="43.56953" lon="6.78111">
        <ele>338.4</ele>
        <time>2025-10-24T09:19:39.000Z</time>
      </trkpt>
      <trkpt lat="43.56947" lon="6.78109">
        <ele>338.7</ele>
        <time>2025-10-24T09:19:40.000Z</time>
      </trkpt>
      <trkpt lat="43.56943" lon="6.78108">
        <ele>339</ele>
        <time>2025-10-24T09:19:41.000Z</time>
      </trkpt>
      <trkpt lat="43.56938" lon="6.78107">
        <ele>339.2</ele>
        <time>2025-10-24T09:19:42.000Z</time>
      </trkpt>
      <trkpt lat="43.56935" lon="6.78106">
        <ele>339.4</ele>
        <time>2025-10-24T09:19:43.000Z</time>
      </trkpt>
      <trkpt lat="43.56931" lon="6.78104">
        <ele>339.6</ele>
        <time>2025-10-24T09:19:44.000Z</time>
      </trkpt>
      <trkpt lat="43.56927" lon="6.78101">
        <ele>339.8</ele>
        <time>2025-10-24T09:19:45.000Z</time>
      </trkpt>
      <trkpt lat="43.56922" lon="6.78098">
        <ele>340.1</ele>
        <time>2025-10-24T09:19:46.000Z</time>
      </trkpt>
      <trkpt lat="43.56918" lon="6.78096">
        <ele>340.2</ele>
        <time>2025-10-24T09:19:47.000Z</time>
      </trkpt>
      <trkpt lat="43.56915" lon="6.78093">
        <ele>340.4</ele>
        <time>2025-10-24T09:19:48.000Z</time>
      </trkpt>
      <trkpt lat="43.56911" lon="6.78091">
        <ele>340.6</ele>
        <time>2025-10-24T09:19:49.000Z</time>
      </trkpt>
      <trkpt lat="43.56907" lon="6.78088">
        <ele>340.7</ele>
        <time>2025-10-24T09:19:50.000Z</time>
      </trkpt>
      <trkpt lat="43.56903" lon="6.78085">
        <ele>340.8</ele>
        <time>2025-10-24T09:19:51.000Z</time>
      </trkpt>
      <trkpt lat="43.569" lon="6.78082">
        <ele>340.9</ele>
        <time>2025-10-24T09:19:52.000Z</time>
      </trkpt>
      <trkpt lat="43.56896" lon="6.78079">
        <ele>340.9</ele>
        <time>2025-10-24T09:19:53.000Z</time>
      </trkpt>
      <trkpt lat="43.56891" lon="6.78075">
        <ele>340.9</ele>
        <time>2025-10-24T09:19:54.000Z</time>
      </trkpt>
      <trkpt lat="43.56887" lon="6.78071">
        <ele>340.9</ele>
        <time>2025-10-24T09:19:55.000Z</time>
      </trkpt>
      <trkpt lat="43.56883" lon="6.78067">
        <ele>340.8</ele>
        <time>2025-10-24T09:19:56.000Z</time>
      </trkpt>
      <trkpt lat="43.5688" lon="6.78064">
        <ele>340.7</ele>
        <time>2025-10-24T09:19:57.000Z</time>
      </trkpt>
      <trkpt lat="43.56877" lon="6.7806">
        <ele>340.6</ele>
        <time>2025-10-24T09:19:58.000Z</time>
      </trkpt>
      <trkpt lat="43.56873" lon="6.78054">
        <ele>340.5</ele>
        <time>2025-10-24T09:19:59.000Z</time>
      </trkpt>
      <trkpt lat="43.56869" lon="6.78049">
        <ele>340.3</ele>
        <time>2025-10-24T09:20:00.000Z</time>
      </trkpt>
      <trkpt lat="43.56867" lon="6.78046">
        <ele>340.1</ele>
        <time>2025-10-24T09:20:01.000Z</time>
      </trkpt>
      <trkpt lat="43.56864" lon="6.78041">
        <ele>339.8</ele>
        <time>2025-10-24T09:20:02.000Z</time>
      </trkpt>
      <trkpt lat="43.5686" lon="6.78034">
        <ele>339.4</ele>
        <time>2025-10-24T09:20:03.000Z</time>
      </trkpt>
      <trkpt lat="43.56857" lon="6.78028">
        <ele>338.8</ele>
        <time>2025-10-24T09:20:04.000Z</time>
      </trkpt>
      <trkpt lat="43.56855" lon="6.78024">
        <ele>338.4</ele>
        <time>2025-10-24T09:20:05.000Z</time>
      </trkpt>
      <trkpt lat="43.56853" lon="6.78018">
        <ele>337.8</ele>
        <time>2025-10-24T09:20:06.000Z</time>
      </trkpt>
      <trkpt lat="43.56851" lon="6.78012">
        <ele>337.2</ele>
        <time>2025-10-24T09:20:07.000Z</time>
      </trkpt>
      <trkpt lat="43.56849" lon="6.78005">
        <ele>336.5</ele>
        <time>2025-10-24T09:20:08.000Z</time>
      </trkpt>
      <trkpt lat="43.56847" lon="6.77999">
        <ele>335.9</ele>
        <time>2025-10-24T09:20:09.000Z</time>
      </trkpt>
      <trkpt lat="43.56846" lon="6.77994">
        <ele>335.5</ele>
        <time>2025-10-24T09:20:10.000Z</time>
      </trkpt>
      <trkpt lat="43.56845" lon="6.77986">
        <ele>334.8</ele>
        <time>2025-10-24T09:20:11.000Z</time>
      </trkpt>
      <trkpt lat="43.56844" lon="6.77978">
        <ele>334.2</ele>
        <time>2025-10-24T09:20:12.000Z</time>
      </trkpt>
      <trkpt lat="43.56843" lon="6.77968">
        <ele>333.5</ele>
        <time>2025-10-24T09:20:13.000Z</time>
      </trkpt>
      <trkpt lat="43.56843" lon="6.77959">
        <ele>332.8</ele>
        <time>2025-10-24T09:20:14.000Z</time>
      </trkpt>
      <trkpt lat="43.56842" lon="6.77952">
        <ele>332.4</ele>
        <time>2025-10-24T09:20:15.000Z</time>
      </trkpt>
      <trkpt lat="43.56841" lon="6.77944">
        <ele>331.8</ele>
        <time>2025-10-24T09:20:16.000Z</time>
      </trkpt>
      <trkpt lat="43.56839" lon="6.77937">
        <ele>331</ele>
        <time>2025-10-24T09:20:17.000Z</time>
      </trkpt>
      <trkpt lat="43.56838" lon="6.77931">
        <ele>330.3</ele>
        <time>2025-10-24T09:20:18.000Z</time>
      </trkpt>
      <trkpt lat="43.56836" lon="6.77924">
        <ele>329.5</ele>
        <time>2025-10-24T09:20:19.000Z</time>
      </trkpt>
      <trkpt lat="43.56833" lon="6.77919">
        <ele>328.6</ele>
        <time>2025-10-24T09:20:20.000Z</time>
      </trkpt>
      <trkpt lat="43.56831" lon="6.77914">
        <ele>327.8</ele>
        <time>2025-10-24T09:20:21.000Z</time>
      </trkpt>
      <trkpt lat="43.56826" lon="6.77907">
        <ele>326.7</ele>
        <time>2025-10-24T09:20:22.000Z</time>
      </trkpt>
      <trkpt lat="43.56822" lon="6.779">
        <ele>325.7</ele>
        <time>2025-10-24T09:20:23.000Z</time>
      </trkpt>
      <trkpt lat="43.5682" lon="6.77895">
        <ele>325</ele>
        <time>2025-10-24T09:20:24.000Z</time>
      </trkpt>
      <trkpt lat="43.56817" lon="6.77887">
        <ele>324</ele>
        <time>2025-10-24T09:20:25.000Z</time>
      </trkpt>
      <trkpt lat="43.56814" lon="6.7788">
        <ele>323</ele>
        <time>2025-10-24T09:20:26.000Z</time>
      </trkpt>
      <trkpt lat="43.56809" lon="6.77871">
        <ele>321.7</ele>
        <time>2025-10-24T09:20:27.000Z</time>
      </trkpt>
      <trkpt lat="43.56804" lon="6.77863">
        <ele>320.4</ele>
        <time>2025-10-24T09:20:28.000Z</time>
      </trkpt>
      <trkpt lat="43.568" lon="6.77857">
        <ele>319.4</ele>
        <time>2025-10-24T09:20:29.000Z</time>
      </trkpt>
      <trkpt lat="43.56794" lon="6.77849">
        <ele>318.3</ele>
        <time>2025-10-24T09:20:30.000Z</time>
      </trkpt>
      <trkpt lat="43.56786" lon="6.7784">
        <ele>317.2</ele>
        <time>2025-10-24T09:20:31.000Z</time>
      </trkpt>
      <trkpt lat="43.5678" lon="6.77832">
        <ele>316.3</ele>
        <time>2025-10-24T09:20:32.000Z</time>
      </trkpt>
      <trkpt lat="43.56773" lon="6.77824">
        <ele>315.6</ele>
        <time>2025-10-24T09:20:33.000Z</time>
      </trkpt>
      <trkpt lat="43.56769" lon="6.77816">
        <ele>315.1</ele>
        <time>2025-10-24T09:20:34.000Z</time>
      </trkpt>
      <trkpt lat="43.56763" lon="6.77807">
        <ele>314.5</ele>
        <time>2025-10-24T09:20:35.000Z</time>
      </trkpt>
      <trkpt lat="43.56758" lon="6.77795">
        <ele>314.1</ele>
        <time>2025-10-24T09:20:36.000Z</time>
      </trkpt>
      <trkpt lat="43.56753" lon="6.77785">
        <ele>313.8</ele>
        <time>2025-10-24T09:20:37.000Z</time>
      </trkpt>
      <trkpt lat="43.56749" lon="6.77778">
        <ele>313.6</ele>
        <time>2025-10-24T09:20:38.000Z</time>
      </trkpt>
      <trkpt lat="43.56745" lon="6.7777">
        <ele>313.5</ele>
        <time>2025-10-24T09:20:39.000Z</time>
      </trkpt>
      <trkpt lat="43.5674" lon="6.77761">
        <ele>313.3</ele>
        <time>2025-10-24T09:20:40.000Z</time>
      </trkpt>
      <trkpt lat="43.56738" lon="6.77754">
        <ele>313.1</ele>
        <time>2025-10-24T09:20:41.000Z</time>
      </trkpt>
      <trkpt lat="43.56736" lon="6.77749">
        <ele>312.8</ele>
        <time>2025-10-24T09:20:42.000Z</time>
      </trkpt>
      <trkpt lat="43.56735" lon="6.77744">
        <ele>312.4</ele>
        <time>2025-10-24T09:20:43.000Z</time>
      </trkpt>
      <trkpt lat="43.56734" lon="6.77738">
        <ele>312</ele>
        <time>2025-10-24T09:20:44.000Z</time>
      </trkpt>
      <trkpt lat="43.56734" lon="6.77731">
        <ele>311.2</ele>
        <time>2025-10-24T09:20:45.000Z</time>
      </trkpt>
      <trkpt lat="43.56733" lon="6.77725">
        <ele>310.5</ele>
        <time>2025-10-24T09:20:46.000Z</time>
      </trkpt>
      <trkpt lat="43.56733" lon="6.7772">
        <ele>309.8</ele>
        <time>2025-10-24T09:20:47.000Z</time>
      </trkpt>
      <trkpt lat="43.56733" lon="6.77715">
        <ele>309.2</ele>
        <time>2025-10-24T09:20:48.000Z</time>
      </trkpt>
      <trkpt lat="43.56732" lon="6.77709">
        <ele>308.3</ele>
        <time>2025-10-24T09:20:49.000Z</time>
      </trkpt>
      <trkpt lat="43.56732" lon="6.777">
        <ele>307</ele>
        <time>2025-10-24T09:20:50.000Z</time>
      </trkpt>
      <trkpt lat="43.56732" lon="6.77692">
        <ele>305.8</ele>
        <time>2025-10-24T09:20:51.000Z</time>
      </trkpt>
      <trkpt lat="43.56732" lon="6.77685">
        <ele>304.7</ele>
        <time>2025-10-24T09:20:52.000Z</time>
      </trkpt>
      <trkpt lat="43.56732" lon="6.77675">
        <ele>303.2</ele>
        <time>2025-10-24T09:20:53.000Z</time>
      </trkpt>
      <trkpt lat="43.56732" lon="6.77664">
        <ele>301.6</ele>
        <time>2025-10-24T09:20:54.000Z</time>
      </trkpt>
      <trkpt lat="43.56733" lon="6.77655">
        <ele>300.5</ele>
        <time>2025-10-24T09:20:55.000Z</time>
      </trkpt>
      <trkpt lat="43.56735" lon="6.77648">
        <ele>299.7</ele>
        <time>2025-10-24T09:20:56.000Z</time>
      </trkpt>
      <trkpt lat="43.56735" lon="6.77643">
        <ele>299.3</ele>
        <time>2025-10-24T09:20:57.000Z</time>
      </trkpt>
      <trkpt lat="43.56736" lon="6.77638">
        <ele>298.9</ele>
        <time>2025-10-24T09:20:58.000Z</time>
      </trkpt>
      <trkpt lat="43.56735" lon="6.77633">
        <ele>298.5</ele>
        <time>2025-10-24T09:20:59.000Z</time>
      </trkpt>
      <trkpt lat="43.56735" lon="6.77631">
        <ele>298.4</ele>
        <time>2025-10-24T09:21:00.000Z</time>
      </trkpt>
      <trkpt lat="43.56734" lon="6.77631">
        <ele>298.3</ele>
        <time>2025-10-24T09:21:01.000Z</time>
      </trkpt>
      <trkpt lat="43.56734" lon="6.77631">
        <ele>298.3</ele>
        <time>2025-10-24T09:21:02.000Z</time>
      </trkpt>
      <trkpt lat="43.56734" lon="6.77631">
        <ele>298.3</ele>
        <time>2025-10-24T09:21:03.000Z</time>
      </trkpt>
      <trkpt lat="43.56734" lon="6.77631">
        <ele>298.3</ele>
        <time>2025-10-24T09:21:04.000Z</time>
      </trkpt>
      <trkpt lat="43.56734" lon="6.77632">
        <ele>298.3</ele>
        <time>2025-10-24T09:21:05.000Z</time>
      </trkpt>
      <trkpt lat="43.56735" lon="6.77632">
        <ele>298.3</ele>
        <time>2025-10-24T09:21:06.000Z</time>
      </trkpt>
      <trkpt lat="43.56734" lon="6.77632">
        <ele>298.3</ele>
        <time>2025-10-24T09:21:07.000Z</time>
      </trkpt>
      <trkpt lat="43.56734" lon="6.77632">
        <ele>298.2</ele>
        <time>2025-10-24T09:21:08.000Z</time>
      </trkpt>
      <trkpt lat="43.56734" lon="6.77633">
        <ele>298.2</ele>
        <time>2025-10-24T09:21:09.000Z</time>
      </trkpt>
      <trkpt lat="43.56733" lon="6.77633">
        <ele>298.2</ele>
        <time>2025-10-24T09:21:10.000Z</time>
      </trkpt>
      <trkpt lat="43.56733" lon="6.77633">
        <ele>298.2</ele>
        <time>2025-10-24T09:21:11.000Z</time>
      </trkpt>
      <trkpt lat="43.56733" lon="6.77632">
        <ele>298.1</ele>
        <time>2025-10-24T09:21:12.000Z</time>
      </trkpt>
      <trkpt lat="43.56733" lon="6.77632">
        <ele>298.1</ele>
        <time>2025-10-24T09:21:13.000Z</time>
      </trkpt>
      <trkpt lat="43.56733" lon="6.77632">
        <ele>298.1</ele>
        <time>2025-10-24T09:21:14.000Z</time>
      </trkpt>
      <trkpt lat="43.56733" lon="6.77632">
        <ele>298.1</ele>
        <time>2025-10-24T09:21:15.000Z</time>
      </trkpt>
      <trkpt lat="43.56733" lon="6.77632">
        <ele>298.1</ele>
        <time>2025-10-24T09:21:16.000Z</time>
      </trkpt>
      <trkpt lat="43.56733" lon="6.77632">
        <ele>298.1</ele>
        <time>2025-10-24T09:21:17.000Z</time>
      </trkpt>
      <trkpt lat="43.56733" lon="6.77632">
        <ele>298.1</ele>
        <time>2025-10-24T09:21:18.000Z</time>
      </trkpt>
      <trkpt lat="43.56733" lon="6.77632">
        <ele>298.1</ele>
        <time>2025-10-24T09:21:19.000Z</time>
      </trkpt>
      <trkpt lat="43.56733" lon="6.77632">
        <ele>298.1</ele>
        <time>2025-10-24T09:21:20.000Z</time>
      </trkpt>
      <trkpt lat="43.56733" lon="6.77632">
        <ele>298.1</ele>
        <time>2025-10-24T09:21:21.000Z</time>
      </trkpt>
      <trkpt lat="43.56733" lon="6.77632">
        <ele>298.1</ele>
        <time>2025-10-24T09:21:22.000Z</time>
      </trkpt>
      <trkpt lat="43.56733" lon="6.77632">
        <ele>298.1</ele>
        <time>2025-10-24T09:21:23.000Z</time>
      </trkpt>
      <trkpt lat="43.56733" lon="6.77632">
        <ele>298.1</ele>
        <time>2025-10-24T09:21:24.000Z</time>
      </trkpt>
      <trkpt lat="43.56733" lon="6.77632">
        <ele>298.1</ele>
        <time>2025-10-24T09:21:25.000Z</time>
      </trkpt>
      <trkpt lat="43.56733" lon="6.77633">
        <ele>298.1</ele>
        <time>2025-10-24T09:21:26.000Z</time>
      </trkpt>
      <trkpt lat="43.56733" lon="6.77633">
        <ele>298.1</ele>
        <time>2025-10-24T09:21:27.000Z</time>
      </trkpt>
      <trkpt lat="43.56733" lon="6.77633">
        <ele>298.1</ele>
        <time>2025-10-24T09:21:28.000Z</time>
      </trkpt>
      <trkpt lat="43.56733" lon="6.77633">
        <ele>298.1</ele>
        <time>2025-10-24T09:21:29.000Z</time>
      </trkpt>
      <trkpt lat="43.56733" lon="6.77633">
        <ele>298.1</ele>
        <time>2025-10-24T09:21:30.000Z</time>
      </trkpt>
      <trkpt lat="43.56733" lon="6.77633">
        <ele>298.1</ele>
        <time>2025-10-24T09:21:31.000Z</time>
      </trkpt>
      <trkpt lat="43.56733" lon="6.77633">
        <ele>298.1</ele>
        <time>2025-10-24T09:21:32.000Z</time>
      </trkpt>
      <trkpt lat="43.56733" lon="6.77634">
        <ele>298.1</ele>
        <time>2025-10-24T09:21:33.000Z</time>
      </trkpt>
      <trkpt lat="43.56731" lon="6.77636">
        <ele>297.9</ele>
        <time>2025-10-24T09:21:34.000Z</time>
      </trkpt>
      <trkpt lat="43.56729" lon="6.77638">
        <ele>297.8</ele>
        <time>2025-10-24T09:21:35.000Z</time>
      </trkpt>
      <trkpt lat="43.56726" lon="6.77641">
        <ele>297.6</ele>
        <time>2025-10-24T09:21:36.000Z</time>
      </trkpt>
      <trkpt lat="43.56723" lon="6.77645">
        <ele>297.3</ele>
        <time>2025-10-24T09:21:37.000Z</time>
      </trkpt>
      <trkpt lat="43.56721" lon="6.77649">
        <ele>297.1</ele>
        <time>2025-10-24T09:21:38.000Z</time>
      </trkpt>
      <trkpt lat="43.56719" lon="6.77654">
        <ele>296.9</ele>
        <time>2025-10-24T09:21:39.000Z</time>
      </trkpt>
      <trkpt lat="43.56715" lon="6.7766">
        <ele>296.5</ele>
        <time>2025-10-24T09:21:40.000Z</time>
      </trkpt>
      <trkpt lat="43.56713" lon="6.77665">
        <ele>296.3</ele>
        <time>2025-10-24T09:21:41.000Z</time>
      </trkpt>
      <trkpt lat="43.5671" lon="6.7767">
        <ele>296</ele>
        <time>2025-10-24T09:21:42.000Z</time>
      </trkpt>
      <trkpt lat="43.56707" lon="6.77674">
        <ele>295.8</ele>
        <time>2025-10-24T09:21:43.000Z</time>
      </trkpt>
      <trkpt lat="43.56704" lon="6.77677">
        <ele>295.6</ele>
        <time>2025-10-24T09:21:44.000Z</time>
      </trkpt>
      <trkpt lat="43.567" lon="6.77682">
        <ele>295.3</ele>
        <time>2025-10-24T09:21:45.000Z</time>
      </trkpt>
      <trkpt lat="43.56696" lon="6.77685">
        <ele>295.2</ele>
        <time>2025-10-24T09:21:46.000Z</time>
      </trkpt>
      <trkpt lat="43.56693" lon="6.77687">
        <ele>295.1</ele>
        <time>2025-10-24T09:21:47.000Z</time>
      </trkpt>
      <trkpt lat="43.56688" lon="6.7769">
        <ele>295.1</ele>
        <time>2025-10-24T09:21:48.000Z</time>
      </trkpt>
      <trkpt lat="43.56685" lon="6.77692">
        <ele>295.1</ele>
        <time>2025-10-24T09:21:49.000Z</time>
      </trkpt>
      <trkpt lat="43.5668" lon="6.77693">
        <ele>295.2</ele>
        <time>2025-10-24T09:21:50.000Z</time>
      </trkpt>
      <trkpt lat="43.56676" lon="6.77694">
        <ele>295.3</ele>
        <time>2025-10-24T09:21:51.000Z</time>
      </trkpt>
      <trkpt lat="43.56672" lon="6.77695">
        <ele>295.4</ele>
        <time>2025-10-24T09:21:52.000Z</time>
      </trkpt>
      <trkpt lat="43.56668" lon="6.77696">
        <ele>295.6</ele>
        <time>2025-10-24T09:21:53.000Z</time>
      </trkpt>
      <trkpt lat="43.56664" lon="6.77696">
        <ele>295.7</ele>
        <time>2025-10-24T09:21:54.000Z</time>
      </trkpt>
      <trkpt lat="43.56659" lon="6.77696">
        <ele>295.8</ele>
        <time>2025-10-24T09:21:55.000Z</time>
      </trkpt>
      <trkpt lat="43.56654" lon="6.77697">
        <ele>295.9</ele>
        <time>2025-10-24T09:21:56.000Z</time>
      </trkpt>
      <trkpt lat="43.56649" lon="6.77697">
        <ele>296</ele>
        <time>2025-10-24T09:21:57.000Z</time>
      </trkpt>
      <trkpt lat="43.56644" lon="6.77697">
        <ele>296.1</ele>
        <time>2025-10-24T09:21:58.000Z</time>
      </trkpt>
      <trkpt lat="43.56639" lon="6.77698">
        <ele>296.2</ele>
        <time>2025-10-24T09:21:59.000Z</time>
      </trkpt>
      <trkpt lat="43.56634" lon="6.77698">
        <ele>296.3</ele>
        <time>2025-10-24T09:22:00.000Z</time>
      </trkpt>
      <trkpt lat="43.56629" lon="6.77698">
        <ele>296.4</ele>
        <time>2025-10-24T09:22:01.000Z</time>
      </trkpt>
      <trkpt lat="43.56625" lon="6.77698">
        <ele>296.5</ele>
        <time>2025-10-24T09:22:02.000Z</time>
      </trkpt>
      <trkpt lat="43.5662" lon="6.77699">
        <ele>296.5</ele>
        <time>2025-10-24T09:22:03.000Z</time>
      </trkpt>
      <trkpt lat="43.56617" lon="6.77699">
        <ele>296.6</ele>
        <time>2025-10-24T09:22:04.000Z</time>
      </trkpt>
      <trkpt lat="43.56613" lon="6.77698">
        <ele>296.6</ele>
        <time>2025-10-24T09:22:05.000Z</time>
      </trkpt>
      <trkpt lat="43.5661" lon="6.77698">
        <ele>296.6</ele>
        <time>2025-10-24T09:22:06.000Z</time>
      </trkpt>
      <trkpt lat="43.56607" lon="6.77698">
        <ele>296.5</ele>
        <time>2025-10-24T09:22:07.000Z</time>
      </trkpt>
      <trkpt lat="43.56604" lon="6.77698">
        <ele>296.5</ele>
        <time>2025-10-24T09:22:08.000Z</time>
      </trkpt>
      <trkpt lat="43.56601" lon="6.77698">
        <ele>296.4</ele>
        <time>2025-10-24T09:22:09.000Z</time>
      </trkpt>
      <trkpt lat="43.56598" lon="6.77697">
        <ele>296.2</ele>
        <time>2025-10-24T09:22:10.000Z</time>
      </trkpt>
      <trkpt lat="43.56595" lon="6.77695">
        <ele>296</ele>
        <time>2025-10-24T09:22:11.000Z</time>
      </trkpt>
      <trkpt lat="43.56593" lon="6.77694">
        <ele>295.8</ele>
        <time>2025-10-24T09:22:12.000Z</time>
      </trkpt>
      <trkpt lat="43.5659" lon="6.77693">
        <ele>295.5</ele>
        <time>2025-10-24T09:22:13.000Z</time>
      </trkpt>
      <trkpt lat="43.56588" lon="6.77693">
        <ele>295.3</ele>
        <time>2025-10-24T09:22:14.000Z</time>
      </trkpt>
      <trkpt lat="43.56587" lon="6.77693">
        <ele>295.1</ele>
        <time>2025-10-24T09:22:15.000Z</time>
      </trkpt>
      <trkpt lat="43.56586" lon="6.77693">
        <ele>295.1</ele>
        <time>2025-10-24T09:22:16.000Z</time>
      </trkpt>
      <trkpt lat="43.56586" lon="6.77694">
        <ele>295</ele>
        <time>2025-10-24T09:22:17.000Z</time>
      </trkpt>
      <trkpt lat="43.56586" lon="6.77694">
        <ele>295</ele>
        <time>2025-10-24T09:22:18.000Z</time>
      </trkpt>
      <trkpt lat="43.56586" lon="6.77694">
        <ele>295</ele>
        <time>2025-10-24T09:22:19.000Z</time>
      </trkpt>
      <trkpt lat="43.56586" lon="6.77694">
        <ele>294.9</ele>
        <time>2025-10-24T09:22:20.000Z</time>
      </trkpt>
      <trkpt lat="43.56586" lon="6.77695">
        <ele>294.9</ele>
        <time>2025-10-24T09:22:21.000Z</time>
      </trkpt>
      <trkpt lat="43.56586" lon="6.77695">
        <ele>294.9</ele>
        <time>2025-10-24T09:22:22.000Z</time>
      </trkpt>
      <trkpt lat="43.56586" lon="6.77695">
        <ele>294.9</ele>
        <time>2025-10-24T09:22:23.000Z</time>
      </trkpt>
      <trkpt lat="43.56586" lon="6.77695">
        <ele>294.9</ele>
        <time>2025-10-24T09:22:24.000Z</time>
      </trkpt>
      <trkpt lat="43.56586" lon="6.77695">
        <ele>294.8</ele>
        <time>2025-10-24T09:22:25.000Z</time>
      </trkpt>
      <trkpt lat="43.56586" lon="6.77695">
        <ele>294.8</ele>
        <time>2025-10-24T09:22:26.000Z</time>
      </trkpt>
      <trkpt lat="43.56586" lon="6.77696">
        <ele>294.8</ele>
        <time>2025-10-24T09:22:27.000Z</time>
      </trkpt>
      <trkpt lat="43.56586" lon="6.77696">
        <ele>294.7</ele>
        <time>2025-10-24T09:22:28.000Z</time>
      </trkpt>
      <trkpt lat="43.56586" lon="6.77696">
        <ele>294.7</ele>
        <time>2025-10-24T09:22:29.000Z</time>
      </trkpt>
      <trkpt lat="43.56586" lon="6.77696">
        <ele>294.7</ele>
        <time>2025-10-24T09:22:30.000Z</time>
      </trkpt>
      <trkpt lat="43.56586" lon="6.77696">
        <ele>294.7</ele>
        <time>2025-10-24T09:22:31.000Z</time>
      </trkpt>
      <trkpt lat="43.56586" lon="6.77697">
        <ele>294.6</ele>
        <time>2025-10-24T09:22:32.000Z</time>
      </trkpt>
      <trkpt lat="43.56586" lon="6.77697">
        <ele>294.6</ele>
        <time>2025-10-24T09:22:33.000Z</time>
      </trkpt>
      <trkpt lat="43.56586" lon="6.77697">
        <ele>294.6</ele>
        <time>2025-10-24T09:22:34.000Z</time>
      </trkpt>
      <trkpt lat="43.56585" lon="6.77697">
        <ele>294.6</ele>
        <time>2025-10-24T09:22:35.000Z</time>
      </trkpt>
      <trkpt lat="43.56585" lon="6.77697">
        <ele>294.5</ele>
        <time>2025-10-24T09:22:36.000Z</time>
      </trkpt>
      <trkpt lat="43.56585" lon="6.77698">
        <ele>294.5</ele>
        <time>2025-10-24T09:22:37.000Z</time>
      </trkpt>
      <trkpt lat="43.56585" lon="6.77698">
        <ele>294.5</ele>
        <time>2025-10-24T09:22:38.000Z</time>
      </trkpt>
      <trkpt lat="43.56585" lon="6.77698">
        <ele>294.5</ele>
        <time>2025-10-24T09:22:39.000Z</time>
      </trkpt>
      <trkpt lat="43.56585" lon="6.77698">
        <ele>294.4</ele>
        <time>2025-10-24T09:22:40.000Z</time>
      </trkpt>
      <trkpt lat="43.56585" lon="6.77698">
        <ele>294.4</ele>
        <time>2025-10-24T09:22:41.000Z</time>
      </trkpt>
      <trkpt lat="43.56585" lon="6.77699">
        <ele>294.4</ele>
        <time>2025-10-24T09:22:42.000Z</time>
      </trkpt>
      <trkpt lat="43.56585" lon="6.77699">
        <ele>294.4</ele>
        <time>2025-10-24T09:22:43.000Z</time>
      </trkpt>
      <trkpt lat="43.56585" lon="6.77699">
        <ele>294.3</ele>
        <time>2025-10-24T09:22:44.000Z</time>
      </trkpt>
      <trkpt lat="43.56585" lon="6.77699">
        <ele>294.3</ele>
        <time>2025-10-24T09:22:45.000Z</time>
      </trkpt>
      <trkpt lat="43.56585" lon="6.77699">
        <ele>294.3</ele>
        <time>2025-10-24T09:22:46.000Z</time>
      </trkpt>
      <trkpt lat="43.56585" lon="6.77699">
        <ele>294.3</ele>
        <time>2025-10-24T09:22:47.000Z</time>
      </trkpt>
      <trkpt lat="43.56585" lon="6.777">
        <ele>294.2</ele>
        <time>2025-10-24T09:22:48.000Z</time>
      </trkpt>
      <trkpt lat="43.56585" lon="6.777">
        <ele>294.2</ele>
        <time>2025-10-24T09:22:49.000Z</time>
      </trkpt>
      <trkpt lat="43.56585" lon="6.777">
        <ele>294.2</ele>
        <time>2025-10-24T09:22:50.000Z</time>
      </trkpt>
      <trkpt lat="43.56585" lon="6.777">
        <ele>294.2</ele>
        <time>2025-10-24T09:22:51.000Z</time>
      </trkpt>
      <trkpt lat="43.56585" lon="6.777">
        <ele>294.1</ele>
        <time>2025-10-24T09:22:52.000Z</time>
      </trkpt>
      <trkpt lat="43.56585" lon="6.77701">
        <ele>294.1</ele>
        <time>2025-10-24T09:22:53.000Z</time>
      </trkpt>
      <trkpt lat="43.56585" lon="6.77701">
        <ele>294.1</ele>
        <time>2025-10-24T09:22:54.000Z</time>
      </trkpt>
      <trkpt lat="43.56585" lon="6.77701">
        <ele>294.1</ele>
        <time>2025-10-24T09:22:55.000Z</time>
      </trkpt>
      <trkpt lat="43.56584" lon="6.77701">
        <ele>294</ele>
        <time>2025-10-24T09:22:56.000Z</time>
      </trkpt>
      <trkpt lat="43.56584" lon="6.77701">
        <ele>294</ele>
        <time>2025-10-24T09:22:57.000Z</time>
      </trkpt>
      <trkpt lat="43.56584" lon="6.77702">
        <ele>294</ele>
        <time>2025-10-24T09:22:58.000Z</time>
      </trkpt>
      <trkpt lat="43.56584" lon="6.77702">
        <ele>294</ele>
        <time>2025-10-24T09:22:59.000Z</time>
      </trkpt>
      <trkpt lat="43.56584" lon="6.77702">
        <ele>293.9</ele>
        <time>2025-10-24T09:23:00.000Z</time>
      </trkpt>
      <trkpt lat="43.56584" lon="6.77702">
        <ele>293.9</ele>
        <time>2025-10-24T09:23:01.000Z</time>
      </trkpt>
      <trkpt lat="43.56584" lon="6.77702">
        <ele>293.9</ele>
        <time>2025-10-24T09:23:02.000Z</time>
      </trkpt>
      <trkpt lat="43.56584" lon="6.77703">
        <ele>293.8</ele>
        <time>2025-10-24T09:23:03.000Z</time>
      </trkpt>
      <trkpt lat="43.56584" lon="6.77703">
        <ele>293.8</ele>
        <time>2025-10-24T09:23:04.000Z</time>
      </trkpt>
      <trkpt lat="43.56584" lon="6.77703">
        <ele>293.8</ele>
        <time>2025-10-24T09:23:05.000Z</time>
      </trkpt>
      <trkpt lat="43.56584" lon="6.77703">
        <ele>293.8</ele>
        <time>2025-10-24T09:23:06.000Z</time>
      </trkpt>
      <trkpt lat="43.56584" lon="6.77703">
        <ele>293.8</ele>
        <time>2025-10-24T09:23:07.000Z</time>
      </trkpt>
      <trkpt lat="43.56584" lon="6.77703">
        <ele>293.7</ele>
        <time>2025-10-24T09:23:08.000Z</time>
      </trkpt>
      <trkpt lat="43.56584" lon="6.77704">
        <ele>293.7</ele>
        <time>2025-10-24T09:23:09.000Z</time>
      </trkpt>
      <trkpt lat="43.56584" lon="6.77704">
        <ele>293.7</ele>
        <time>2025-10-24T09:23:10.000Z</time>
      </trkpt>
      <trkpt lat="43.56584" lon="6.77704">
        <ele>293.6</ele>
        <time>2025-10-24T09:23:11.000Z</time>
      </trkpt>
      <trkpt lat="43.56584" lon="6.77704">
        <ele>293.6</ele>
        <time>2025-10-24T09:23:12.000Z</time>
      </trkpt>
      <trkpt lat="43.56584" lon="6.77704">
        <ele>293.6</ele>
        <time>2025-10-24T09:23:13.000Z</time>
      </trkpt>
      <trkpt lat="43.56584" lon="6.77705">
        <ele>293.6</ele>
        <time>2025-10-24T09:23:14.000Z</time>
      </trkpt>
      <trkpt lat="43.56584" lon="6.77705">
        <ele>293.5</ele>
        <time>2025-10-24T09:23:15.000Z</time>
      </trkpt>
      <trkpt lat="43.56584" lon="6.77705">
        <ele>293.5</ele>
        <time>2025-10-24T09:23:16.000Z</time>
      </trkpt>
      <trkpt lat="43.56584" lon="6.77705">
        <ele>293.5</ele>
        <time>2025-10-24T09:23:17.000Z</time>
      </trkpt>
      <trkpt lat="43.56583" lon="6.77705">
        <ele>293.5</ele>
        <time>2025-10-24T09:23:18.000Z</time>
      </trkpt>
      <trkpt lat="43.56583" lon="6.77706">
        <ele>293.4</ele>
        <time>2025-10-24T09:23:19.000Z</time>
      </trkpt>
      <trkpt lat="43.56583" lon="6.77706">
        <ele>293.4</ele>
        <time>2025-10-24T09:23:20.000Z</time>
      </trkpt>
      <trkpt lat="43.56583" lon="6.77706">
        <ele>293.4</ele>
        <time>2025-10-24T09:23:21.000Z</time>
      </trkpt>
      <trkpt lat="43.56583" lon="6.77706">
        <ele>293.3</ele>
        <time>2025-10-24T09:23:22.000Z</time>
      </trkpt>
      <trkpt lat="43.56583" lon="6.77706">
        <ele>293.3</ele>
        <time>2025-10-24T09:23:23.000Z</time>
      </trkpt>
      <trkpt lat="43.56583" lon="6.77707">
        <ele>293.3</ele>
        <time>2025-10-24T09:23:24.000Z</time>
      </trkpt>
      <trkpt lat="43.56583" lon="6.77707">
        <ele>293.3</ele>
        <time>2025-10-24T09:23:25.000Z</time>
      </trkpt>
      <trkpt lat="43.56583" lon="6.77707">
        <ele>293.2</ele>
        <time>2025-10-24T09:23:26.000Z</time>
      </trkpt>
      <trkpt lat="43.56583" lon="6.77707">
        <ele>293.2</ele>
        <time>2025-10-24T09:23:27.000Z</time>
      </trkpt>
      <trkpt lat="43.56583" lon="6.77707">
        <ele>293.2</ele>
        <time>2025-10-24T09:23:28.000Z</time>
      </trkpt>
      <trkpt lat="43.56583" lon="6.77707">
        <ele>293.1</ele>
        <time>2025-10-24T09:23:29.000Z</time>
      </trkpt>
      <trkpt lat="43.56583" lon="6.77708">
        <ele>293.1</ele>
        <time>2025-10-24T09:23:30.000Z</time>
      </trkpt>
      <trkpt lat="43.56583" lon="6.77708">
        <ele>293.1</ele>
        <time>2025-10-24T09:23:31.000Z</time>
      </trkpt>
      <trkpt lat="43.56583" lon="6.77708">
        <ele>293.1</ele>
        <time>2025-10-24T09:23:32.000Z</time>
      </trkpt>
      <trkpt lat="43.56583" lon="6.77708">
        <ele>293</ele>
        <time>2025-10-24T09:23:33.000Z</time>
      </trkpt>
      <trkpt lat="43.56583" lon="6.77708">
        <ele>293</ele>
        <time>2025-10-24T09:23:34.000Z</time>
      </trkpt>
      <trkpt lat="43.56583" lon="6.77709">
        <ele>293</ele>
        <time>2025-10-24T09:23:35.000Z</time>
      </trkpt>
      <trkpt lat="43.56583" lon="6.77709">
        <ele>292.9</ele>
        <time>2025-10-24T09:23:36.000Z</time>
      </trkpt>
      <trkpt lat="43.56583" lon="6.77709">
        <ele>292.9</ele>
        <time>2025-10-24T09:23:37.000Z</time>
      </trkpt>
      <trkpt lat="43.56583" lon="6.77709">
        <ele>292.9</ele>
        <time>2025-10-24T09:23:38.000Z</time>
      </trkpt>
      <trkpt lat="43.56583" lon="6.77709">
        <ele>292.9</ele>
        <time>2025-10-24T09:23:39.000Z</time>
      </trkpt>
      <trkpt lat="43.56582" lon="6.7771">
        <ele>292.8</ele>
        <time>2025-10-24T09:23:40.000Z</time>
      </trkpt>
      <trkpt lat="43.56582" lon="6.7771">
        <ele>292.8</ele>
        <time>2025-10-24T09:23:41.000Z</time>
      </trkpt>
      <trkpt lat="43.56582" lon="6.7771">
        <ele>292.8</ele>
        <time>2025-10-24T09:23:42.000Z</time>
      </trkpt>
      <trkpt lat="43.56582" lon="6.7771">
        <ele>292.8</ele>
        <time>2025-10-24T09:23:43.000Z</time>
      </trkpt>
      <trkpt lat="43.56582" lon="6.7771">
        <ele>292.7</ele>
        <time>2025-10-24T09:23:44.000Z</time>
      </trkpt>
      <trkpt lat="43.56582" lon="6.77711">
        <ele>292.7</ele>
        <time>2025-10-24T09:23:45.000Z</time>
      </trkpt>
      <trkpt lat="43.56582" lon="6.77711">
        <ele>292.7</ele>
        <time>2025-10-24T09:23:46.000Z</time>
      </trkpt>
      <trkpt lat="43.56582" lon="6.77711">
        <ele>292.6</ele>
        <time>2025-10-24T09:23:47.000Z</time>
      </trkpt>
      <trkpt lat="43.56582" lon="6.77711">
        <ele>292.6</ele>
        <time>2025-10-24T09:23:48.000Z</time>
      </trkpt>
      <trkpt lat="43.56582" lon="6.77711">
        <ele>292.6</ele>
        <time>2025-10-24T09:23:49.000Z</time>
      </trkpt>
      <trkpt lat="43.56582" lon="6.77712">
        <ele>292.5</ele>
        <time>2025-10-24T09:23:50.000Z</time>
      </trkpt>
      <trkpt lat="43.56582" lon="6.77712">
        <ele>292.5</ele>
        <time>2025-10-24T09:23:51.000Z</time>
      </trkpt>
      <trkpt lat="43.56582" lon="6.77712">
        <ele>292.5</ele>
        <time>2025-10-24T09:23:52.000Z</time>
      </trkpt>
      <trkpt lat="43.56582" lon="6.77712">
        <ele>292.5</ele>
        <time>2025-10-24T09:23:53.000Z</time>
      </trkpt>
      <trkpt lat="43.56582" lon="6.77712">
        <ele>292.4</ele>
        <time>2025-10-24T09:23:54.000Z</time>
      </trkpt>
      <trkpt lat="43.56582" lon="6.77712">
        <ele>292.4</ele>
        <time>2025-10-24T09:23:55.000Z</time>
      </trkpt>
      <trkpt lat="43.56582" lon="6.77713">
        <ele>292.4</ele>
        <time>2025-10-24T09:23:56.000Z</time>
      </trkpt>
      <trkpt lat="43.56582" lon="6.77713">
        <ele>292.4</ele>
        <time>2025-10-24T09:23:57.000Z</time>
      </trkpt>
      <trkpt lat="43.56582" lon="6.77713">
        <ele>292.3</ele>
        <time>2025-10-24T09:23:58.000Z</time>
      </trkpt>
      <trkpt lat="43.56582" lon="6.77713">
        <ele>292.3</ele>
        <time>2025-10-24T09:23:59.000Z</time>
      </trkpt>
      <trkpt lat="43.56582" lon="6.77713">
        <ele>292.3</ele>
        <time>2025-10-24T09:24:00.000Z</time>
      </trkpt>
      <trkpt lat="43.56581" lon="6.77714">
        <ele>292.2</ele>
        <time>2025-10-24T09:24:01.000Z</time>
      </trkpt>
      <trkpt lat="43.56581" lon="6.77714">
        <ele>292.2</ele>
        <time>2025-10-24T09:24:02.000Z</time>
      </trkpt>
      <trkpt lat="43.56581" lon="6.77714">
        <ele>292.2</ele>
        <time>2025-10-24T09:24:03.000Z</time>
      </trkpt>
      <trkpt lat="43.56581" lon="6.77714">
        <ele>292.2</ele>
        <time>2025-10-24T09:24:04.000Z</time>
      </trkpt>
      <trkpt lat="43.56581" lon="6.77714">
        <ele>292.1</ele>
        <time>2025-10-24T09:24:05.000Z</time>
      </trkpt>
      <trkpt lat="43.56581" lon="6.77715">
        <ele>292.1</ele>
        <time>2025-10-24T09:24:06.000Z</time>
      </trkpt>
      <trkpt lat="43.56581" lon="6.77715">
        <ele>292.1</ele>
        <time>2025-10-24T09:24:07.000Z</time>
      </trkpt>
      <trkpt lat="43.56581" lon="6.77715">
        <ele>292</ele>
        <time>2025-10-24T09:24:08.000Z</time>
      </trkpt>
      <trkpt lat="43.56581" lon="6.77715">
        <ele>292</ele>
        <time>2025-10-24T09:24:09.000Z</time>
      </trkpt>
      <trkpt lat="43.56581" lon="6.77715">
        <ele>292</ele>
        <time>2025-10-24T09:24:10.000Z</time>
      </trkpt>
      <trkpt lat="43.56581" lon="6.77716">
        <ele>292</ele>
        <time>2025-10-24T09:24:11.000Z</time>
      </trkpt>
      <trkpt lat="43.56581" lon="6.77716">
        <ele>291.9</ele>
        <time>2025-10-24T09:24:12.000Z</time>
      </trkpt>
      <trkpt lat="43.56581" lon="6.77716">
        <ele>291.9</ele>
        <time>2025-10-24T09:24:13.000Z</time>
      </trkpt>
      <trkpt lat="43.56581" lon="6.77716">
        <ele>291.9</ele>
        <time>2025-10-24T09:24:14.000Z</time>
      </trkpt>
      <trkpt lat="43.56581" lon="6.77716">
        <ele>291.8</ele>
        <time>2025-10-24T09:24:15.000Z</time>
      </trkpt>
      <trkpt lat="43.56581" lon="6.77716">
        <ele>291.8</ele>
        <time>2025-10-24T09:24:16.000Z</time>
      </trkpt>
      <trkpt lat="43.56581" lon="6.77717">
        <ele>291.8</ele>
        <time>2025-10-24T09:24:17.000Z</time>
      </trkpt>
      <trkpt lat="43.56581" lon="6.77717">
        <ele>291.8</ele>
        <time>2025-10-24T09:24:18.000Z</time>
      </trkpt>
      <trkpt lat="43.56581" lon="6.77717">
        <ele>291.7</ele>
        <time>2025-10-24T09:24:19.000Z</time>
      </trkpt>
      <trkpt lat="43.56581" lon="6.77717">
        <ele>291.7</ele>
        <time>2025-10-24T09:24:20.000Z</time>
      </trkpt>
      <trkpt lat="43.56581" lon="6.77717">
        <ele>291.7</ele>
        <time>2025-10-24T09:24:21.000Z</time>
      </trkpt>
      <trkpt lat="43.56581" lon="6.77718">
        <ele>291.6</ele>
        <time>2025-10-24T09:24:22.000Z</time>
      </trkpt>
      <trkpt lat="43.5658" lon="6.77718">
        <ele>291.6</ele>
        <time>2025-10-24T09:24:23.000Z</time>
      </trkpt>
      <trkpt lat="43.5658" lon="6.77718">
        <ele>291.6</ele>
        <time>2025-10-24T09:24:24.000Z</time>
      </trkpt>
      <trkpt lat="43.5658" lon="6.77718">
        <ele>291.6</ele>
        <time>2025-10-24T09:24:25.000Z</time>
      </trkpt>
      <trkpt lat="43.5658" lon="6.77718">
        <ele>291.5</ele>
        <time>2025-10-24T09:24:26.000Z</time>
      </trkpt>
      <trkpt lat="43.5658" lon="6.77719">
        <ele>291.5</ele>
        <time>2025-10-24T09:24:27.000Z</time>
      </trkpt>
      <trkpt lat="43.5658" lon="6.77719">
        <ele>291.5</ele>
        <time>2025-10-24T09:24:28.000Z</time>
      </trkpt>
      <trkpt lat="43.5658" lon="6.77719">
        <ele>291.4</ele>
        <time>2025-10-24T09:24:29.000Z</time>
      </trkpt>
      <trkpt lat="43.5658" lon="6.77719">
        <ele>291.4</ele>
        <time>2025-10-24T09:24:30.000Z</time>
      </trkpt>
      <trkpt lat="43.5658" lon="6.77719">
        <ele>291.4</ele>
        <time>2025-10-24T09:24:31.000Z</time>
      </trkpt>
      <trkpt lat="43.5658" lon="6.7772">
        <ele>291.4</ele>
        <time>2025-10-24T09:24:32.000Z</time>
      </trkpt>
      <trkpt lat="43.5658" lon="6.7772">
        <ele>291.3</ele>
        <time>2025-10-24T09:24:33.000Z</time>
      </trkpt>
      <trkpt lat="43.5658" lon="6.7772">
        <ele>291.3</ele>
        <time>2025-10-24T09:24:34.000Z</time>
      </trkpt>
      <trkpt lat="43.5658" lon="6.7772">
        <ele>291.3</ele>
        <time>2025-10-24T09:24:35.000Z</time>
      </trkpt>
      <trkpt lat="43.5658" lon="6.7772">
        <ele>291.3</ele>
        <time>2025-10-24T09:24:36.000Z</time>
      </trkpt>
      <trkpt lat="43.5658" lon="6.7772">
        <ele>291.2</ele>
        <time>2025-10-24T09:24:37.000Z</time>
      </trkpt>
      <trkpt lat="43.5658" lon="6.77721">
        <ele>291.2</ele>
        <time>2025-10-24T09:24:38.000Z</time>
      </trkpt>
      <trkpt lat="43.5658" lon="6.77721">
        <ele>291.2</ele>
        <time>2025-10-24T09:24:39.000Z</time>
      </trkpt>
      <trkpt lat="43.5658" lon="6.77721">
        <ele>291.1</ele>
        <time>2025-10-24T09:24:40.000Z</time>
      </trkpt>
      <trkpt lat="43.5658" lon="6.77721">
        <ele>291.1</ele>
        <time>2025-10-24T09:24:41.000Z</time>
      </trkpt>
      <trkpt lat="43.5658" lon="6.77721">
        <ele>291.1</ele>
        <time>2025-10-24T09:24:42.000Z</time>
      </trkpt>
      <trkpt lat="43.5658" lon="6.77722">
        <ele>291.1</ele>
        <time>2025-10-24T09:24:43.000Z</time>
      </trkpt>
      <trkpt lat="43.56579" lon="6.77722">
        <ele>291</ele>
        <time>2025-10-24T09:24:44.000Z</time>
      </trkpt>
      <trkpt lat="43.56579" lon="6.77722">
        <ele>291</ele>
        <time>2025-10-24T09:24:45.000Z</time>
      </trkpt>
      <trkpt lat="43.56579" lon="6.77722">
        <ele>291</ele>
        <time>2025-10-24T09:24:46.000Z</time>
      </trkpt>
      <trkpt lat="43.56579" lon="6.77722">
        <ele>290.9</ele>
        <time>2025-10-24T09:24:47.000Z</time>
      </trkpt>
      <trkpt lat="43.56579" lon="6.77723">
        <ele>290.9</ele>
        <time>2025-10-24T09:24:48.000Z</time>
      </trkpt>
      <trkpt lat="43.56579" lon="6.77723">
        <ele>290.9</ele>
        <time>2025-10-24T09:24:49.000Z</time>
      </trkpt>
      <trkpt lat="43.56579" lon="6.77723">
        <ele>290.9</ele>
        <time>2025-10-24T09:24:50.000Z</time>
      </trkpt>
      <trkpt lat="43.56579" lon="6.77723">
        <ele>290.8</ele>
        <time>2025-10-24T09:24:51.000Z</time>
      </trkpt>
      <trkpt lat="43.56579" lon="6.77723">
        <ele>290.8</ele>
        <time>2025-10-24T09:24:52.000Z</time>
      </trkpt>
      <trkpt lat="43.56579" lon="6.77724">
        <ele>290.8</ele>
        <time>2025-10-24T09:24:53.000Z</time>
      </trkpt>
      <trkpt lat="43.56579" lon="6.77724">
        <ele>290.7</ele>
        <time>2025-10-24T09:24:54.000Z</time>
      </trkpt>
      <trkpt lat="43.56579" lon="6.77724">
        <ele>290.7</ele>
        <time>2025-10-24T09:24:55.000Z</time>
      </trkpt>
      <trkpt lat="43.56579" lon="6.77724">
        <ele>290.7</ele>
        <time>2025-10-24T09:24:56.000Z</time>
      </trkpt>
      <trkpt lat="43.56579" lon="6.77724">
        <ele>290.7</ele>
        <time>2025-10-24T09:24:57.000Z</time>
      </trkpt>
      <trkpt lat="43.56579" lon="6.77725">
        <ele>290.6</ele>
        <time>2025-10-24T09:24:58.000Z</time>
      </trkpt>
      <trkpt lat="43.56579" lon="6.77725">
        <ele>290.6</ele>
        <time>2025-10-24T09:24:59.000Z</time>
      </trkpt>
      <trkpt lat="43.56579" lon="6.77725">
        <ele>290.6</ele>
        <time>2025-10-24T09:25:00.000Z</time>
      </trkpt>
      <trkpt lat="43.56579" lon="6.77725">
        <ele>290.5</ele>
        <time>2025-10-24T09:25:01.000Z</time>
      </trkpt>
      <trkpt lat="43.56579" lon="6.77725">
        <ele>290.5</ele>
        <time>2025-10-24T09:25:02.000Z</time>
      </trkpt>
      <trkpt lat="43.56579" lon="6.77725">
        <ele>290.5</ele>
        <time>2025-10-24T09:25:03.000Z</time>
      </trkpt>
      <trkpt lat="43.56579" lon="6.77726">
        <ele>290.5</ele>
        <time>2025-10-24T09:25:04.000Z</time>
      </trkpt>
      <trkpt lat="43.56579" lon="6.77726">
        <ele>290.4</ele>
        <time>2025-10-24T09:25:05.000Z</time>
      </trkpt>
      <trkpt lat="43.56578" lon="6.77726">
        <ele>290.4</ele>
        <time>2025-10-24T09:25:06.000Z</time>
      </trkpt>
      <trkpt lat="43.56578" lon="6.77726">
        <ele>290.4</ele>
        <time>2025-10-24T09:25:07.000Z</time>
      </trkpt>
      <trkpt lat="43.56578" lon="6.77726">
        <ele>290.3</ele>
        <time>2025-10-24T09:25:08.000Z</time>
      </trkpt>
      <trkpt lat="43.56578" lon="6.77727">
        <ele>290.3</ele>
        <time>2025-10-24T09:25:09.000Z</time>
      </trkpt>
      <trkpt lat="43.56578" lon="6.77727">
        <ele>290.3</ele>
        <time>2025-10-24T09:25:10.000Z</time>
      </trkpt>
      <trkpt lat="43.56578" lon="6.77727">
        <ele>290.3</ele>
        <time>2025-10-24T09:25:11.000Z</time>
      </trkpt>
      <trkpt lat="43.56578" lon="6.77727">
        <ele>290.2</ele>
        <time>2025-10-24T09:25:12.000Z</time>
      </trkpt>
      <trkpt lat="43.56578" lon="6.77727">
        <ele>290.2</ele>
        <time>2025-10-24T09:25:13.000Z</time>
      </trkpt>
      <trkpt lat="43.56578" lon="6.77728">
        <ele>290.2</ele>
        <time>2025-10-24T09:25:14.000Z</time>
      </trkpt>
      <trkpt lat="43.56578" lon="6.77728">
        <ele>290.2</ele>
        <time>2025-10-24T09:25:15.000Z</time>
      </trkpt>
      <trkpt lat="43.56577" lon="6.77734">
        <ele>289.4</ele>
        <time>2025-10-24T09:25:16.000Z</time>
      </trkpt>
      <trkpt lat="43.56575" lon="6.7774">
        <ele>288.5</ele>
        <time>2025-10-24T09:25:17.000Z</time>
      </trkpt>
      <trkpt lat="43.56573" lon="6.77746">
        <ele>287.6</ele>
        <time>2025-10-24T09:25:18.000Z</time>
      </trkpt>
      <trkpt lat="43.56571" lon="6.77752">
        <ele>286.8</ele>
        <time>2025-10-24T09:25:19.000Z</time>
      </trkpt>
      <trkpt lat="43.56568" lon="6.77758">
        <ele>285.8</ele>
        <time>2025-10-24T09:25:20.000Z</time>
      </trkpt>
      <trkpt lat="43.56564" lon="6.77764">
        <ele>284.9</ele>
        <time>2025-10-24T09:25:21.000Z</time>
      </trkpt>
      <trkpt lat="43.56561" lon="6.77769">
        <ele>284.1</ele>
        <time>2025-10-24T09:25:22.000Z</time>
      </trkpt>
      <trkpt lat="43.56558" lon="6.77774">
        <ele>283.3</ele>
        <time>2025-10-24T09:25:23.000Z</time>
      </trkpt>
      <trkpt lat="43.56554" lon="6.77778">
        <ele>282.6</ele>
        <time>2025-10-24T09:25:24.000Z</time>
      </trkpt>
      <trkpt lat="43.5655" lon="6.77781">
        <ele>281.9</ele>
        <time>2025-10-24T09:25:25.000Z</time>
      </trkpt>
      <trkpt lat="43.56546" lon="6.77784">
        <ele>281.1</ele>
        <time>2025-10-24T09:25:26.000Z</time>
      </trkpt>
      <trkpt lat="43.56541" lon="6.77787">
        <ele>280.3</ele>
        <time>2025-10-24T09:25:27.000Z</time>
      </trkpt>
      <trkpt lat="43.56536" lon="6.7779">
        <ele>279.6</ele>
        <time>2025-10-24T09:25:28.000Z</time>
      </trkpt>
      <trkpt lat="43.56532" lon="6.77792">
        <ele>279</ele>
        <time>2025-10-24T09:25:29.000Z</time>
      </trkpt>
      <trkpt lat="43.56528" lon="6.77794">
        <ele>278.4</ele>
        <time>2025-10-24T09:25:30.000Z</time>
      </trkpt>
      <trkpt lat="43.56523" lon="6.77795">
        <ele>277.8</ele>
        <time>2025-10-24T09:25:31.000Z</time>
      </trkpt>
      <trkpt lat="43.56518" lon="6.77796">
        <ele>277.2</ele>
        <time>2025-10-24T09:25:32.000Z</time>
      </trkpt>
      <trkpt lat="43.56514" lon="6.77796">
        <ele>276.6</ele>
        <time>2025-10-24T09:25:33.000Z</time>
      </trkpt>
      <trkpt lat="43.56509" lon="6.77796">
        <ele>276</ele>
        <time>2025-10-24T09:25:34.000Z</time>
      </trkpt>
      <trkpt lat="43.56504" lon="6.77795">
        <ele>275.4</ele>
        <time>2025-10-24T09:25:35.000Z</time>
      </trkpt>
      <trkpt lat="43.56499" lon="6.77795">
        <ele>274.7</ele>
        <time>2025-10-24T09:25:36.000Z</time>
      </trkpt>
      <trkpt lat="43.56495" lon="6.77795">
        <ele>274.1</ele>
        <time>2025-10-24T09:25:37.000Z</time>
      </trkpt>
      <trkpt lat="43.5649" lon="6.77796">
        <ele>273.4</ele>
        <time>2025-10-24T09:25:38.000Z</time>
      </trkpt>
      <trkpt lat="43.56487" lon="6.77798">
        <ele>272.9</ele>
        <time>2025-10-24T09:25:39.000Z</time>
      </trkpt>
      <trkpt lat="43.56482" lon="6.77801">
        <ele>272.1</ele>
        <time>2025-10-24T09:25:40.000Z</time>
      </trkpt>
      <trkpt lat="43.56478" lon="6.77804">
        <ele>271.5</ele>
        <time>2025-10-24T09:25:41.000Z</time>
      </trkpt>
      <trkpt lat="43.56475" lon="6.77808">
        <ele>270.9</ele>
        <time>2025-10-24T09:25:42.000Z</time>
      </trkpt>
      <trkpt lat="43.56472" lon="6.77812">
        <ele>270.2</ele>
        <time>2025-10-24T09:25:43.000Z</time>
      </trkpt>
      <trkpt lat="43.56469" lon="6.77817">
        <ele>269.6</ele>
        <time>2025-10-24T09:25:44.000Z</time>
      </trkpt>
      <trkpt lat="43.56466" lon="6.77822">
        <ele>268.9</ele>
        <time>2025-10-24T09:25:45.000Z</time>
      </trkpt>
      <trkpt lat="43.56464" lon="6.77825">
        <ele>268.4</ele>
        <time>2025-10-24T09:25:46.000Z</time>
      </trkpt>
      <trkpt lat="43.56463" lon="6.77829">
        <ele>268</ele>
        <time>2025-10-24T09:25:47.000Z</time>
      </trkpt>
      <trkpt lat="43.56462" lon="6.77834">
        <ele>267.5</ele>
        <time>2025-10-24T09:25:48.000Z</time>
      </trkpt>
      <trkpt lat="43.56461" lon="6.77839">
        <ele>266.9</ele>
        <time>2025-10-24T09:25:49.000Z</time>
      </trkpt>
      <trkpt lat="43.5646" lon="6.77844">
        <ele>266.3</ele>
        <time>2025-10-24T09:25:50.000Z</time>
      </trkpt>
      <trkpt lat="43.5646" lon="6.77849">
        <ele>265.7</ele>
        <time>2025-10-24T09:25:51.000Z</time>
      </trkpt>
      <trkpt lat="43.56459" lon="6.77854">
        <ele>265.1</ele>
        <time>2025-10-24T09:25:52.000Z</time>
      </trkpt>
      <trkpt lat="43.56459" lon="6.7786">
        <ele>264.5</ele>
        <time>2025-10-24T09:25:53.000Z</time>
      </trkpt>
      <trkpt lat="43.56459" lon="6.77865">
        <ele>263.8</ele>
        <time>2025-10-24T09:25:54.000Z</time>
      </trkpt>
      <trkpt lat="43.56458" lon="6.77871">
        <ele>263</ele>
        <time>2025-10-24T09:25:55.000Z</time>
      </trkpt>
      <trkpt lat="43.56458" lon="6.77876">
        <ele>262.3</ele>
        <time>2025-10-24T09:25:56.000Z</time>
      </trkpt>
      <trkpt lat="43.56457" lon="6.7788">
        <ele>261.7</ele>
        <time>2025-10-24T09:25:57.000Z</time>
      </trkpt>
      <trkpt lat="43.56455" lon="6.77884">
        <ele>261.2</ele>
        <time>2025-10-24T09:25:58.000Z</time>
      </trkpt>
      <trkpt lat="43.56454" lon="6.77887">
        <ele>260.6</ele>
        <time>2025-10-24T09:25:59.000Z</time>
      </trkpt>
      <trkpt lat="43.56452" lon="6.77889">
        <ele>260</ele>
        <time>2025-10-24T09:26:00.000Z</time>
      </trkpt>
      <trkpt lat="43.5645" lon="6.77892">
        <ele>259.4</ele>
        <time>2025-10-24T09:26:01.000Z</time>
      </trkpt>
      <trkpt lat="43.56449" lon="6.77895">
        <ele>259</ele>
        <time>2025-10-24T09:26:02.000Z</time>
      </trkpt>
      <trkpt lat="43.56448" lon="6.77897">
        <ele>258.6</ele>
        <time>2025-10-24T09:26:03.000Z</time>
      </trkpt>
      <trkpt lat="43.56447" lon="6.77899">
        <ele>258.2</ele>
        <time>2025-10-24T09:26:04.000Z</time>
      </trkpt>
      <trkpt lat="43.56446" lon="6.77901">
        <ele>257.7</ele>
        <time>2025-10-24T09:26:05.000Z</time>
      </trkpt>
      <trkpt lat="43.56446" lon="6.77905">
        <ele>257.1</ele>
        <time>2025-10-24T09:26:06.000Z</time>
      </trkpt>
      <trkpt lat="43.56445" lon="6.77908">
        <ele>256.4</ele>
        <time>2025-10-24T09:26:07.000Z</time>
      </trkpt>
      <trkpt lat="43.56444" lon="6.77911">
        <ele>255.9</ele>
        <time>2025-10-24T09:26:08.000Z</time>
      </trkpt>
      <trkpt lat="43.56443" lon="6.77916">
        <ele>255</ele>
        <time>2025-10-24T09:26:09.000Z</time>
      </trkpt>
      <trkpt lat="43.56441" lon="6.7792">
        <ele>254.2</ele>
        <time>2025-10-24T09:26:10.000Z</time>
      </trkpt>
      <trkpt lat="43.5644" lon="6.77923">
        <ele>253.5</ele>
        <time>2025-10-24T09:26:11.000Z</time>
      </trkpt>
      <trkpt lat="43.56438" lon="6.77926">
        <ele>252.8</ele>
        <time>2025-10-24T09:26:12.000Z</time>
      </trkpt>
      <trkpt lat="43.56436" lon="6.77929">
        <ele>252.1</ele>
        <time>2025-10-24T09:26:13.000Z</time>
      </trkpt>
      <trkpt lat="43.56434" lon="6.77931">
        <ele>251.4</ele>
        <time>2025-10-24T09:26:14.000Z</time>
      </trkpt>
      <trkpt lat="43.56432" lon="6.77934">
        <ele>250.7</ele>
        <time>2025-10-24T09:26:15.000Z</time>
      </trkpt>
      <trkpt lat="43.5643" lon="6.77937">
        <ele>250</ele>
        <time>2025-10-24T09:26:16.000Z</time>
      </trkpt>
      <trkpt lat="43.56428" lon="6.7794">
        <ele>249.4</ele>
        <time>2025-10-24T09:26:17.000Z</time>
      </trkpt>
      <trkpt lat="43.56426" lon="6.77943">
        <ele>248.4</ele>
        <time>2025-10-24T09:26:18.000Z</time>
      </trkpt>
      <trkpt lat="43.56423" lon="6.77946">
        <ele>247.6</ele>
        <time>2025-10-24T09:26:19.000Z</time>
      </trkpt>
      <trkpt lat="43.56421" lon="6.77949">
        <ele>246.9</ele>
        <time>2025-10-24T09:26:20.000Z</time>
      </trkpt>
      <trkpt lat="43.5642" lon="6.77951">
        <ele>246.5</ele>
        <time>2025-10-24T09:26:21.000Z</time>
      </trkpt>
      <trkpt lat="43.5642" lon="6.77953">
        <ele>246.2</ele>
        <time>2025-10-24T09:26:22.000Z</time>
      </trkpt>
      <trkpt lat="43.56419" lon="6.77953">
        <ele>246.1</ele>
        <time>2025-10-24T09:26:23.000Z</time>
      </trkpt>
      <trkpt lat="43.56419" lon="6.77954">
        <ele>245.8</ele>
        <time>2025-10-24T09:26:24.000Z</time>
      </trkpt>
      <trkpt lat="43.56419" lon="6.77955">
        <ele>245.6</ele>
        <time>2025-10-24T09:26:25.000Z</time>
      </trkpt>
      <trkpt lat="43.56419" lon="6.77957">
        <ele>245.4</ele>
        <time>2025-10-24T09:26:26.000Z</time>
      </trkpt>
      <trkpt lat="43.56418" lon="6.77958">
        <ele>245.2</ele>
        <time>2025-10-24T09:26:27.000Z</time>
      </trkpt>
      <trkpt lat="43.56418" lon="6.77959">
        <ele>245</ele>
        <time>2025-10-24T09:26:28.000Z</time>
      </trkpt>
      <trkpt lat="43.56418" lon="6.7796">
        <ele>244.8</ele>
        <time>2025-10-24T09:26:29.000Z</time>
      </trkpt>
      <trkpt lat="43.56418" lon="6.77961">
        <ele>244.6</ele>
        <time>2025-10-24T09:26:30.000Z</time>
      </trkpt>
      <trkpt lat="43.56417" lon="6.77962">
        <ele>244.4</ele>
        <time>2025-10-24T09:26:31.000Z</time>
      </trkpt>
      <trkpt lat="43.56417" lon="6.77963">
        <ele>244.2</ele>
        <time>2025-10-24T09:26:32.000Z</time>
      </trkpt>
      <trkpt lat="43.56417" lon="6.77964">
        <ele>244</ele>
        <time>2025-10-24T09:26:33.000Z</time>
      </trkpt>
      <trkpt lat="43.56416" lon="6.77965">
        <ele>243.8</ele>
        <time>2025-10-24T09:26:34.000Z</time>
      </trkpt>
      <trkpt lat="43.56416" lon="6.77966">
        <ele>243.6</ele>
        <time>2025-10-24T09:26:35.000Z</time>
      </trkpt>
      <trkpt lat="43.56416" lon="6.77967">
        <ele>243.4</ele>
        <time>2025-10-24T09:26:36.000Z</time>
      </trkpt>
      <trkpt lat="43.56416" lon="6.77969">
        <ele>243.2</ele>
        <time>2025-10-24T09:26:37.000Z</time>
      </trkpt>
      <trkpt lat="43.56415" lon="6.7797">
        <ele>243</ele>
        <time>2025-10-24T09:26:38.000Z</time>
      </trkpt>
      <trkpt lat="43.56415" lon="6.77971">
        <ele>242.8</ele>
        <time>2025-10-24T09:26:39.000Z</time>
      </trkpt>
      <trkpt lat="43.56415" lon="6.77972">
        <ele>242.6</ele>
        <time>2025-10-24T09:26:40.000Z</time>
      </trkpt>
      <trkpt lat="43.56414" lon="6.77973">
        <ele>242.4</ele>
        <time>2025-10-24T09:26:41.000Z</time>
      </trkpt>
      <trkpt lat="43.56414" lon="6.77974">
        <ele>242.2</ele>
        <time>2025-10-24T09:26:42.000Z</time>
      </trkpt>
      <trkpt lat="43.56414" lon="6.77975">
        <ele>242</ele>
        <time>2025-10-24T09:26:43.000Z</time>
      </trkpt>
      <trkpt lat="43.56414" lon="6.77976">
        <ele>241.8</ele>
        <time>2025-10-24T09:26:44.000Z</time>
      </trkpt>
      <trkpt lat="43.56413" lon="6.77977">
        <ele>241.6</ele>
        <time>2025-10-24T09:26:45.000Z</time>
      </trkpt>
      <trkpt lat="43.56413" lon="6.77978">
        <ele>241.4</ele>
        <time>2025-10-24T09:26:46.000Z</time>
      </trkpt>
      <trkpt lat="43.56413" lon="6.7798">
        <ele>241.2</ele>
        <time>2025-10-24T09:26:47.000Z</time>
      </trkpt>
      <trkpt lat="43.56413" lon="6.77981">
        <ele>241</ele>
        <time>2025-10-24T09:26:48.000Z</time>
      </trkpt>
      <trkpt lat="43.56412" lon="6.77982">
        <ele>240.8</ele>
        <time>2025-10-24T09:26:49.000Z</time>
      </trkpt>
      <trkpt lat="43.56412" lon="6.77983">
        <ele>240.6</ele>
        <time>2025-10-24T09:26:50.000Z</time>
      </trkpt>
      <trkpt lat="43.56412" lon="6.77984">
        <ele>240.4</ele>
        <time>2025-10-24T09:26:51.000Z</time>
      </trkpt>
      <trkpt lat="43.56411" lon="6.77985">
        <ele>240.2</ele>
        <time>2025-10-24T09:26:52.000Z</time>
      </trkpt>
      <trkpt lat="43.56411" lon="6.77986">
        <ele>240.1</ele>
        <time>2025-10-24T09:26:53.000Z</time>
      </trkpt>
      <trkpt lat="43.56411" lon="6.77987">
        <ele>239.9</ele>
        <time>2025-10-24T09:26:54.000Z</time>
      </trkpt>
      <trkpt lat="43.56411" lon="6.77988">
        <ele>239.7</ele>
        <time>2025-10-24T09:26:55.000Z</time>
      </trkpt>
      <trkpt lat="43.56409" lon="6.77995">
        <ele>238.7</ele>
        <time>2025-10-24T09:26:56.000Z</time>
      </trkpt>
      <trkpt lat="43.56408" lon="6.78002">
        <ele>237.7</ele>
        <time>2025-10-24T09:26:57.000Z</time>
      </trkpt>
      <trkpt lat="43.56407" lon="6.78009">
        <ele>236.8</ele>
        <time>2025-10-24T09:26:58.000Z</time>
      </trkpt>
      <trkpt lat="43.56405" lon="6.78016">
        <ele>235.9</ele>
        <time>2025-10-24T09:26:59.000Z</time>
      </trkpt>
      <trkpt lat="43.56404" lon="6.78023">
        <ele>235.1</ele>
        <time>2025-10-24T09:27:00.000Z</time>
      </trkpt>
      <trkpt lat="43.56402" lon="6.78029">
        <ele>234.4</ele>
        <time>2025-10-24T09:27:01.000Z</time>
      </trkpt>
      <trkpt lat="43.56401" lon="6.78035">
        <ele>233.7</ele>
        <time>2025-10-24T09:27:02.000Z</time>
      </trkpt>
      <trkpt lat="43.56399" lon="6.78041">
        <ele>233.1</ele>
        <time>2025-10-24T09:27:03.000Z</time>
      </trkpt>
      <trkpt lat="43.56398" lon="6.78047">
        <ele>232.5</ele>
        <time>2025-10-24T09:27:04.000Z</time>
      </trkpt>
      <trkpt lat="43.56397" lon="6.78052">
        <ele>231.8</ele>
        <time>2025-10-24T09:27:05.000Z</time>
      </trkpt>
      <trkpt lat="43.56396" lon="6.78058">
        <ele>231.2</ele>
        <time>2025-10-24T09:27:06.000Z</time>
      </trkpt>
      <trkpt lat="43.56395" lon="6.78063">
        <ele>230.4</ele>
        <time>2025-10-24T09:27:07.000Z</time>
      </trkpt>
      <trkpt lat="43.56394" lon="6.78069">
        <ele>229.7</ele>
        <time>2025-10-24T09:27:08.000Z</time>
      </trkpt>
      <trkpt lat="43.56392" lon="6.78074">
        <ele>228.8</ele>
        <time>2025-10-24T09:27:09.000Z</time>
      </trkpt>
      <trkpt lat="43.56391" lon="6.7808">
        <ele>228</ele>
        <time>2025-10-24T09:27:10.000Z</time>
      </trkpt>
      <trkpt lat="43.56389" lon="6.78085">
        <ele>227.1</ele>
        <time>2025-10-24T09:27:11.000Z</time>
      </trkpt>
      <trkpt lat="43.56387" lon="6.7809">
        <ele>226.2</ele>
        <time>2025-10-24T09:27:12.000Z</time>
      </trkpt>
      <trkpt lat="43.56385" lon="6.78095">
        <ele>225.2</ele>
        <time>2025-10-24T09:27:13.000Z</time>
      </trkpt>
      <trkpt lat="43.56383" lon="6.78101">
        <ele>224.2</ele>
        <time>2025-10-24T09:27:14.000Z</time>
      </trkpt>
      <trkpt lat="43.56382" lon="6.78106">
        <ele>223.3</ele>
        <time>2025-10-24T09:27:15.000Z</time>
      </trkpt>
      <trkpt lat="43.5638" lon="6.78112">
        <ele>222.3</ele>
        <time>2025-10-24T09:27:16.000Z</time>
      </trkpt>
      <trkpt lat="43.5638" lon="6.78118">
        <ele>221.3</ele>
        <time>2025-10-24T09:27:17.000Z</time>
      </trkpt>
      <trkpt lat="43.56379" lon="6.78122">
        <ele>220.7</ele>
        <time>2025-10-24T09:27:18.000Z</time>
      </trkpt>
      <trkpt lat="43.56379" lon="6.78128">
        <ele>219.8</ele>
        <time>2025-10-24T09:27:19.000Z</time>
      </trkpt>
      <trkpt lat="43.56379" lon="6.78131">
        <ele>219.2</ele>
        <time>2025-10-24T09:27:20.000Z</time>
      </trkpt>
      <trkpt lat="43.56379" lon="6.78135">
        <ele>218.6</ele>
        <time>2025-10-24T09:27:21.000Z</time>
      </trkpt>
      <trkpt lat="43.56378" lon="6.7814">
        <ele>217.8</ele>
        <time>2025-10-24T09:27:22.000Z</time>
      </trkpt>
      <trkpt lat="43.56378" lon="6.78146">
        <ele>216.9</ele>
        <time>2025-10-24T09:27:23.000Z</time>
      </trkpt>
      <trkpt lat="43.5638" lon="6.78152">
        <ele>216</ele>
        <time>2025-10-24T09:27:24.000Z</time>
      </trkpt>
      <trkpt lat="43.56382" lon="6.78157">
        <ele>215.1</ele>
        <time>2025-10-24T09:27:25.000Z</time>
      </trkpt>
      <trkpt lat="43.56386" lon="6.78159">
        <ele>214.4</ele>
        <time>2025-10-24T09:27:26.000Z</time>
      </trkpt>
      <trkpt lat="43.56389" lon="6.78159">
        <ele>213.9</ele>
        <time>2025-10-24T09:27:27.000Z</time>
      </trkpt>
      <trkpt lat="43.56393" lon="6.78158">
        <ele>213.3</ele>
        <time>2025-10-24T09:27:28.000Z</time>
      </trkpt>
      <trkpt lat="43.56398" lon="6.78156">
        <ele>212.6</ele>
        <time>2025-10-24T09:27:29.000Z</time>
      </trkpt>
      <trkpt lat="43.56402" lon="6.78154">
        <ele>212.1</ele>
        <time>2025-10-24T09:27:30.000Z</time>
      </trkpt>
      <trkpt lat="43.56406" lon="6.78152">
        <ele>211.6</ele>
        <time>2025-10-24T09:27:31.000Z</time>
      </trkpt>
      <trkpt lat="43.56411" lon="6.78149">
        <ele>211.1</ele>
        <time>2025-10-24T09:27:32.000Z</time>
      </trkpt>
      <trkpt lat="43.56414" lon="6.78146">
        <ele>210.6</ele>
        <time>2025-10-24T09:27:33.000Z</time>
      </trkpt>
      <trkpt lat="43.5642" lon="6.78142">
        <ele>209.9</ele>
        <time>2025-10-24T09:27:34.000Z</time>
      </trkpt>
      <trkpt lat="43.56424" lon="6.7814">
        <ele>209.4</ele>
        <time>2025-10-24T09:27:35.000Z</time>
      </trkpt>
      <trkpt lat="43.56429" lon="6.78139">
        <ele>208.8</ele>
        <time>2025-10-24T09:27:36.000Z</time>
      </trkpt>
      <trkpt lat="43.56432" lon="6.78141">
        <ele>208.4</ele>
        <time>2025-10-24T09:27:37.000Z</time>
      </trkpt>
      <trkpt lat="43.56434" lon="6.78143">
        <ele>208.1</ele>
        <time>2025-10-24T09:27:38.000Z</time>
      </trkpt>
      <trkpt lat="43.56435" lon="6.78147">
        <ele>207.9</ele>
        <time>2025-10-24T09:27:39.000Z</time>
      </trkpt>
      <trkpt lat="43.56435" lon="6.78152">
        <ele>207.6</ele>
        <time>2025-10-24T09:27:40.000Z</time>
      </trkpt>
      <trkpt lat="43.56435" lon="6.78157">
        <ele>207.3</ele>
        <time>2025-10-24T09:27:41.000Z</time>
      </trkpt>
      <trkpt lat="43.56435" lon="6.78162">
        <ele>207.1</ele>
        <time>2025-10-24T09:27:42.000Z</time>
      </trkpt>
      <trkpt lat="43.56435" lon="6.78168">
        <ele>206.8</ele>
        <time>2025-10-24T09:27:43.000Z</time>
      </trkpt>
      <trkpt lat="43.56436" lon="6.78174">
        <ele>206.5</ele>
        <time>2025-10-24T09:27:44.000Z</time>
      </trkpt>
      <trkpt lat="43.56437" lon="6.7818">
        <ele>206.2</ele>
        <time>2025-10-24T09:27:45.000Z</time>
      </trkpt>
      <trkpt lat="43.5644" lon="6.78185">
        <ele>205.9</ele>
        <time>2025-10-24T09:27:46.000Z</time>
      </trkpt>
      <trkpt lat="43.56442" lon="6.78192">
        <ele>205.6</ele>
        <time>2025-10-24T09:27:47.000Z</time>
      </trkpt>
      <trkpt lat="43.56445" lon="6.782">
        <ele>205.4</ele>
        <time>2025-10-24T09:27:48.000Z</time>
      </trkpt>
      <trkpt lat="43.56447" lon="6.78206">
        <ele>205.3</ele>
        <time>2025-10-24T09:27:49.000Z</time>
      </trkpt>
      <trkpt lat="43.56448" lon="6.78212">
        <ele>205.3</ele>
        <time>2025-10-24T09:27:50.000Z</time>
      </trkpt>
      <trkpt lat="43.56449" lon="6.78216">
        <ele>205.2</ele>
        <time>2025-10-24T09:27:51.000Z</time>
      </trkpt>
      <trkpt lat="43.56449" lon="6.78222">
        <ele>205.1</ele>
        <time>2025-10-24T09:27:52.000Z</time>
      </trkpt>
      <trkpt lat="43.5645" lon="6.78227">
        <ele>205</ele>
        <time>2025-10-24T09:27:53.000Z</time>
      </trkpt>
      <trkpt lat="43.5645" lon="6.78233">
        <ele>204.8</ele>
        <time>2025-10-24T09:27:54.000Z</time>
      </trkpt>
      <trkpt lat="43.5645" lon="6.78239">
        <ele>204.5</ele>
        <time>2025-10-24T09:27:55.000Z</time>
      </trkpt>
      <trkpt lat="43.56448" lon="6.78245">
        <ele>204.2</ele>
        <time>2025-10-24T09:27:56.000Z</time>
      </trkpt>
      <trkpt lat="43.56446" lon="6.78252">
        <ele>203.7</ele>
        <time>2025-10-24T09:27:57.000Z</time>
      </trkpt>
      <trkpt lat="43.56444" lon="6.78257">
        <ele>203.4</ele>
        <time>2025-10-24T09:27:58.000Z</time>
      </trkpt>
      <trkpt lat="43.5644" lon="6.78266">
        <ele>202.7</ele>
        <time>2025-10-24T09:27:59.000Z</time>
      </trkpt>
      <trkpt lat="43.56437" lon="6.78273">
        <ele>202.2</ele>
        <time>2025-10-24T09:28:00.000Z</time>
      </trkpt>
      <trkpt lat="43.56433" lon="6.78281">
        <ele>201.6</ele>
        <time>2025-10-24T09:28:01.000Z</time>
      </trkpt>
      <trkpt lat="43.56428" lon="6.78288">
        <ele>201</ele>
        <time>2025-10-24T09:28:02.000Z</time>
      </trkpt>
      <trkpt lat="43.56424" lon="6.78295">
        <ele>200.4</ele>
        <time>2025-10-24T09:28:03.000Z</time>
      </trkpt>
      <trkpt lat="43.56419" lon="6.78302">
        <ele>199.7</ele>
        <time>2025-10-24T09:28:04.000Z</time>
      </trkpt>
      <trkpt lat="43.56414" lon="6.7831">
        <ele>199.1</ele>
        <time>2025-10-24T09:28:05.000Z</time>
      </trkpt>
      <trkpt lat="43.56408" lon="6.78318">
        <ele>198.4</ele>
        <time>2025-10-24T09:28:06.000Z</time>
      </trkpt>
      <trkpt lat="43.56404" lon="6.78324">
        <ele>197.8</ele>
        <time>2025-10-24T09:28:07.000Z</time>
      </trkpt>
      <trkpt lat="43.56397" lon="6.78334">
        <ele>197</ele>
        <time>2025-10-24T09:28:08.000Z</time>
      </trkpt>
      <trkpt lat="43.56392" lon="6.78343">
        <ele>196.3</ele>
        <time>2025-10-24T09:28:09.000Z</time>
      </trkpt>
      <trkpt lat="43.56386" lon="6.78352">
        <ele>195.8</ele>
        <time>2025-10-24T09:28:10.000Z</time>
      </trkpt>
      <trkpt lat="43.56381" lon="6.78361">
        <ele>195.4</ele>
        <time>2025-10-24T09:28:11.000Z</time>
      </trkpt>
      <trkpt lat="43.56377" lon="6.78368">
        <ele>195.2</ele>
        <time>2025-10-24T09:28:12.000Z</time>
      </trkpt>
      <trkpt lat="43.56371" lon="6.78378">
        <ele>194.8</ele>
        <time>2025-10-24T09:28:13.000Z</time>
      </trkpt>
      <trkpt lat="43.56366" lon="6.78386">
        <ele>194.5</ele>
        <time>2025-10-24T09:28:14.000Z</time>
      </trkpt>
      <trkpt lat="43.5636" lon="6.78392">
        <ele>194.2</ele>
        <time>2025-10-24T09:28:15.000Z</time>
      </trkpt>
      <trkpt lat="43.56354" lon="6.78399">
        <ele>193.9</ele>
        <time>2025-10-24T09:28:16.000Z</time>
      </trkpt>
      <trkpt lat="43.5635" lon="6.78405">
        <ele>193.6</ele>
        <time>2025-10-24T09:28:17.000Z</time>
      </trkpt>
      <trkpt lat="43.56346" lon="6.78414">
        <ele>193.2</ele>
        <time>2025-10-24T09:28:18.000Z</time>
      </trkpt>
      <trkpt lat="43.56343" lon="6.78423">
        <ele>192.8</ele>
        <time>2025-10-24T09:28:19.000Z</time>
      </trkpt>
      <trkpt lat="43.56339" lon="6.78431">
        <ele>192.3</ele>
        <time>2025-10-24T09:28:20.000Z</time>
      </trkpt>
      <trkpt lat="43.56337" lon="6.78436">
        <ele>191.8</ele>
        <time>2025-10-24T09:28:21.000Z</time>
      </trkpt>
      <trkpt lat="43.56332" lon="6.78443">
        <ele>191.1</ele>
        <time>2025-10-24T09:28:22.000Z</time>
      </trkpt>
      <trkpt lat="43.56326" lon="6.78449">
        <ele>190.3</ele>
        <time>2025-10-24T09:28:23.000Z</time>
      </trkpt>
      <trkpt lat="43.5632" lon="6.78452">
        <ele>189.5</ele>
        <time>2025-10-24T09:28:24.000Z</time>
      </trkpt>
      <trkpt lat="43.56313" lon="6.78455">
        <ele>188.9</ele>
        <time>2025-10-24T09:28:25.000Z</time>
      </trkpt>
      <trkpt lat="43.56306" lon="6.78458">
        <ele>188.3</ele>
        <time>2025-10-24T09:28:26.000Z</time>
      </trkpt>
      <trkpt lat="43.56299" lon="6.78461">
        <ele>187.9</ele>
        <time>2025-10-24T09:28:27.000Z</time>
      </trkpt>
      <trkpt lat="43.56293" lon="6.78466">
        <ele>187.7</ele>
        <time>2025-10-24T09:28:28.000Z</time>
      </trkpt>
      <trkpt lat="43.56288" lon="6.78472">
        <ele>187.6</ele>
        <time>2025-10-24T09:28:29.000Z</time>
      </trkpt>
      <trkpt lat="43.56283" lon="6.78478">
        <ele>187.7</ele>
        <time>2025-10-24T09:28:30.000Z</time>
      </trkpt>
      <trkpt lat="43.5628" lon="6.78484">
        <ele>187.7</ele>
        <time>2025-10-24T09:28:31.000Z</time>
      </trkpt>
      <trkpt lat="43.56277" lon="6.7849">
        <ele>187.8</ele>
        <time>2025-10-24T09:28:32.000Z</time>
      </trkpt>
      <trkpt lat="43.56273" lon="6.78498">
        <ele>187.8</ele>
        <time>2025-10-24T09:28:33.000Z</time>
      </trkpt>
      <trkpt lat="43.5627" lon="6.78503">
        <ele>187.8</ele>
        <time>2025-10-24T09:28:34.000Z</time>
      </trkpt>
      <trkpt lat="43.56267" lon="6.78509">
        <ele>187.8</ele>
        <time>2025-10-24T09:28:35.000Z</time>
      </trkpt>
      <trkpt lat="43.56265" lon="6.78515">
        <ele>187.7</ele>
        <time>2025-10-24T09:28:36.000Z</time>
      </trkpt>
      <trkpt lat="43.56264" lon="6.78522">
        <ele>187.5</ele>
        <time>2025-10-24T09:28:37.000Z</time>
      </trkpt>
      <trkpt lat="43.56263" lon="6.78529">
        <ele>187.2</ele>
        <time>2025-10-24T09:28:38.000Z</time>
      </trkpt>
      <trkpt lat="43.56261" lon="6.78536">
        <ele>186.8</ele>
        <time>2025-10-24T09:28:39.000Z</time>
      </trkpt>
      <trkpt lat="43.5626" lon="6.78544">
        <ele>186.2</ele>
        <time>2025-10-24T09:28:40.000Z</time>
      </trkpt>
      <trkpt lat="43.56259" lon="6.78551">
        <ele>185.7</ele>
        <time>2025-10-24T09:28:41.000Z</time>
      </trkpt>
      <trkpt lat="43.56257" lon="6.78559">
        <ele>185.1</ele>
        <time>2025-10-24T09:28:42.000Z</time>
      </trkpt>
      <trkpt lat="43.56255" lon="6.78569">
        <ele>184.2</ele>
        <time>2025-10-24T09:28:43.000Z</time>
      </trkpt>
      <trkpt lat="43.56253" lon="6.78579">
        <ele>183.5</ele>
        <time>2025-10-24T09:28:44.000Z</time>
      </trkpt>
      <trkpt lat="43.56252" lon="6.78589">
        <ele>182.7</ele>
        <time>2025-10-24T09:28:45.000Z</time>
      </trkpt>
      <trkpt lat="43.5625" lon="6.78597">
        <ele>182.2</ele>
        <time>2025-10-24T09:28:46.000Z</time>
      </trkpt>
      <trkpt lat="43.56249" lon="6.78607">
        <ele>181.5</ele>
        <time>2025-10-24T09:28:47.000Z</time>
      </trkpt>
      <trkpt lat="43.56246" lon="6.78619">
        <ele>180.8</ele>
        <time>2025-10-24T09:28:48.000Z</time>
      </trkpt>
      <trkpt lat="43.56243" lon="6.78629">
        <ele>180.2</ele>
        <time>2025-10-24T09:28:49.000Z</time>
      </trkpt>
      <trkpt lat="43.56241" lon="6.78637">
        <ele>179.7</ele>
        <time>2025-10-24T09:28:50.000Z</time>
      </trkpt>
      <trkpt lat="43.56238" lon="6.78647">
        <ele>179.1</ele>
        <time>2025-10-24T09:28:51.000Z</time>
      </trkpt>
      <trkpt lat="43.56235" lon="6.78656">
        <ele>178.6</ele>
        <time>2025-10-24T09:28:52.000Z</time>
      </trkpt>
      <trkpt lat="43.56231" lon="6.78666">
        <ele>178</ele>
        <time>2025-10-24T09:28:53.000Z</time>
      </trkpt>
      <trkpt lat="43.56229" lon="6.78674">
        <ele>177.5</ele>
        <time>2025-10-24T09:28:54.000Z</time>
      </trkpt>
      <trkpt lat="43.56227" lon="6.78683">
        <ele>177</ele>
        <time>2025-10-24T09:28:55.000Z</time>
      </trkpt>
      <trkpt lat="43.56226" lon="6.7869">
        <ele>176.6</ele>
        <time>2025-10-24T09:28:56.000Z</time>
      </trkpt>
      <trkpt lat="43.56224" lon="6.78698">
        <ele>176.1</ele>
        <time>2025-10-24T09:28:57.000Z</time>
      </trkpt>
      <trkpt lat="43.56222" lon="6.78709">
        <ele>175.6</ele>
        <time>2025-10-24T09:28:58.000Z</time>
      </trkpt>
      <trkpt lat="43.56221" lon="6.78717">
        <ele>175.2</ele>
        <time>2025-10-24T09:28:59.000Z</time>
      </trkpt>
      <trkpt lat="43.56221" lon="6.78724">
        <ele>174.9</ele>
        <time>2025-10-24T09:29:00.000Z</time>
      </trkpt>
      <trkpt lat="43.56219" lon="6.78732">
        <ele>174.5</ele>
        <time>2025-10-24T09:29:01.000Z</time>
      </trkpt>
      <trkpt lat="43.56217" lon="6.7874">
        <ele>174.1</ele>
        <time>2025-10-24T09:29:02.000Z</time>
      </trkpt>
      <trkpt lat="43.56213" lon="6.78749">
        <ele>173.7</ele>
        <time>2025-10-24T09:29:03.000Z</time>
      </trkpt>
      <trkpt lat="43.56211" lon="6.78757">
        <ele>173.4</ele>
        <time>2025-10-24T09:29:04.000Z</time>
      </trkpt>
      <trkpt lat="43.56209" lon="6.78763">
        <ele>173.2</ele>
        <time>2025-10-24T09:29:05.000Z</time>
      </trkpt>
      <trkpt lat="43.56207" lon="6.78771">
        <ele>173</ele>
        <time>2025-10-24T09:29:06.000Z</time>
      </trkpt>
      <trkpt lat="43.56204" lon="6.78779">
        <ele>172.7</ele>
        <time>2025-10-24T09:29:07.000Z</time>
      </trkpt>
      <trkpt lat="43.56201" lon="6.78788">
        <ele>172.4</ele>
        <time>2025-10-24T09:29:08.000Z</time>
      </trkpt>
      <trkpt lat="43.56198" lon="6.78795">
        <ele>172.1</ele>
        <time>2025-10-24T09:29:09.000Z</time>
      </trkpt>
      <trkpt lat="43.56196" lon="6.78801">
        <ele>171.9</ele>
        <time>2025-10-24T09:29:10.000Z</time>
      </trkpt>
      <trkpt lat="43.56194" lon="6.78809">
        <ele>171.7</ele>
        <time>2025-10-24T09:29:11.000Z</time>
      </trkpt>
      <trkpt lat="43.56193" lon="6.78817">
        <ele>171.4</ele>
        <time>2025-10-24T09:29:12.000Z</time>
      </trkpt>
      <trkpt lat="43.5619" lon="6.78825">
        <ele>171.1</ele>
        <time>2025-10-24T09:29:13.000Z</time>
      </trkpt>
      <trkpt lat="43.56188" lon="6.78835">
        <ele>170.7</ele>
        <time>2025-10-24T09:29:14.000Z</time>
      </trkpt>
      <trkpt lat="43.56187" lon="6.78842">
        <ele>170.5</ele>
        <time>2025-10-24T09:29:15.000Z</time>
      </trkpt>
      <trkpt lat="43.56187" lon="6.78852">
        <ele>170</ele>
        <time>2025-10-24T09:29:16.000Z</time>
      </trkpt>
      <trkpt lat="43.56186" lon="6.78859">
        <ele>169.7</ele>
        <time>2025-10-24T09:29:17.000Z</time>
      </trkpt>
      <trkpt lat="43.56187" lon="6.7887">
        <ele>169.1</ele>
        <time>2025-10-24T09:29:18.000Z</time>
      </trkpt>
      <trkpt lat="43.56187" lon="6.78879">
        <ele>168.7</ele>
        <time>2025-10-24T09:29:19.000Z</time>
      </trkpt>
      <trkpt lat="43.56186" lon="6.78887">
        <ele>168.3</ele>
        <time>2025-10-24T09:29:20.000Z</time>
      </trkpt>
      <trkpt lat="43.56187" lon="6.78897">
        <ele>167.9</ele>
        <time>2025-10-24T09:29:21.000Z</time>
      </trkpt>
      <trkpt lat="43.56187" lon="6.78907">
        <ele>167.4</ele>
        <time>2025-10-24T09:29:22.000Z</time>
      </trkpt>
      <trkpt lat="43.56188" lon="6.78916">
        <ele>167</ele>
        <time>2025-10-24T09:29:23.000Z</time>
      </trkpt>
      <trkpt lat="43.56189" lon="6.78926">
        <ele>166.6</ele>
        <time>2025-10-24T09:29:24.000Z</time>
      </trkpt>
      <trkpt lat="43.5619" lon="6.78934">
        <ele>166.3</ele>
        <time>2025-10-24T09:29:25.000Z</time>
      </trkpt>
      <trkpt lat="43.56192" lon="6.78943">
        <ele>165.8</ele>
        <time>2025-10-24T09:29:26.000Z</time>
      </trkpt>
      <trkpt lat="43.56193" lon="6.78954">
        <ele>165.2</ele>
        <time>2025-10-24T09:29:27.000Z</time>
      </trkpt>
      <trkpt lat="43.56194" lon="6.78962">
        <ele>164.7</ele>
        <time>2025-10-24T09:29:28.000Z</time>
      </trkpt>
      <trkpt lat="43.56196" lon="6.7897">
        <ele>164.1</ele>
        <time>2025-10-24T09:29:29.000Z</time>
      </trkpt>
      <trkpt lat="43.56197" lon="6.78976">
        <ele>163.7</ele>
        <time>2025-10-24T09:29:30.000Z</time>
      </trkpt>
      <trkpt lat="43.56198" lon="6.78984">
        <ele>163.1</ele>
        <time>2025-10-24T09:29:31.000Z</time>
      </trkpt>
      <trkpt lat="43.56198" lon="6.78993">
        <ele>162.4</ele>
        <time>2025-10-24T09:29:32.000Z</time>
      </trkpt>
      <trkpt lat="43.56197" lon="6.79001">
        <ele>161.8</ele>
        <time>2025-10-24T09:29:33.000Z</time>
      </trkpt>
      <trkpt lat="43.56197" lon="6.79009">
        <ele>161.2</ele>
        <time>2025-10-24T09:29:34.000Z</time>
      </trkpt>
      <trkpt lat="43.56197" lon="6.79017">
        <ele>160.7</ele>
        <time>2025-10-24T09:29:35.000Z</time>
      </trkpt>
      <trkpt lat="43.56196" lon="6.79024">
        <ele>160.2</ele>
        <time>2025-10-24T09:29:36.000Z</time>
      </trkpt>
      <trkpt lat="43.56195" lon="6.79033">
        <ele>159.7</ele>
        <time>2025-10-24T09:29:37.000Z</time>
      </trkpt>
      <trkpt lat="43.56193" lon="6.79041">
        <ele>159.3</ele>
        <time>2025-10-24T09:29:38.000Z</time>
      </trkpt>
      <trkpt lat="43.56192" lon="6.79047">
        <ele>158.9</ele>
        <time>2025-10-24T09:29:39.000Z</time>
      </trkpt>
      <trkpt lat="43.5619" lon="6.79052">
        <ele>158.7</ele>
        <time>2025-10-24T09:29:40.000Z</time>
      </trkpt>
      <trkpt lat="43.56187" lon="6.79058">
        <ele>158.4</ele>
        <time>2025-10-24T09:29:41.000Z</time>
      </trkpt>
      <trkpt lat="43.56185" lon="6.79065">
        <ele>158</ele>
        <time>2025-10-24T09:29:42.000Z</time>
      </trkpt>
      <trkpt lat="43.56183" lon="6.79071">
        <ele>157.7</ele>
        <time>2025-10-24T09:29:43.000Z</time>
      </trkpt>
      <trkpt lat="43.56182" lon="6.79077">
        <ele>157.5</ele>
        <time>2025-10-24T09:29:44.000Z</time>
      </trkpt>
      <trkpt lat="43.5618" lon="6.79084">
        <ele>157.2</ele>
        <time>2025-10-24T09:29:45.000Z</time>
      </trkpt>
      <trkpt lat="43.56179" lon="6.79089">
        <ele>157</ele>
        <time>2025-10-24T09:29:46.000Z</time>
      </trkpt>
      <trkpt lat="43.56177" lon="6.79093">
        <ele>156.8</ele>
        <time>2025-10-24T09:29:47.000Z</time>
      </trkpt>
      <trkpt lat="43.56175" lon="6.79096">
        <ele>156.6</ele>
        <time>2025-10-24T09:29:48.000Z</time>
      </trkpt>
      <trkpt lat="43.56172" lon="6.79096">
        <ele>156.5</ele>
        <time>2025-10-24T09:29:49.000Z</time>
      </trkpt>
      <trkpt lat="43.5617" lon="6.79094">
        <ele>156.4</ele>
        <time>2025-10-24T09:29:50.000Z</time>
      </trkpt>
      <trkpt lat="43.56167" lon="6.79092">
        <ele>156.4</ele>
        <time>2025-10-24T09:29:51.000Z</time>
      </trkpt>
      <trkpt lat="43.56164" lon="6.7909">
        <ele>156.4</ele>
        <time>2025-10-24T09:29:52.000Z</time>
      </trkpt>
      <trkpt lat="43.5616" lon="6.79088">
        <ele>156.4</ele>
        <time>2025-10-24T09:29:53.000Z</time>
      </trkpt>
      <trkpt lat="43.56157" lon="6.79085">
        <ele>156.5</ele>
        <time>2025-10-24T09:29:54.000Z</time>
      </trkpt>
      <trkpt lat="43.56154" lon="6.79082">
        <ele>156.5</ele>
        <time>2025-10-24T09:29:55.000Z</time>
      </trkpt>
      <trkpt lat="43.5615" lon="6.79078">
        <ele>156.5</ele>
        <time>2025-10-24T09:29:56.000Z</time>
      </trkpt>
      <trkpt lat="43.56147" lon="6.79073">
        <ele>156.6</ele>
        <time>2025-10-24T09:29:57.000Z</time>
      </trkpt>
      <trkpt lat="43.56145" lon="6.79069">
        <ele>156.7</ele>
        <time>2025-10-24T09:29:58.000Z</time>
      </trkpt>
      <trkpt lat="43.56143" lon="6.79065">
        <ele>156.8</ele>
        <time>2025-10-24T09:29:59.000Z</time>
      </trkpt>
      <trkpt lat="43.56142" lon="6.79062">
        <ele>156.9</ele>
        <time>2025-10-24T09:30:00.000Z</time>
      </trkpt>
      <trkpt lat="43.5614" lon="6.79056">
        <ele>157.1</ele>
        <time>2025-10-24T09:30:01.000Z</time>
      </trkpt>
      <trkpt lat="43.56139" lon="6.79051">
        <ele>157.3</ele>
        <time>2025-10-24T09:30:02.000Z</time>
      </trkpt>
      <trkpt lat="43.56138" lon="6.79045">
        <ele>157.5</ele>
        <time>2025-10-24T09:30:03.000Z</time>
      </trkpt>
      <trkpt lat="43.56138" lon="6.79041">
        <ele>157.8</ele>
        <time>2025-10-24T09:30:04.000Z</time>
      </trkpt>
      <trkpt lat="43.56137" lon="6.79036">
        <ele>158.1</ele>
        <time>2025-10-24T09:30:05.000Z</time>
      </trkpt>
      <trkpt lat="43.56137" lon="6.79031">
        <ele>158.4</ele>
        <time>2025-10-24T09:30:06.000Z</time>
      </trkpt>
      <trkpt lat="43.56136" lon="6.79027">
        <ele>158.7</ele>
        <time>2025-10-24T09:30:07.000Z</time>
      </trkpt>
      <trkpt lat="43.56136" lon="6.79023">
        <ele>159</ele>
        <time>2025-10-24T09:30:08.000Z</time>
      </trkpt>
      <trkpt lat="43.56135" lon="6.7902">
        <ele>159.3</ele>
        <time>2025-10-24T09:30:09.000Z</time>
      </trkpt>
      <trkpt lat="43.56134" lon="6.79015">
        <ele>159.6</ele>
        <time>2025-10-24T09:30:10.000Z</time>
      </trkpt>
      <trkpt lat="43.56134" lon="6.79011">
        <ele>159.9</ele>
        <time>2025-10-24T09:30:11.000Z</time>
      </trkpt>
      <trkpt lat="43.56133" lon="6.79007">
        <ele>160.2</ele>
        <time>2025-10-24T09:30:12.000Z</time>
      </trkpt>
      <trkpt lat="43.56133" lon="6.79003">
        <ele>160.4</ele>
        <time>2025-10-24T09:30:13.000Z</time>
      </trkpt>
      <trkpt lat="43.56132" lon="6.78999">
        <ele>160.6</ele>
        <time>2025-10-24T09:30:14.000Z</time>
      </trkpt>
      <trkpt lat="43.56132" lon="6.78995">
        <ele>160.8</ele>
        <time>2025-10-24T09:30:15.000Z</time>
      </trkpt>
      <trkpt lat="43.5613" lon="6.78992">
        <ele>161</ele>
        <time>2025-10-24T09:30:16.000Z</time>
      </trkpt>
      <trkpt lat="43.56129" lon="6.78991">
        <ele>161.1</ele>
        <time>2025-10-24T09:30:17.000Z</time>
      </trkpt>
      <trkpt lat="43.56128" lon="6.78991">
        <ele>161.1</ele>
        <time>2025-10-24T09:30:18.000Z</time>
      </trkpt>
      <trkpt lat="43.56127" lon="6.78993">
        <ele>161.2</ele>
        <time>2025-10-24T09:30:19.000Z</time>
      </trkpt>
      <trkpt lat="43.56127" lon="6.78996">
        <ele>161.1</ele>
        <time>2025-10-24T09:30:20.000Z</time>
      </trkpt>
      <trkpt lat="43.56129" lon="6.78999">
        <ele>160.9</ele>
        <time>2025-10-24T09:30:21.000Z</time>
      </trkpt>
      <trkpt lat="43.5613" lon="6.79003">
        <ele>160.7</ele>
        <time>2025-10-24T09:30:22.000Z</time>
      </trkpt>
      <trkpt lat="43.56132" lon="6.79007">
        <ele>160.4</ele>
        <time>2025-10-24T09:30:23.000Z</time>
      </trkpt>
      <trkpt lat="43.56133" lon="6.79014">
        <ele>160</ele>
        <time>2025-10-24T09:30:24.000Z</time>
      </trkpt>
      <trkpt lat="43.56135" lon="6.79021">
        <ele>159.4</ele>
        <time>2025-10-24T09:30:25.000Z</time>
      </trkpt>
      <trkpt lat="43.56136" lon="6.79029">
        <ele>158.8</ele>
        <time>2025-10-24T09:30:26.000Z</time>
      </trkpt>
      <trkpt lat="43.56137" lon="6.79037">
        <ele>158.2</ele>
        <time>2025-10-24T09:30:27.000Z</time>
      </trkpt>
      <trkpt lat="43.56138" lon="6.79046">
        <ele>157.6</ele>
        <time>2025-10-24T09:30:28.000Z</time>
      </trkpt>
      <trkpt lat="43.56141" lon="6.79054">
        <ele>157.2</ele>
        <time>2025-10-24T09:30:29.000Z</time>
      </trkpt>
      <trkpt lat="43.56144" lon="6.79062">
        <ele>156.8</ele>
        <time>2025-10-24T09:30:30.000Z</time>
      </trkpt>
      <trkpt lat="43.56149" lon="6.79069">
        <ele>156.6</ele>
        <time>2025-10-24T09:30:31.000Z</time>
      </trkpt>
      <trkpt lat="43.56154" lon="6.79074">
        <ele>156.5</ele>
        <time>2025-10-24T09:30:32.000Z</time>
      </trkpt>
      <trkpt lat="43.56159" lon="6.79079">
        <ele>156.5</ele>
        <time>2025-10-24T09:30:33.000Z</time>
      </trkpt>
      <trkpt lat="43.56164" lon="6.79084">
        <ele>156.4</ele>
        <time>2025-10-24T09:30:34.000Z</time>
      </trkpt>
      <trkpt lat="43.56168" lon="6.79087">
        <ele>156.4</ele>
        <time>2025-10-24T09:30:35.000Z</time>
      </trkpt>
      <trkpt lat="43.56171" lon="6.7909">
        <ele>156.4</ele>
        <time>2025-10-24T09:30:36.000Z</time>
      </trkpt>
      <trkpt lat="43.56174" lon="6.79092">
        <ele>156.4</ele>
        <time>2025-10-24T09:30:37.000Z</time>
      </trkpt>
      <trkpt lat="43.56175" lon="6.79094">
        <ele>156.5</ele>
        <time>2025-10-24T09:30:38.000Z</time>
      </trkpt>
      <trkpt lat="43.56176" lon="6.79097">
        <ele>156.5</ele>
        <time>2025-10-24T09:30:39.000Z</time>
      </trkpt>
      <trkpt lat="43.56177" lon="6.79099">
        <ele>156.5</ele>
        <time>2025-10-24T09:30:40.000Z</time>
      </trkpt>
      <trkpt lat="43.56177" lon="6.79099">
        <ele>156.5</ele>
        <time>2025-10-24T09:30:41.000Z</time>
      </trkpt>
      <trkpt lat="43.56177" lon="6.791">
        <ele>156.5</ele>
        <time>2025-10-24T09:30:42.000Z</time>
      </trkpt>
      <trkpt lat="43.56177" lon="6.791">
        <ele>156.5</ele>
        <time>2025-10-24T09:30:43.000Z</time>
      </trkpt>
      <trkpt lat="43.56177" lon="6.791">
        <ele>156.5</ele>
        <time>2025-10-24T09:30:44.000Z</time>
      </trkpt>
      <trkpt lat="43.56177" lon="6.79101">
        <ele>156.5</ele>
        <time>2025-10-24T09:30:45.000Z</time>
      </trkpt>
      <trkpt lat="43.56177" lon="6.79102">
        <ele>156.6</ele>
        <time>2025-10-24T09:30:46.000Z</time>
      </trkpt>
      <trkpt lat="43.56177" lon="6.79105">
        <ele>156.6</ele>
        <time>2025-10-24T09:30:47.000Z</time>
      </trkpt>
      <trkpt lat="43.56177" lon="6.79108">
        <ele>156.6</ele>
        <time>2025-10-24T09:30:48.000Z</time>
      </trkpt>
      <trkpt lat="43.56176" lon="6.79112">
        <ele>156.7</ele>
        <time>2025-10-24T09:30:49.000Z</time>
      </trkpt>
      <trkpt lat="43.56176" lon="6.79117">
        <ele>156.8</ele>
        <time>2025-10-24T09:30:50.000Z</time>
      </trkpt>
      <trkpt lat="43.56175" lon="6.79121">
        <ele>157</ele>
        <time>2025-10-24T09:30:51.000Z</time>
      </trkpt>
      <trkpt lat="43.56174" lon="6.79126">
        <ele>157.2</ele>
        <time>2025-10-24T09:30:52.000Z</time>
      </trkpt>
      <trkpt lat="43.56172" lon="6.7913">
        <ele>157.4</ele>
        <time>2025-10-24T09:30:53.000Z</time>
      </trkpt>
      <trkpt lat="43.56171" lon="6.79134">
        <ele>157.6</ele>
        <time>2025-10-24T09:30:54.000Z</time>
      </trkpt>
      <trkpt lat="43.5617" lon="6.79138">
        <ele>157.8</ele>
        <time>2025-10-24T09:30:55.000Z</time>
      </trkpt>
      <trkpt lat="43.56169" lon="6.79143">
        <ele>158</ele>
        <time>2025-10-24T09:30:56.000Z</time>
      </trkpt>
      <trkpt lat="43.56168" lon="6.79147">
        <ele>158.2</ele>
        <time>2025-10-24T09:30:57.000Z</time>
      </trkpt>
      <trkpt lat="43.56166" lon="6.79151">
        <ele>158.3</ele>
        <time>2025-10-24T09:30:58.000Z</time>
      </trkpt>
      <trkpt lat="43.56164" lon="6.79155">
        <ele>158.4</ele>
        <time>2025-10-24T09:30:59.000Z</time>
      </trkpt>
      <trkpt lat="43.56162" lon="6.79159">
        <ele>158.5</ele>
        <time>2025-10-24T09:31:00.000Z</time>
      </trkpt>
      <trkpt lat="43.5616" lon="6.79163">
        <ele>158.6</ele>
        <time>2025-10-24T09:31:01.000Z</time>
      </trkpt>
      <trkpt lat="43.56157" lon="6.79167">
        <ele>158.6</ele>
        <time>2025-10-24T09:31:02.000Z</time>
      </trkpt>
      <trkpt lat="43.56154" lon="6.79171">
        <ele>158.6</ele>
        <time>2025-10-24T09:31:03.000Z</time>
      </trkpt>
      <trkpt lat="43.56152" lon="6.79176">
        <ele>158.6</ele>
        <time>2025-10-24T09:31:04.000Z</time>
      </trkpt>
      <trkpt lat="43.56149" lon="6.79182">
        <ele>158.5</ele>
        <time>2025-10-24T09:31:05.000Z</time>
      </trkpt>
      <trkpt lat="43.56147" lon="6.79187">
        <ele>158.4</ele>
        <time>2025-10-24T09:31:06.000Z</time>
      </trkpt>
      <trkpt lat="43.56145" lon="6.79192">
        <ele>158.2</ele>
        <time>2025-10-24T09:31:07.000Z</time>
      </trkpt>
      <trkpt lat="43.56144" lon="6.79198">
        <ele>157.9</ele>
        <time>2025-10-24T09:31:08.000Z</time>
      </trkpt>
      <trkpt lat="43.56143" lon="6.79203">
        <ele>157.6</ele>
        <time>2025-10-24T09:31:09.000Z</time>
      </trkpt>
      <trkpt lat="43.56142" lon="6.79209">
        <ele>157.3</ele>
        <time>2025-10-24T09:31:10.000Z</time>
      </trkpt>
      <trkpt lat="43.56141" lon="6.79215">
        <ele>157</ele>
        <time>2025-10-24T09:31:11.000Z</time>
      </trkpt>
      <trkpt lat="43.56139" lon="6.7922">
        <ele>156.5</ele>
        <time>2025-10-24T09:31:12.000Z</time>
      </trkpt>
      <trkpt lat="43.56137" lon="6.79225">
        <ele>156.1</ele>
        <time>2025-10-24T09:31:13.000Z</time>
      </trkpt>
      <trkpt lat="43.56134" lon="6.7923">
        <ele>155.7</ele>
        <time>2025-10-24T09:31:14.000Z</time>
      </trkpt>
      <trkpt lat="43.5613" lon="6.79235">
        <ele>155.3</ele>
        <time>2025-10-24T09:31:15.000Z</time>
      </trkpt>
      <trkpt lat="43.56127" lon="6.7924">
        <ele>155</ele>
        <time>2025-10-24T09:31:16.000Z</time>
      </trkpt>
      <trkpt lat="43.56123" lon="6.79245">
        <ele>154.6</ele>
        <time>2025-10-24T09:31:17.000Z</time>
      </trkpt>
      <trkpt lat="43.56119" lon="6.79249">
        <ele>154.3</ele>
        <time>2025-10-24T09:31:18.000Z</time>
      </trkpt>
      <trkpt lat="43.56115" lon="6.79253">
        <ele>154</ele>
        <time>2025-10-24T09:31:19.000Z</time>
      </trkpt>
      <trkpt lat="43.56111" lon="6.79258">
        <ele>153.6</ele>
        <time>2025-10-24T09:31:20.000Z</time>
      </trkpt>
      <trkpt lat="43.56108" lon="6.79262">
        <ele>153.2</ele>
        <time>2025-10-24T09:31:21.000Z</time>
      </trkpt>
      <trkpt lat="43.56105" lon="6.79264">
        <ele>153</ele>
        <time>2025-10-24T09:31:22.000Z</time>
      </trkpt>
      <trkpt lat="43.56104" lon="6.79265">
        <ele>152.9</ele>
        <time>2025-10-24T09:31:23.000Z</time>
      </trkpt>
      <trkpt lat="43.56103" lon="6.79265">
        <ele>152.9</ele>
        <time>2025-10-24T09:31:24.000Z</time>
      </trkpt>
      <trkpt lat="43.56103" lon="6.79264">
        <ele>152.9</ele>
        <time>2025-10-24T09:31:25.000Z</time>
      </trkpt>
      <trkpt lat="43.56103" lon="6.79263">
        <ele>152.9</ele>
        <time>2025-10-24T09:31:26.000Z</time>
      </trkpt>
      <trkpt lat="43.56103" lon="6.79263">
        <ele>152.9</ele>
        <time>2025-10-24T09:31:27.000Z</time>
      </trkpt>
      <trkpt lat="43.56103" lon="6.79262">
        <ele>152.9</ele>
        <time>2025-10-24T09:31:28.000Z</time>
      </trkpt>
      <trkpt lat="43.56103" lon="6.79261">
        <ele>152.9</ele>
        <time>2025-10-24T09:31:29.000Z</time>
      </trkpt>
      <trkpt lat="43.56103" lon="6.79259">
        <ele>152.9</ele>
        <time>2025-10-24T09:31:30.000Z</time>
      </trkpt>
      <trkpt lat="43.56103" lon="6.79256">
        <ele>152.9</ele>
        <time>2025-10-24T09:31:31.000Z</time>
      </trkpt>
      <trkpt lat="43.56103" lon="6.79252">
        <ele>152.9</ele>
        <time>2025-10-24T09:31:32.000Z</time>
      </trkpt>
      <trkpt lat="43.56103" lon="6.79248">
        <ele>152.9</ele>
        <time>2025-10-24T09:31:33.000Z</time>
      </trkpt>
      <trkpt lat="43.56104" lon="6.79243">
        <ele>152.9</ele>
        <time>2025-10-24T09:31:34.000Z</time>
      </trkpt>
      <trkpt lat="43.56103" lon="6.79237">
        <ele>152.8</ele>
        <time>2025-10-24T09:31:35.000Z</time>
      </trkpt>
      <trkpt lat="43.56102" lon="6.79231">
        <ele>152.6</ele>
        <time>2025-10-24T09:31:36.000Z</time>
      </trkpt>
      <trkpt lat="43.56101" lon="6.79225">
        <ele>152.5</ele>
        <time>2025-10-24T09:31:37.000Z</time>
      </trkpt>
      <trkpt lat="43.561" lon="6.79219">
        <ele>152.3</ele>
        <time>2025-10-24T09:31:38.000Z</time>
      </trkpt>
      <trkpt lat="43.56099" lon="6.79212">
        <ele>152.2</ele>
        <time>2025-10-24T09:31:39.000Z</time>
      </trkpt>
      <trkpt lat="43.56098" lon="6.79207">
        <ele>152.2</ele>
        <time>2025-10-24T09:31:40.000Z</time>
      </trkpt>
      <trkpt lat="43.56099" lon="6.79199">
        <ele>152.2</ele>
        <time>2025-10-24T09:31:41.000Z</time>
      </trkpt>
      <trkpt lat="43.56099" lon="6.79193">
        <ele>152.3</ele>
        <time>2025-10-24T09:31:42.000Z</time>
      </trkpt>
      <trkpt lat="43.56101" lon="6.79187">
        <ele>152.5</ele>
        <time>2025-10-24T09:31:43.000Z</time>
      </trkpt>
      <trkpt lat="43.56102" lon="6.79181">
        <ele>152.7</ele>
        <time>2025-10-24T09:31:44.000Z</time>
      </trkpt>
      <trkpt lat="43.56103" lon="6.79175">
        <ele>153.1</ele>
        <time>2025-10-24T09:31:45.000Z</time>
      </trkpt>
      <trkpt lat="43.56104" lon="6.79169">
        <ele>153.6</ele>
        <time>2025-10-24T09:31:46.000Z</time>
      </trkpt>
      <trkpt lat="43.56105" lon="6.79163">
        <ele>154.1</ele>
        <time>2025-10-24T09:31:47.000Z</time>
      </trkpt>
      <trkpt lat="43.56105" lon="6.79157">
        <ele>154.6</ele>
        <time>2025-10-24T09:31:48.000Z</time>
      </trkpt>
      <trkpt lat="43.56105" lon="6.79152">
        <ele>155.2</ele>
        <time>2025-10-24T09:31:49.000Z</time>
      </trkpt>
      <trkpt lat="43.56105" lon="6.79148">
        <ele>155.6</ele>
        <time>2025-10-24T09:31:50.000Z</time>
      </trkpt>
      <trkpt lat="43.56103" lon="6.79142">
        <ele>156.2</ele>
        <time>2025-10-24T09:31:51.000Z</time>
      </trkpt>
      <trkpt lat="43.56102" lon="6.79137">
        <ele>156.7</ele>
        <time>2025-10-24T09:31:52.000Z</time>
      </trkpt>
      <trkpt lat="43.56101" lon="6.79132">
        <ele>157.2</ele>
        <time>2025-10-24T09:31:53.000Z</time>
      </trkpt>
      <trkpt lat="43.561" lon="6.79127">
        <ele>157.6</ele>
        <time>2025-10-24T09:31:54.000Z</time>
      </trkpt>
      <trkpt lat="43.56099" lon="6.79122">
        <ele>157.9</ele>
        <time>2025-10-24T09:31:55.000Z</time>
      </trkpt>
      <trkpt lat="43.56098" lon="6.79118">
        <ele>158.3</ele>
        <time>2025-10-24T09:31:56.000Z</time>
      </trkpt>
      <trkpt lat="43.56096" lon="6.79113">
        <ele>158.5</ele>
        <time>2025-10-24T09:31:57.000Z</time>
      </trkpt>
      <trkpt lat="43.56095" lon="6.79109">
        <ele>158.7</ele>
        <time>2025-10-24T09:31:58.000Z</time>
      </trkpt>
      <trkpt lat="43.56093" lon="6.79104">
        <ele>158.8</ele>
        <time>2025-10-24T09:31:59.000Z</time>
      </trkpt>
      <trkpt lat="43.56092" lon="6.79098">
        <ele>158.9</ele>
        <time>2025-10-24T09:32:00.000Z</time>
      </trkpt>
      <trkpt lat="43.5609" lon="6.79093">
        <ele>159</ele>
        <time>2025-10-24T09:32:01.000Z</time>
      </trkpt>
      <trkpt lat="43.5609" lon="6.79087">
        <ele>159</ele>
        <time>2025-10-24T09:32:02.000Z</time>
      </trkpt>
      <trkpt lat="43.56089" lon="6.7908">
        <ele>159.1</ele>
        <time>2025-10-24T09:32:03.000Z</time>
      </trkpt>
      <trkpt lat="43.56088" lon="6.79073">
        <ele>159.2</ele>
        <time>2025-10-24T09:32:04.000Z</time>
      </trkpt>
      <trkpt lat="43.56087" lon="6.79066">
        <ele>159.3</ele>
        <time>2025-10-24T09:32:05.000Z</time>
      </trkpt>
      <trkpt lat="43.56086" lon="6.79059">
        <ele>159.4</ele>
        <time>2025-10-24T09:32:06.000Z</time>
      </trkpt>
      <trkpt lat="43.56085" lon="6.79051">
        <ele>159.6</ele>
        <time>2025-10-24T09:32:07.000Z</time>
      </trkpt>
      <trkpt lat="43.56085" lon="6.79044">
        <ele>159.7</ele>
        <time>2025-10-24T09:32:08.000Z</time>
      </trkpt>
      <trkpt lat="43.56084" lon="6.79037">
        <ele>159.9</ele>
        <time>2025-10-24T09:32:09.000Z</time>
      </trkpt>
      <trkpt lat="43.56084" lon="6.7903">
        <ele>160.1</ele>
        <time>2025-10-24T09:32:10.000Z</time>
      </trkpt>
      <trkpt lat="43.56085" lon="6.79023">
        <ele>160.2</ele>
        <time>2025-10-24T09:32:11.000Z</time>
      </trkpt>
      <trkpt lat="43.56085" lon="6.79018">
        <ele>160.3</ele>
        <time>2025-10-24T09:32:12.000Z</time>
      </trkpt>
      <trkpt lat="43.56085" lon="6.79011">
        <ele>160.4</ele>
        <time>2025-10-24T09:32:13.000Z</time>
      </trkpt>
      <trkpt lat="43.56085" lon="6.79003">
        <ele>160.4</ele>
        <time>2025-10-24T09:32:14.000Z</time>
      </trkpt>
      <trkpt lat="43.56085" lon="6.78997">
        <ele>160.2</ele>
        <time>2025-10-24T09:32:15.000Z</time>
      </trkpt>
      <trkpt lat="43.56084" lon="6.78991">
        <ele>160.1</ele>
        <time>2025-10-24T09:32:16.000Z</time>
      </trkpt>
      <trkpt lat="43.56082" lon="6.78986">
        <ele>159.9</ele>
        <time>2025-10-24T09:32:17.000Z</time>
      </trkpt>
      <trkpt lat="43.56081" lon="6.78981">
        <ele>159.7</ele>
        <time>2025-10-24T09:32:18.000Z</time>
      </trkpt>
      <trkpt lat="43.56079" lon="6.78975">
        <ele>159.5</ele>
        <time>2025-10-24T09:32:19.000Z</time>
      </trkpt>
      <trkpt lat="43.56076" lon="6.7897">
        <ele>159.3</ele>
        <time>2025-10-24T09:32:20.000Z</time>
      </trkpt>
      <trkpt lat="43.56075" lon="6.78965">
        <ele>159.2</ele>
        <time>2025-10-24T09:32:21.000Z</time>
      </trkpt>
      <trkpt lat="43.56073" lon="6.7896">
        <ele>159.1</ele>
        <time>2025-10-24T09:32:22.000Z</time>
      </trkpt>
      <trkpt lat="43.5607" lon="6.78955">
        <ele>159.2</ele>
        <time>2025-10-24T09:32:23.000Z</time>
      </trkpt>
      <trkpt lat="43.56067" lon="6.7895">
        <ele>159.3</ele>
        <time>2025-10-24T09:32:24.000Z</time>
      </trkpt>
      <trkpt lat="43.56063" lon="6.78947">
        <ele>159.6</ele>
        <time>2025-10-24T09:32:25.000Z</time>
      </trkpt>
      <trkpt lat="43.56059" lon="6.78944">
        <ele>160.1</ele>
        <time>2025-10-24T09:32:26.000Z</time>
      </trkpt>
      <trkpt lat="43.56056" lon="6.78942">
        <ele>160.5</ele>
        <time>2025-10-24T09:32:27.000Z</time>
      </trkpt>
      <trkpt lat="43.56051" lon="6.78939">
        <ele>161.2</ele>
        <time>2025-10-24T09:32:28.000Z</time>
      </trkpt>
      <trkpt lat="43.56048" lon="6.78936">
        <ele>161.7</ele>
        <time>2025-10-24T09:32:29.000Z</time>
      </trkpt>
      <trkpt lat="43.56045" lon="6.78934">
        <ele>162.2</ele>
        <time>2025-10-24T09:32:30.000Z</time>
      </trkpt>
      <trkpt lat="43.56043" lon="6.78931">
        <ele>162.6</ele>
        <time>2025-10-24T09:32:31.000Z</time>
      </trkpt>
      <trkpt lat="43.56041" lon="6.78928">
        <ele>162.9</ele>
        <time>2025-10-24T09:32:32.000Z</time>
      </trkpt>
      <trkpt lat="43.56039" lon="6.78924">
        <ele>163.2</ele>
        <time>2025-10-24T09:32:33.000Z</time>
      </trkpt>
      <trkpt lat="43.56037" lon="6.78921">
        <ele>163.5</ele>
        <time>2025-10-24T09:32:34.000Z</time>
      </trkpt>
      <trkpt lat="43.56036" lon="6.78917">
        <ele>163.7</ele>
        <time>2025-10-24T09:32:35.000Z</time>
      </trkpt>
      <trkpt lat="43.56034" lon="6.78913">
        <ele>163.8</ele>
        <time>2025-10-24T09:32:36.000Z</time>
      </trkpt>
      <trkpt lat="43.56032" lon="6.78908">
        <ele>164</ele>
        <time>2025-10-24T09:32:37.000Z</time>
      </trkpt>
      <trkpt lat="43.5603" lon="6.78905">
        <ele>163.9</ele>
        <time>2025-10-24T09:32:38.000Z</time>
      </trkpt>
      <trkpt lat="43.56027" lon="6.78901">
        <ele>163.8</ele>
        <time>2025-10-24T09:32:39.000Z</time>
      </trkpt>
      <trkpt lat="43.56023" lon="6.78899">
        <ele>163.6</ele>
        <time>2025-10-24T09:32:40.000Z</time>
      </trkpt>
      <trkpt lat="43.56019" lon="6.78896">
        <ele>163.5</ele>
        <time>2025-10-24T09:32:41.000Z</time>
      </trkpt>
      <trkpt lat="43.56015" lon="6.78893">
        <ele>163.3</ele>
        <time>2025-10-24T09:32:42.000Z</time>
      </trkpt>
      <trkpt lat="43.5601" lon="6.7889">
        <ele>163.1</ele>
        <time>2025-10-24T09:32:43.000Z</time>
      </trkpt>
      <trkpt lat="43.56006" lon="6.78887">
        <ele>162.8</ele>
        <time>2025-10-24T09:32:44.000Z</time>
      </trkpt>
      <trkpt lat="43.56001" lon="6.78884">
        <ele>162.6</ele>
        <time>2025-10-24T09:32:45.000Z</time>
      </trkpt>
      <trkpt lat="43.55996" lon="6.78881">
        <ele>162.3</ele>
        <time>2025-10-24T09:32:46.000Z</time>
      </trkpt>
      <trkpt lat="43.55991" lon="6.78878">
        <ele>162</ele>
        <time>2025-10-24T09:32:47.000Z</time>
      </trkpt>
      <trkpt lat="43.55986" lon="6.78876">
        <ele>161.7</ele>
        <time>2025-10-24T09:32:48.000Z</time>
      </trkpt>
      <trkpt lat="43.5598" lon="6.78873">
        <ele>161.3</ele>
        <time>2025-10-24T09:32:49.000Z</time>
      </trkpt>
      <trkpt lat="43.55974" lon="6.78871">
        <ele>160.9</ele>
        <time>2025-10-24T09:32:50.000Z</time>
      </trkpt>
      <trkpt lat="43.55968" lon="6.78868">
        <ele>160.3</ele>
        <time>2025-10-24T09:32:51.000Z</time>
      </trkpt>
      <trkpt lat="43.55962" lon="6.78864">
        <ele>159.8</ele>
        <time>2025-10-24T09:32:52.000Z</time>
      </trkpt>
      <trkpt lat="43.55956" lon="6.7886">
        <ele>159.2</ele>
        <time>2025-10-24T09:32:53.000Z</time>
      </trkpt>
      <trkpt lat="43.55949" lon="6.78855">
        <ele>158.5</ele>
        <time>2025-10-24T09:32:54.000Z</time>
      </trkpt>
      <trkpt lat="43.55943" lon="6.78852">
        <ele>158.1</ele>
        <time>2025-10-24T09:32:55.000Z</time>
      </trkpt>
      <trkpt lat="43.55934" lon="6.78849">
        <ele>157.6</ele>
        <time>2025-10-24T09:32:56.000Z</time>
      </trkpt>
      <trkpt lat="43.55926" lon="6.78848">
        <ele>157.5</ele>
        <time>2025-10-24T09:32:57.000Z</time>
      </trkpt>
      <trkpt lat="43.55918" lon="6.78849">
        <ele>157.7</ele>
        <time>2025-10-24T09:32:58.000Z</time>
      </trkpt>
      <trkpt lat="43.5591" lon="6.78851">
        <ele>158.4</ele>
        <time>2025-10-24T09:32:59.000Z</time>
      </trkpt>
      <trkpt lat="43.55904" lon="6.78853">
        <ele>159.3</ele>
        <time>2025-10-24T09:33:00.000Z</time>
      </trkpt>
      <trkpt lat="43.55899" lon="6.78853">
        <ele>160</ele>
        <time>2025-10-24T09:33:01.000Z</time>
      </trkpt>
      <trkpt lat="43.55895" lon="6.78852">
        <ele>160.6</ele>
        <time>2025-10-24T09:33:02.000Z</time>
      </trkpt>
      <trkpt lat="43.55892" lon="6.78851">
        <ele>161</ele>
        <time>2025-10-24T09:33:03.000Z</time>
      </trkpt>
      <trkpt lat="43.55888" lon="6.78849">
        <ele>161.5</ele>
        <time>2025-10-24T09:33:04.000Z</time>
      </trkpt>
      <trkpt lat="43.55885" lon="6.78848">
        <ele>161.8</ele>
        <time>2025-10-24T09:33:05.000Z</time>
      </trkpt>
      <trkpt lat="43.55881" lon="6.78846">
        <ele>162.1</ele>
        <time>2025-10-24T09:33:06.000Z</time>
      </trkpt>
      <trkpt lat="43.55877" lon="6.78843">
        <ele>162.4</ele>
        <time>2025-10-24T09:33:07.000Z</time>
      </trkpt>
      <trkpt lat="43.55874" lon="6.78839">
        <ele>162.7</ele>
        <time>2025-10-24T09:33:08.000Z</time>
      </trkpt>
      <trkpt lat="43.55872" lon="6.78835">
        <ele>162.9</ele>
        <time>2025-10-24T09:33:09.000Z</time>
      </trkpt>
      <trkpt lat="43.55868" lon="6.7883">
        <ele>163.2</ele>
        <time>2025-10-24T09:33:10.000Z</time>
      </trkpt>
      <trkpt lat="43.55866" lon="6.78825">
        <ele>163.5</ele>
        <time>2025-10-24T09:33:11.000Z</time>
      </trkpt>
      <trkpt lat="43.55863" lon="6.7882">
        <ele>163.7</ele>
        <time>2025-10-24T09:33:12.000Z</time>
      </trkpt>
      <trkpt lat="43.5586" lon="6.78816">
        <ele>163.9</ele>
        <time>2025-10-24T09:33:13.000Z</time>
      </trkpt>
      <trkpt lat="43.55858" lon="6.78811">
        <ele>164</ele>
        <time>2025-10-24T09:33:14.000Z</time>
      </trkpt>
      <trkpt lat="43.55856" lon="6.78807">
        <ele>164</ele>
        <time>2025-10-24T09:33:15.000Z</time>
      </trkpt>
      <trkpt lat="43.55854" lon="6.78802">
        <ele>164.1</ele>
        <time>2025-10-24T09:33:16.000Z</time>
      </trkpt>
      <trkpt lat="43.55851" lon="6.78799">
        <ele>164.1</ele>
        <time>2025-10-24T09:33:17.000Z</time>
      </trkpt>
      <trkpt lat="43.55848" lon="6.78795">
        <ele>164.1</ele>
        <time>2025-10-24T09:33:18.000Z</time>
      </trkpt>
      <trkpt lat="43.55846" lon="6.78793">
        <ele>164</ele>
        <time>2025-10-24T09:33:19.000Z</time>
      </trkpt>
      <trkpt lat="43.55841" lon="6.78789">
        <ele>163.8</ele>
        <time>2025-10-24T09:33:20.000Z</time>
      </trkpt>
      <trkpt lat="43.55838" lon="6.78786">
        <ele>163.6</ele>
        <time>2025-10-24T09:33:21.000Z</time>
      </trkpt>
      <trkpt lat="43.55834" lon="6.78783">
        <ele>163.5</ele>
        <time>2025-10-24T09:33:22.000Z</time>
      </trkpt>
      <trkpt lat="43.5583" lon="6.78779">
        <ele>163.3</ele>
        <time>2025-10-24T09:33:23.000Z</time>
      </trkpt>
      <trkpt lat="43.55826" lon="6.78776">
        <ele>163.2</ele>
        <time>2025-10-24T09:33:24.000Z</time>
      </trkpt>
      <trkpt lat="43.55822" lon="6.78772">
        <ele>163.1</ele>
        <time>2025-10-24T09:33:25.000Z</time>
      </trkpt>
      <trkpt lat="43.55817" lon="6.7877">
        <ele>163</ele>
        <time>2025-10-24T09:33:26.000Z</time>
      </trkpt>
      <trkpt lat="43.55812" lon="6.78767">
        <ele>163</ele>
        <time>2025-10-24T09:33:27.000Z</time>
      </trkpt>
      <trkpt lat="43.55807" lon="6.78766">
        <ele>162.9</ele>
        <time>2025-10-24T09:33:28.000Z</time>
      </trkpt>
      <trkpt lat="43.55801" lon="6.78765">
        <ele>162.9</ele>
        <time>2025-10-24T09:33:29.000Z</time>
      </trkpt>
      <trkpt lat="43.55796" lon="6.78766">
        <ele>162.9</ele>
        <time>2025-10-24T09:33:30.000Z</time>
      </trkpt>
      <trkpt lat="43.5579" lon="6.78766">
        <ele>162.8</ele>
        <time>2025-10-24T09:33:31.000Z</time>
      </trkpt>
      <trkpt lat="43.55785" lon="6.78768">
        <ele>162.8</ele>
        <time>2025-10-24T09:33:32.000Z</time>
      </trkpt>
      <trkpt lat="43.55779" lon="6.7877">
        <ele>162.8</ele>
        <time>2025-10-24T09:33:33.000Z</time>
      </trkpt>
      <trkpt lat="43.55774" lon="6.78772">
        <ele>162.7</ele>
        <time>2025-10-24T09:33:34.000Z</time>
      </trkpt>
      <trkpt lat="43.55768" lon="6.78773">
        <ele>162.7</ele>
        <time>2025-10-24T09:33:35.000Z</time>
      </trkpt>
      <trkpt lat="43.55763" lon="6.78775">
        <ele>162.7</ele>
        <time>2025-10-24T09:33:36.000Z</time>
      </trkpt>
      <trkpt lat="43.55757" lon="6.78776">
        <ele>162.7</ele>
        <time>2025-10-24T09:33:37.000Z</time>
      </trkpt>
      <trkpt lat="43.55752" lon="6.78777">
        <ele>162.6</ele>
        <time>2025-10-24T09:33:38.000Z</time>
      </trkpt>
      <trkpt lat="43.55747" lon="6.78778">
        <ele>162.6</ele>
        <time>2025-10-24T09:33:39.000Z</time>
      </trkpt>
      <trkpt lat="43.55742" lon="6.78779">
        <ele>162.4</ele>
        <time>2025-10-24T09:33:40.000Z</time>
      </trkpt>
      <trkpt lat="43.55738" lon="6.78779">
        <ele>162.3</ele>
        <time>2025-10-24T09:33:41.000Z</time>
      </trkpt>
      <trkpt lat="43.55732" lon="6.78779">
        <ele>162</ele>
        <time>2025-10-24T09:33:42.000Z</time>
      </trkpt>
      <trkpt lat="43.55728" lon="6.78779">
        <ele>161.8</ele>
        <time>2025-10-24T09:33:43.000Z</time>
      </trkpt>
      <trkpt lat="43.55724" lon="6.78778">
        <ele>161.6</ele>
        <time>2025-10-24T09:33:44.000Z</time>
      </trkpt>
      <trkpt lat="43.55719" lon="6.78779">
        <ele>161.3</ele>
        <time>2025-10-24T09:33:45.000Z</time>
      </trkpt>
      <trkpt lat="43.55714" lon="6.7878">
        <ele>161.1</ele>
        <time>2025-10-24T09:33:46.000Z</time>
      </trkpt>
      <trkpt lat="43.55709" lon="6.78781">
        <ele>160.8</ele>
        <time>2025-10-24T09:33:47.000Z</time>
      </trkpt>
    </trkseg>
  </trk>
</gpx>